<?xml version="1.0" encoding="UTF-8" standalone="no" ?>
<gpx xmlns="http://www.topografix.com/GPX/1/1" xmlns:xsi="http://www.w3.org/2001/XMLSchema-instance" xsi:schemaLocation="http://www.topografix.com/GPX/1/1 http://www.topografix.com/GPX/1/1/gpx.xsd" version="1.1" creator="VisuGPX - https://www.visugpx.com">
  <metadata>
    <name>lundi 2016 02 29</name>
    <desc><![CDATA[rando du lundi]]></desc>
  </metadata>
  <trk>
    <name><![CDATA[lundi 2016 02 29]]></name>
    <trkseg>
      <trkpt lat="48.85743" lon="2.34737">
        <ele>40.400001525879</ele>
        <time>2016-02-29T19:20:18.000Z</time>
      </trkpt>
      <trkpt lat="48.85755" lon="2.34748">
        <ele>40.200000762939</ele>
        <time>2016-02-29T19:20:43.000Z</time>
      </trkpt>
      <trkpt lat="48.8576" lon="2.34756">
        <ele>40</ele>
        <time>2016-02-29T19:20:47.000Z</time>
      </trkpt>
      <trkpt lat="48.85754" lon="2.34781">
        <ele>39.400001525879</ele>
        <time>2016-02-29T19:20:58.000Z</time>
      </trkpt>
      <trkpt lat="48.85766" lon="2.34784">
        <ele>39.200000762939</ele>
        <time>2016-02-29T19:21:04.000Z</time>
      </trkpt>
      <trkpt lat="48.85785" lon="2.3479">
        <ele>40.400001525879</ele>
        <time>2016-02-29T19:21:10.000Z</time>
      </trkpt>
      <trkpt lat="48.85803" lon="2.348">
        <ele>42.400001525879</ele>
        <time>2016-02-29T19:21:16.000Z</time>
      </trkpt>
      <trkpt lat="48.85824" lon="2.34811">
        <ele>44.599998474121</ele>
        <time>2016-02-29T19:21:21.000Z</time>
      </trkpt>
      <trkpt lat="48.85841" lon="2.3482">
        <ele>46.599998474121</ele>
        <time>2016-02-29T19:21:25.000Z</time>
      </trkpt>
      <trkpt lat="48.8586" lon="2.34829">
        <ele>48</ele>
        <time>2016-02-29T19:21:29.000Z</time>
      </trkpt>
      <trkpt lat="48.85878" lon="2.34838">
        <ele>48</ele>
        <time>2016-02-29T19:21:33.000Z</time>
      </trkpt>
      <trkpt lat="48.85895" lon="2.34847">
        <ele>48</ele>
        <time>2016-02-29T19:21:37.000Z</time>
      </trkpt>
      <trkpt lat="48.85915" lon="2.34856">
        <ele>48</ele>
        <time>2016-02-29T19:21:42.000Z</time>
      </trkpt>
      <trkpt lat="48.85934" lon="2.34863">
        <ele>48</ele>
        <time>2016-02-29T19:21:47.000Z</time>
      </trkpt>
      <trkpt lat="48.85955" lon="2.34871">
        <ele>48.200000762939</ele>
        <time>2016-02-29T19:21:53.000Z</time>
      </trkpt>
      <trkpt lat="48.85967" lon="2.34876">
        <ele>48.400001525879</ele>
        <time>2016-02-29T19:21:56.000Z</time>
      </trkpt>
      <trkpt lat="48.85985" lon="2.34885">
        <ele>48.599998474121</ele>
        <time>2016-02-29T19:22:01.000Z</time>
      </trkpt>
      <trkpt lat="48.86003" lon="2.34892">
        <ele>48.799999237061</ele>
        <time>2016-02-29T19:22:06.000Z</time>
      </trkpt>
      <trkpt lat="48.86021" lon="2.34899">
        <ele>48.799999237061</ele>
        <time>2016-02-29T19:22:10.000Z</time>
      </trkpt>
      <trkpt lat="48.8604" lon="2.34908">
        <ele>48.599998474121</ele>
        <time>2016-02-29T19:22:14.000Z</time>
      </trkpt>
      <trkpt lat="48.86053" lon="2.34912">
        <ele>48.200000762939</ele>
        <time>2016-02-29T19:22:17.000Z</time>
      </trkpt>
      <trkpt lat="48.86071" lon="2.34919">
        <ele>47.799999237061</ele>
        <time>2016-02-29T19:22:21.000Z</time>
      </trkpt>
      <trkpt lat="48.86093" lon="2.34926">
        <ele>47.200000762939</ele>
        <time>2016-02-29T19:22:26.000Z</time>
      </trkpt>
      <trkpt lat="48.86114" lon="2.3493">
        <ele>47</ele>
        <time>2016-02-29T19:22:30.000Z</time>
      </trkpt>
      <trkpt lat="48.86133" lon="2.34937">
        <ele>47</ele>
        <time>2016-02-29T19:22:34.000Z</time>
      </trkpt>
      <trkpt lat="48.8615" lon="2.34949">
        <ele>46.799999237061</ele>
        <time>2016-02-29T19:22:38.000Z</time>
      </trkpt>
      <trkpt lat="48.86167" lon="2.34966">
        <ele>46.799999237061</ele>
        <time>2016-02-29T19:22:42.000Z</time>
      </trkpt>
      <trkpt lat="48.86177" lon="2.34972">
        <ele>46.799999237061</ele>
        <time>2016-02-29T19:22:45.000Z</time>
      </trkpt>
      <trkpt lat="48.86194" lon="2.34986">
        <ele>47</ele>
        <time>2016-02-29T19:22:50.000Z</time>
      </trkpt>
      <trkpt lat="48.86206" lon="2.3499">
        <ele>47.200000762939</ele>
        <time>2016-02-29T19:22:53.000Z</time>
      </trkpt>
      <trkpt lat="48.86224" lon="2.35001">
        <ele>47.400001525879</ele>
        <time>2016-02-29T19:22:57.000Z</time>
      </trkpt>
      <trkpt lat="48.86227" lon="2.35003">
        <ele>47.599998474121</ele>
        <time>2016-02-29T19:22:58.000Z</time>
      </trkpt>
      <trkpt lat="48.8624" lon="2.3501">
        <ele>47.799999237061</ele>
        <time>2016-02-29T19:23:02.000Z</time>
      </trkpt>
      <trkpt lat="48.8625" lon="2.35015">
        <ele>48</ele>
        <time>2016-02-29T19:23:05.000Z</time>
      </trkpt>
      <trkpt lat="48.86261" lon="2.35019">
        <ele>48.200000762939</ele>
        <time>2016-02-29T19:23:08.000Z</time>
      </trkpt>
      <trkpt lat="48.86282" lon="2.35027">
        <ele>48.200000762939</ele>
        <time>2016-02-29T19:23:13.000Z</time>
      </trkpt>
      <trkpt lat="48.86302" lon="2.35038">
        <ele>48.200000762939</ele>
        <time>2016-02-29T19:23:18.000Z</time>
      </trkpt>
      <trkpt lat="48.86319" lon="2.35056">
        <ele>48.200000762939</ele>
        <time>2016-02-29T19:23:23.000Z</time>
      </trkpt>
      <trkpt lat="48.8633" lon="2.35066">
        <ele>48.200000762939</ele>
        <time>2016-02-29T19:23:26.000Z</time>
      </trkpt>
      <trkpt lat="48.86344" lon="2.35073">
        <ele>48</ele>
        <time>2016-02-29T19:23:30.000Z</time>
      </trkpt>
      <trkpt lat="48.8636" lon="2.35083">
        <ele>48</ele>
        <time>2016-02-29T19:23:35.000Z</time>
      </trkpt>
      <trkpt lat="48.86377" lon="2.35094">
        <ele>47.599998474121</ele>
        <time>2016-02-29T19:23:40.000Z</time>
      </trkpt>
      <trkpt lat="48.86395" lon="2.35105">
        <ele>47.400001525879</ele>
        <time>2016-02-29T19:23:46.000Z</time>
      </trkpt>
      <trkpt lat="48.86416" lon="2.35109">
        <ele>46.799999237061</ele>
        <time>2016-02-29T19:23:51.000Z</time>
      </trkpt>
      <trkpt lat="48.86435" lon="2.35132">
        <ele>46.799999237061</ele>
        <time>2016-02-29T19:23:56.000Z</time>
      </trkpt>
      <trkpt lat="48.86451" lon="2.35145">
        <ele>46.400001525879</ele>
        <time>2016-02-29T19:24:00.000Z</time>
      </trkpt>
      <trkpt lat="48.86468" lon="2.35158">
        <ele>46.200000762939</ele>
        <time>2016-02-29T19:24:04.000Z</time>
      </trkpt>
      <trkpt lat="48.86485" lon="2.3517">
        <ele>46</ele>
        <time>2016-02-29T19:24:08.000Z</time>
      </trkpt>
      <trkpt lat="48.86503" lon="2.35173">
        <ele>45.799999237061</ele>
        <time>2016-02-29T19:24:12.000Z</time>
      </trkpt>
      <trkpt lat="48.86521" lon="2.35183">
        <ele>45.799999237061</ele>
        <time>2016-02-29T19:24:16.000Z</time>
      </trkpt>
      <trkpt lat="48.86524" lon="2.35187">
        <ele>45.799999237061</ele>
        <time>2016-02-29T19:24:17.000Z</time>
      </trkpt>
      <trkpt lat="48.86539" lon="2.35204">
        <ele>46.599998474121</ele>
        <time>2016-02-29T19:24:22.000Z</time>
      </trkpt>
      <trkpt lat="48.86556" lon="2.35218">
        <ele>47.400001525879</ele>
        <time>2016-02-29T19:24:28.000Z</time>
      </trkpt>
      <trkpt lat="48.86559" lon="2.35219">
        <ele>47.400001525879</ele>
        <time>2016-02-29T19:24:29.000Z</time>
      </trkpt>
      <trkpt lat="48.86578" lon="2.35221">
        <ele>47.599998474121</ele>
        <time>2016-02-29T19:24:36.000Z</time>
      </trkpt>
      <trkpt lat="48.86597" lon="2.35224">
        <ele>48.599998474121</ele>
        <time>2016-02-29T19:24:44.000Z</time>
      </trkpt>
      <trkpt lat="48.86606" lon="2.35224">
        <ele>49</ele>
        <time>2016-02-29T19:24:48.000Z</time>
      </trkpt>
      <trkpt lat="48.86625" lon="2.35227">
        <ele>49.200000762939</ele>
        <time>2016-02-29T19:24:54.000Z</time>
      </trkpt>
      <trkpt lat="48.86643" lon="2.35233">
        <ele>49.400001525879</ele>
        <time>2016-02-29T19:25:00.000Z</time>
      </trkpt>
      <trkpt lat="48.86663" lon="2.35246">
        <ele>49.599998474121</ele>
        <time>2016-02-29T19:25:05.000Z</time>
      </trkpt>
      <trkpt lat="48.8668" lon="2.35258">
        <ele>49.799999237061</ele>
        <time>2016-02-29T19:25:09.000Z</time>
      </trkpt>
      <trkpt lat="48.867" lon="2.35272">
        <ele>49.400001525879</ele>
        <time>2016-02-29T19:25:14.000Z</time>
      </trkpt>
      <trkpt lat="48.86719" lon="2.35285">
        <ele>48.200000762939</ele>
        <time>2016-02-29T19:25:18.000Z</time>
      </trkpt>
      <trkpt lat="48.86738" lon="2.353">
        <ele>47</ele>
        <time>2016-02-29T19:25:22.000Z</time>
      </trkpt>
      <trkpt lat="48.86756" lon="2.35313">
        <ele>46</ele>
        <time>2016-02-29T19:25:26.000Z</time>
      </trkpt>
      <trkpt lat="48.86774" lon="2.35321">
        <ele>45.400001525879</ele>
        <time>2016-02-29T19:25:30.000Z</time>
      </trkpt>
      <trkpt lat="48.86794" lon="2.3533">
        <ele>45.799999237061</ele>
        <time>2016-02-29T19:25:34.000Z</time>
      </trkpt>
      <trkpt lat="48.86814" lon="2.35342">
        <ele>46.400001525879</ele>
        <time>2016-02-29T19:25:38.000Z</time>
      </trkpt>
      <trkpt lat="48.86833" lon="2.35352">
        <ele>47.200000762939</ele>
        <time>2016-02-29T19:25:42.000Z</time>
      </trkpt>
      <trkpt lat="48.86852" lon="2.35363">
        <ele>47.799999237061</ele>
        <time>2016-02-29T19:25:46.000Z</time>
      </trkpt>
      <trkpt lat="48.86856" lon="2.35366">
        <ele>48</ele>
        <time>2016-02-29T19:25:47.000Z</time>
      </trkpt>
      <trkpt lat="48.86874" lon="2.35376">
        <ele>47.799999237061</ele>
        <time>2016-02-29T19:25:51.000Z</time>
      </trkpt>
      <trkpt lat="48.86891" lon="2.35382">
        <ele>47.599998474121</ele>
        <time>2016-02-29T19:25:55.000Z</time>
      </trkpt>
      <trkpt lat="48.86905" lon="2.35391">
        <ele>47.400001525879</ele>
        <time>2016-02-29T19:25:59.000Z</time>
      </trkpt>
      <trkpt lat="48.86913" lon="2.35399">
        <ele>47.400001525879</ele>
        <time>2016-02-29T19:26:04.000Z</time>
      </trkpt>
      <trkpt lat="48.8692" lon="2.35406">
        <ele>47.200000762939</ele>
        <time>2016-02-29T19:26:08.000Z</time>
      </trkpt>
      <trkpt lat="48.86922" lon="2.35411">
        <ele>47.200000762939</ele>
        <time>2016-02-29T19:26:10.000Z</time>
      </trkpt>
      <trkpt lat="48.86925" lon="2.35412">
        <ele>47.200000762939</ele>
        <time>2016-02-29T19:26:14.000Z</time>
      </trkpt>
      <trkpt lat="48.86946" lon="2.35421">
        <ele>47.200000762939</ele>
        <time>2016-02-29T19:26:30.000Z</time>
      </trkpt>
      <trkpt lat="48.86964" lon="2.35431">
        <ele>47.799999237061</ele>
        <time>2016-02-29T19:26:35.000Z</time>
      </trkpt>
      <trkpt lat="48.86981" lon="2.35439">
        <ele>48.400001525879</ele>
        <time>2016-02-29T19:26:39.000Z</time>
      </trkpt>
      <trkpt lat="48.87" lon="2.35448">
        <ele>48.799999237061</ele>
        <time>2016-02-29T19:26:43.000Z</time>
      </trkpt>
      <trkpt lat="48.87019" lon="2.35457">
        <ele>49.400001525879</ele>
        <time>2016-02-29T19:26:48.000Z</time>
      </trkpt>
      <trkpt lat="48.87039" lon="2.35468">
        <ele>49</ele>
        <time>2016-02-29T19:26:54.000Z</time>
      </trkpt>
      <trkpt lat="48.87059" lon="2.3548">
        <ele>48.400001525879</ele>
        <time>2016-02-29T19:26:59.000Z</time>
      </trkpt>
      <trkpt lat="48.87078" lon="2.35488">
        <ele>47.799999237061</ele>
        <time>2016-02-29T19:27:03.000Z</time>
      </trkpt>
      <trkpt lat="48.87099" lon="2.35496">
        <ele>47.200000762939</ele>
        <time>2016-02-29T19:27:07.000Z</time>
      </trkpt>
      <trkpt lat="48.87114" lon="2.35503">
        <ele>46.799999237061</ele>
        <time>2016-02-29T19:27:10.000Z</time>
      </trkpt>
      <trkpt lat="48.87136" lon="2.35515">
        <ele>46.400001525879</ele>
        <time>2016-02-29T19:27:14.000Z</time>
      </trkpt>
      <trkpt lat="48.8714" lon="2.35518">
        <ele>46.400001525879</ele>
        <time>2016-02-29T19:27:15.000Z</time>
      </trkpt>
      <trkpt lat="48.87156" lon="2.35526">
        <ele>46.200000762939</ele>
        <time>2016-02-29T19:27:18.000Z</time>
      </trkpt>
      <trkpt lat="48.87175" lon="2.35538">
        <ele>45.799999237061</ele>
        <time>2016-02-29T19:27:22.000Z</time>
      </trkpt>
      <trkpt lat="48.87193" lon="2.3555">
        <ele>45.599998474121</ele>
        <time>2016-02-29T19:27:26.000Z</time>
      </trkpt>
      <trkpt lat="48.87213" lon="2.35562">
        <ele>45.400001525879</ele>
        <time>2016-02-29T19:27:31.000Z</time>
      </trkpt>
      <trkpt lat="48.87229" lon="2.35567">
        <ele>45.400001525879</ele>
        <time>2016-02-29T19:27:35.000Z</time>
      </trkpt>
      <trkpt lat="48.87244" lon="2.35576">
        <ele>45.200000762939</ele>
        <time>2016-02-29T19:27:38.000Z</time>
      </trkpt>
      <trkpt lat="48.87253" lon="2.35582">
        <ele>45.200000762939</ele>
        <time>2016-02-29T19:27:40.000Z</time>
      </trkpt>
      <trkpt lat="48.87271" lon="2.35588">
        <ele>45.200000762939</ele>
        <time>2016-02-29T19:27:44.000Z</time>
      </trkpt>
      <trkpt lat="48.87291" lon="2.35597">
        <ele>45.200000762939</ele>
        <time>2016-02-29T19:27:49.000Z</time>
      </trkpt>
      <trkpt lat="48.87309" lon="2.35605">
        <ele>45.400001525879</ele>
        <time>2016-02-29T19:27:54.000Z</time>
      </trkpt>
      <trkpt lat="48.87329" lon="2.35614">
        <ele>45.599998474121</ele>
        <time>2016-02-29T19:27:59.000Z</time>
      </trkpt>
      <trkpt lat="48.87347" lon="2.35619">
        <ele>45.799999237061</ele>
        <time>2016-02-29T19:28:03.000Z</time>
      </trkpt>
      <trkpt lat="48.87367" lon="2.35629">
        <ele>46.200000762939</ele>
        <time>2016-02-29T19:28:08.000Z</time>
      </trkpt>
      <trkpt lat="48.87387" lon="2.35639">
        <ele>46.799999237061</ele>
        <time>2016-02-29T19:28:13.000Z</time>
      </trkpt>
      <trkpt lat="48.87404" lon="2.35648">
        <ele>47.200000762939</ele>
        <time>2016-02-29T19:28:17.000Z</time>
      </trkpt>
      <trkpt lat="48.87425" lon="2.35656">
        <ele>47.599998474121</ele>
        <time>2016-02-29T19:28:22.000Z</time>
      </trkpt>
      <trkpt lat="48.8744" lon="2.35667">
        <ele>48</ele>
        <time>2016-02-29T19:28:26.000Z</time>
      </trkpt>
      <trkpt lat="48.87452" lon="2.35679">
        <ele>48</ele>
        <time>2016-02-29T19:28:30.000Z</time>
      </trkpt>
      <trkpt lat="48.87459" lon="2.35685">
        <ele>48</ele>
        <time>2016-02-29T19:28:33.000Z</time>
      </trkpt>
      <trkpt lat="48.87463" lon="2.35692">
        <ele>48</ele>
        <time>2016-02-29T19:28:37.000Z</time>
      </trkpt>
      <trkpt lat="48.87459" lon="2.3572">
        <ele>47.599998474121</ele>
        <time>2016-02-29T19:28:51.000Z</time>
      </trkpt>
      <trkpt lat="48.87475" lon="2.35732">
        <ele>47.599998474121</ele>
        <time>2016-02-29T19:29:14.000Z</time>
      </trkpt>
      <trkpt lat="48.87495" lon="2.35742">
        <ele>47.799999237061</ele>
        <time>2016-02-29T19:29:20.000Z</time>
      </trkpt>
      <trkpt lat="48.87513" lon="2.35749">
        <ele>48</ele>
        <time>2016-02-29T19:29:25.000Z</time>
      </trkpt>
      <trkpt lat="48.87531" lon="2.35758">
        <ele>48.400001525879</ele>
        <time>2016-02-29T19:29:30.000Z</time>
      </trkpt>
      <trkpt lat="48.87549" lon="2.35768">
        <ele>49</ele>
        <time>2016-02-29T19:29:36.000Z</time>
      </trkpt>
      <trkpt lat="48.87569" lon="2.35774">
        <ele>49.799999237061</ele>
        <time>2016-02-29T19:29:42.000Z</time>
      </trkpt>
      <trkpt lat="48.87586" lon="2.35785">
        <ele>50.599998474121</ele>
        <time>2016-02-29T19:29:48.000Z</time>
      </trkpt>
      <trkpt lat="48.87602" lon="2.35807">
        <ele>51</ele>
        <time>2016-02-29T19:29:54.000Z</time>
      </trkpt>
      <trkpt lat="48.8761" lon="2.35834">
        <ele>51</ele>
        <time>2016-02-29T19:29:58.000Z</time>
      </trkpt>
      <trkpt lat="48.87608" lon="2.35866">
        <ele>51</ele>
        <time>2016-02-29T19:30:02.000Z</time>
      </trkpt>
      <trkpt lat="48.87605" lon="2.35897">
        <ele>51</ele>
        <time>2016-02-29T19:30:07.000Z</time>
      </trkpt>
      <trkpt lat="48.87604" lon="2.35928">
        <ele>51</ele>
        <time>2016-02-29T19:30:12.000Z</time>
      </trkpt>
      <trkpt lat="48.87597" lon="2.35956">
        <ele>51</ele>
        <time>2016-02-29T19:30:17.000Z</time>
      </trkpt>
      <trkpt lat="48.87591" lon="2.35977">
        <ele>50.799999237061</ele>
        <time>2016-02-29T19:30:21.000Z</time>
      </trkpt>
      <trkpt lat="48.87582" lon="2.36002">
        <ele>50</ele>
        <time>2016-02-29T19:30:30.000Z</time>
      </trkpt>
      <trkpt lat="48.87584" lon="2.36005">
        <ele>50.200000762939</ele>
        <time>2016-02-29T19:30:35.000Z</time>
      </trkpt>
      <trkpt lat="48.87585" lon="2.36005">
        <ele>50.200000762939</ele>
        <time>2016-02-29T19:30:36.000Z</time>
      </trkpt>
      <trkpt lat="48.8759" lon="2.36033">
        <ele>50.599998474121</ele>
        <time>2016-02-29T19:30:46.000Z</time>
      </trkpt>
      <trkpt lat="48.87604" lon="2.36053">
        <ele>51.799999237061</ele>
        <time>2016-02-29T19:30:52.000Z</time>
      </trkpt>
      <trkpt lat="48.87606" lon="2.36064">
        <ele>52</ele>
        <time>2016-02-29T19:30:55.000Z</time>
      </trkpt>
      <trkpt lat="48.87602" lon="2.36094">
        <ele>51.599998474121</ele>
        <time>2016-02-29T19:31:02.000Z</time>
      </trkpt>
      <trkpt lat="48.8761" lon="2.36122">
        <ele>51.799999237061</ele>
        <time>2016-02-29T19:31:08.000Z</time>
      </trkpt>
      <trkpt lat="48.8762" lon="2.36146">
        <ele>52.599998474121</ele>
        <time>2016-02-29T19:31:14.000Z</time>
      </trkpt>
      <trkpt lat="48.87629" lon="2.36171">
        <ele>52.799999237061</ele>
        <time>2016-02-29T19:31:19.000Z</time>
      </trkpt>
      <trkpt lat="48.87639" lon="2.36199">
        <ele>52.200000762939</ele>
        <time>2016-02-29T19:31:26.000Z</time>
      </trkpt>
      <trkpt lat="48.87644" lon="2.36227">
        <ele>52.400001525879</ele>
        <time>2016-02-29T19:31:33.000Z</time>
      </trkpt>
      <trkpt lat="48.87655" lon="2.36253">
        <ele>52.400001525879</ele>
        <time>2016-02-29T19:31:40.000Z</time>
      </trkpt>
      <trkpt lat="48.87665" lon="2.36265">
        <ele>52</ele>
        <time>2016-02-29T19:31:45.000Z</time>
      </trkpt>
      <trkpt lat="48.87675" lon="2.36272">
        <ele>52</ele>
        <time>2016-02-29T19:31:49.000Z</time>
      </trkpt>
      <trkpt lat="48.87688" lon="2.36298">
        <ele>51</ele>
        <time>2016-02-29T19:31:54.000Z</time>
      </trkpt>
      <trkpt lat="48.87705" lon="2.36316">
        <ele>50.599998474121</ele>
        <time>2016-02-29T19:32:01.000Z</time>
      </trkpt>
      <trkpt lat="48.8771" lon="2.36325">
        <ele>50.400001525879</ele>
        <time>2016-02-29T19:32:06.000Z</time>
      </trkpt>
      <trkpt lat="48.87704" lon="2.36356">
        <ele>49</ele>
        <time>2016-02-29T19:32:13.000Z</time>
      </trkpt>
      <trkpt lat="48.87704" lon="2.36365">
        <ele>48.599998474121</ele>
        <time>2016-02-29T19:32:15.000Z</time>
      </trkpt>
      <trkpt lat="48.87711" lon="2.36381">
        <ele>48.400001525879</ele>
        <time>2016-02-29T19:32:19.000Z</time>
      </trkpt>
      <trkpt lat="48.87721" lon="2.36404">
        <ele>48.200000762939</ele>
        <time>2016-02-29T19:32:24.000Z</time>
      </trkpt>
      <trkpt lat="48.87736" lon="2.3642">
        <ele>48.599998474121</ele>
        <time>2016-02-29T19:32:30.000Z</time>
      </trkpt>
      <trkpt lat="48.87754" lon="2.36434">
        <ele>49.200000762939</ele>
        <time>2016-02-29T19:32:36.000Z</time>
      </trkpt>
      <trkpt lat="48.87771" lon="2.36445">
        <ele>50</ele>
        <time>2016-02-29T19:32:41.000Z</time>
      </trkpt>
      <trkpt lat="48.87787" lon="2.36462">
        <ele>50</ele>
        <time>2016-02-29T19:32:47.000Z</time>
      </trkpt>
      <trkpt lat="48.87797" lon="2.36472">
        <ele>50</ele>
        <time>2016-02-29T19:32:55.000Z</time>
      </trkpt>
      <trkpt lat="48.87792" lon="2.36487">
        <ele>48.799999237061</ele>
        <time>2016-02-29T19:33:01.000Z</time>
      </trkpt>
      <trkpt lat="48.87779" lon="2.36508">
        <ele>47.200000762939</ele>
        <time>2016-02-29T19:33:07.000Z</time>
      </trkpt>
      <trkpt lat="48.87773" lon="2.36541">
        <ele>47.599998474121</ele>
        <time>2016-02-29T19:33:17.000Z</time>
      </trkpt>
      <trkpt lat="48.87757" lon="2.36557">
        <ele>47.799999237061</ele>
        <time>2016-02-29T19:33:25.000Z</time>
      </trkpt>
      <trkpt lat="48.87758" lon="2.36583">
        <ele>48.200000762939</ele>
        <time>2016-02-29T19:33:33.000Z</time>
      </trkpt>
      <trkpt lat="48.87773" lon="2.366">
        <ele>48.400001525879</ele>
        <time>2016-02-29T19:33:39.000Z</time>
      </trkpt>
      <trkpt lat="48.8779" lon="2.36612">
        <ele>49.400001525879</ele>
        <time>2016-02-29T19:33:44.000Z</time>
      </trkpt>
      <trkpt lat="48.87808" lon="2.36629">
        <ele>50.400001525879</ele>
        <time>2016-02-29T19:33:49.000Z</time>
      </trkpt>
      <trkpt lat="48.87826" lon="2.36642">
        <ele>51.400001525879</ele>
        <time>2016-02-29T19:33:53.000Z</time>
      </trkpt>
      <trkpt lat="48.87843" lon="2.36655">
        <ele>52.400001525879</ele>
        <time>2016-02-29T19:33:57.000Z</time>
      </trkpt>
      <trkpt lat="48.87862" lon="2.36667">
        <ele>53.200000762939</ele>
        <time>2016-02-29T19:34:01.000Z</time>
      </trkpt>
      <trkpt lat="48.87881" lon="2.36679">
        <ele>54.400001525879</ele>
        <time>2016-02-29T19:34:06.000Z</time>
      </trkpt>
      <trkpt lat="48.87893" lon="2.36688">
        <ele>55</ele>
        <time>2016-02-29T19:34:09.000Z</time>
      </trkpt>
      <trkpt lat="48.87914" lon="2.36706">
        <ele>56.200000762939</ele>
        <time>2016-02-29T19:34:13.000Z</time>
      </trkpt>
      <trkpt lat="48.87933" lon="2.36722">
        <ele>57.400001525879</ele>
        <time>2016-02-29T19:34:17.000Z</time>
      </trkpt>
      <trkpt lat="48.8794" lon="2.36737">
        <ele>57.799999237061</ele>
        <time>2016-02-29T19:34:19.000Z</time>
      </trkpt>
      <trkpt lat="48.87949" lon="2.36765">
        <ele>57.599998474121</ele>
        <time>2016-02-29T19:34:24.000Z</time>
      </trkpt>
      <trkpt lat="48.87953" lon="2.36781">
        <ele>57.400001525879</ele>
        <time>2016-02-29T19:34:34.000Z</time>
      </trkpt>
      <trkpt lat="48.87959" lon="2.36789">
        <ele>57</ele>
        <time>2016-02-29T19:34:48.000Z</time>
      </trkpt>
      <trkpt lat="48.87972" lon="2.36807">
        <ele>56.400001525879</ele>
        <time>2016-02-29T19:34:55.000Z</time>
      </trkpt>
      <trkpt lat="48.87976" lon="2.36809">
        <ele>56.200000762939</ele>
        <time>2016-02-29T19:34:56.000Z</time>
      </trkpt>
      <trkpt lat="48.87992" lon="2.36825">
        <ele>55.599998474121</ele>
        <time>2016-02-29T19:35:01.000Z</time>
      </trkpt>
      <trkpt lat="48.8801" lon="2.36837">
        <ele>55</ele>
        <time>2016-02-29T19:35:07.000Z</time>
      </trkpt>
      <trkpt lat="48.88028" lon="2.36853">
        <ele>55</ele>
        <time>2016-02-29T19:35:13.000Z</time>
      </trkpt>
      <trkpt lat="48.88045" lon="2.36868">
        <ele>55.200000762939</ele>
        <time>2016-02-29T19:35:18.000Z</time>
      </trkpt>
      <trkpt lat="48.88067" lon="2.36877">
        <ele>55.200000762939</ele>
        <time>2016-02-29T19:35:25.000Z</time>
      </trkpt>
      <trkpt lat="48.88085" lon="2.36892">
        <ele>55.400001525879</ele>
        <time>2016-02-29T19:35:32.000Z</time>
      </trkpt>
      <trkpt lat="48.88102" lon="2.36905">
        <ele>55.599998474121</ele>
        <time>2016-02-29T19:35:36.000Z</time>
      </trkpt>
      <trkpt lat="48.88119" lon="2.36924">
        <ele>56.200000762939</ele>
        <time>2016-02-29T19:35:40.000Z</time>
      </trkpt>
      <trkpt lat="48.88134" lon="2.3694">
        <ele>56.400001525879</ele>
        <time>2016-02-29T19:35:44.000Z</time>
      </trkpt>
      <trkpt lat="48.88141" lon="2.36969">
        <ele>57.400001525879</ele>
        <time>2016-02-29T19:35:50.000Z</time>
      </trkpt>
      <trkpt lat="48.88146" lon="2.36999">
        <ele>58.599998474121</ele>
        <time>2016-02-29T19:35:57.000Z</time>
      </trkpt>
      <trkpt lat="48.88164" lon="2.37012">
        <ele>58.400001525879</ele>
        <time>2016-02-29T19:36:02.000Z</time>
      </trkpt>
      <trkpt lat="48.88182" lon="2.3701">
        <ele>57.599998474121</ele>
        <time>2016-02-29T19:36:07.000Z</time>
      </trkpt>
      <trkpt lat="48.88201" lon="2.37007">
        <ele>57.400001525879</ele>
        <time>2016-02-29T19:36:14.000Z</time>
      </trkpt>
      <trkpt lat="48.8822" lon="2.37013">
        <ele>57.400001525879</ele>
        <time>2016-02-29T19:36:19.000Z</time>
      </trkpt>
      <trkpt lat="48.88239" lon="2.37015">
        <ele>57.200000762939</ele>
        <time>2016-02-29T19:36:23.000Z</time>
      </trkpt>
      <trkpt lat="48.88259" lon="2.37014">
        <ele>57</ele>
        <time>2016-02-29T19:36:28.000Z</time>
      </trkpt>
      <trkpt lat="48.88277" lon="2.37014">
        <ele>56.400001525879</ele>
        <time>2016-02-29T19:36:35.000Z</time>
      </trkpt>
      <trkpt lat="48.88295" lon="2.37021">
        <ele>55.599998474121</ele>
        <time>2016-02-29T19:36:43.000Z</time>
      </trkpt>
      <trkpt lat="48.88309" lon="2.37043">
        <ele>55.599998474121</ele>
        <time>2016-02-29T19:36:50.000Z</time>
      </trkpt>
      <trkpt lat="48.88325" lon="2.37059">
        <ele>55.200000762939</ele>
        <time>2016-02-29T19:36:56.000Z</time>
      </trkpt>
      <trkpt lat="48.88343" lon="2.37069">
        <ele>54.400001525879</ele>
        <time>2016-02-29T19:37:03.000Z</time>
      </trkpt>
      <trkpt lat="48.88355" lon="2.37089">
        <ele>54.599998474121</ele>
        <time>2016-02-29T19:37:09.000Z</time>
      </trkpt>
      <trkpt lat="48.88369" lon="2.37113">
        <ele>54.799999237061</ele>
        <time>2016-02-29T19:37:14.000Z</time>
      </trkpt>
      <trkpt lat="48.88383" lon="2.37133">
        <ele>54.799999237061</ele>
        <time>2016-02-29T19:37:18.000Z</time>
      </trkpt>
      <trkpt lat="48.88395" lon="2.37155">
        <ele>55.200000762939</ele>
        <time>2016-02-29T19:37:22.000Z</time>
      </trkpt>
      <trkpt lat="48.88406" lon="2.37182">
        <ele>55.400001525879</ele>
        <time>2016-02-29T19:37:26.000Z</time>
      </trkpt>
      <trkpt lat="48.88416" lon="2.37209">
        <ele>55.599998474121</ele>
        <time>2016-02-29T19:37:30.000Z</time>
      </trkpt>
      <trkpt lat="48.88425" lon="2.37235">
        <ele>55.599998474121</ele>
        <time>2016-02-29T19:37:34.000Z</time>
      </trkpt>
      <trkpt lat="48.88436" lon="2.37262">
        <ele>55.599998474121</ele>
        <time>2016-02-29T19:37:38.000Z</time>
      </trkpt>
      <trkpt lat="48.88449" lon="2.37283">
        <ele>55.799999237061</ele>
        <time>2016-02-29T19:37:42.000Z</time>
      </trkpt>
      <trkpt lat="48.88461" lon="2.37308">
        <ele>56.400001525879</ele>
        <time>2016-02-29T19:37:46.000Z</time>
      </trkpt>
      <trkpt lat="48.88472" lon="2.37332">
        <ele>57</ele>
        <time>2016-02-29T19:37:50.000Z</time>
      </trkpt>
      <trkpt lat="48.88483" lon="2.37355">
        <ele>56.400001525879</ele>
        <time>2016-02-29T19:37:54.000Z</time>
      </trkpt>
      <trkpt lat="48.88494" lon="2.37375">
        <ele>56</ele>
        <time>2016-02-29T19:37:58.000Z</time>
      </trkpt>
      <trkpt lat="48.88499" lon="2.37386">
        <ele>55.599998474121</ele>
        <time>2016-02-29T19:38:00.000Z</time>
      </trkpt>
      <trkpt lat="48.88508" lon="2.37404">
        <ele>55.400001525879</ele>
        <time>2016-02-29T19:38:03.000Z</time>
      </trkpt>
      <trkpt lat="48.88521" lon="2.37426">
        <ele>55.400001525879</ele>
        <time>2016-02-29T19:38:07.000Z</time>
      </trkpt>
      <trkpt lat="48.88528" lon="2.37443">
        <ele>55.400001525879</ele>
        <time>2016-02-29T19:38:10.000Z</time>
      </trkpt>
      <trkpt lat="48.88537" lon="2.37467">
        <ele>55.400001525879</ele>
        <time>2016-02-29T19:38:14.000Z</time>
      </trkpt>
      <trkpt lat="48.88543" lon="2.37479">
        <ele>55.400001525879</ele>
        <time>2016-02-29T19:38:16.000Z</time>
      </trkpt>
      <trkpt lat="48.88555" lon="2.37504">
        <ele>55.400001525879</ele>
        <time>2016-02-29T19:38:20.000Z</time>
      </trkpt>
      <trkpt lat="48.88569" lon="2.37532">
        <ele>55.400001525879</ele>
        <time>2016-02-29T19:38:25.000Z</time>
      </trkpt>
      <trkpt lat="48.8858" lon="2.37554">
        <ele>55.599998474121</ele>
        <time>2016-02-29T19:38:29.000Z</time>
      </trkpt>
      <trkpt lat="48.88594" lon="2.37578">
        <ele>55.599998474121</ele>
        <time>2016-02-29T19:38:34.000Z</time>
      </trkpt>
      <trkpt lat="48.88608" lon="2.37602">
        <ele>55.799999237061</ele>
        <time>2016-02-29T19:38:39.000Z</time>
      </trkpt>
      <trkpt lat="48.88623" lon="2.37627">
        <ele>56.599998474121</ele>
        <time>2016-02-29T19:38:44.000Z</time>
      </trkpt>
      <trkpt lat="48.88635" lon="2.37653">
        <ele>57.599998474121</ele>
        <time>2016-02-29T19:38:48.000Z</time>
      </trkpt>
      <trkpt lat="48.88647" lon="2.37674">
        <ele>58.200000762939</ele>
        <time>2016-02-29T19:38:52.000Z</time>
      </trkpt>
      <trkpt lat="48.88658" lon="2.37697">
        <ele>58.400001525879</ele>
        <time>2016-02-29T19:38:57.000Z</time>
      </trkpt>
      <trkpt lat="48.88671" lon="2.37723">
        <ele>58.599998474121</ele>
        <time>2016-02-29T19:39:02.000Z</time>
      </trkpt>
      <trkpt lat="48.88678" lon="2.37738">
        <ele>59</ele>
        <time>2016-02-29T19:39:05.000Z</time>
      </trkpt>
      <trkpt lat="48.8869" lon="2.37757">
        <ele>58.799999237061</ele>
        <time>2016-02-29T19:39:09.000Z</time>
      </trkpt>
      <trkpt lat="48.88704" lon="2.37778">
        <ele>58</ele>
        <time>2016-02-29T19:39:14.000Z</time>
      </trkpt>
      <trkpt lat="48.88721" lon="2.378">
        <ele>57</ele>
        <time>2016-02-29T19:39:19.000Z</time>
      </trkpt>
      <trkpt lat="48.88724" lon="2.37813">
        <ele>56.599998474121</ele>
        <time>2016-02-29T19:39:21.000Z</time>
      </trkpt>
      <trkpt lat="48.88727" lon="2.37836">
        <ele>56.200000762939</ele>
        <time>2016-02-29T19:39:25.000Z</time>
      </trkpt>
      <trkpt lat="48.88736" lon="2.37852">
        <ele>56.200000762939</ele>
        <time>2016-02-29T19:39:29.000Z</time>
      </trkpt>
      <trkpt lat="48.88738" lon="2.37856">
        <ele>56.200000762939</ele>
        <time>2016-02-29T19:39:30.000Z</time>
      </trkpt>
      <trkpt lat="48.88744" lon="2.37877">
        <ele>56.200000762939</ele>
        <time>2016-02-29T19:39:34.000Z</time>
      </trkpt>
      <trkpt lat="48.88756" lon="2.37898">
        <ele>56.200000762939</ele>
        <time>2016-02-29T19:39:39.000Z</time>
      </trkpt>
      <trkpt lat="48.88768" lon="2.3792">
        <ele>56.200000762939</ele>
        <time>2016-02-29T19:39:44.000Z</time>
      </trkpt>
      <trkpt lat="48.88779" lon="2.37941">
        <ele>56.400001525879</ele>
        <time>2016-02-29T19:39:49.000Z</time>
      </trkpt>
      <trkpt lat="48.88781" lon="2.37949">
        <ele>56.400001525879</ele>
        <time>2016-02-29T19:39:51.000Z</time>
      </trkpt>
      <trkpt lat="48.88788" lon="2.37963">
        <ele>56.400001525879</ele>
        <time>2016-02-29T19:39:55.000Z</time>
      </trkpt>
      <trkpt lat="48.88805" lon="2.37969">
        <ele>55.799999237061</ele>
        <time>2016-02-29T19:40:10.000Z</time>
      </trkpt>
      <trkpt lat="48.88815" lon="2.37967">
        <ele>55.200000762939</ele>
        <time>2016-02-29T19:40:17.000Z</time>
      </trkpt>
      <trkpt lat="48.88825" lon="2.37956">
        <ele>54.599998474121</ele>
        <time>2016-02-29T19:40:34.000Z</time>
      </trkpt>
      <trkpt lat="48.8884" lon="2.37978">
        <ele>54.400001525879</ele>
        <time>2016-02-29T19:40:48.000Z</time>
      </trkpt>
      <trkpt lat="48.88853" lon="2.38003">
        <ele>54.400001525879</ele>
        <time>2016-02-29T19:40:53.000Z</time>
      </trkpt>
      <trkpt lat="48.88861" lon="2.38019">
        <ele>55</ele>
        <time>2016-02-29T19:40:56.000Z</time>
      </trkpt>
      <trkpt lat="48.88876" lon="2.38044">
        <ele>56</ele>
        <time>2016-02-29T19:41:01.000Z</time>
      </trkpt>
      <trkpt lat="48.88889" lon="2.3807">
        <ele>57.200000762939</ele>
        <time>2016-02-29T19:41:06.000Z</time>
      </trkpt>
      <trkpt lat="48.88901" lon="2.38093">
        <ele>58</ele>
        <time>2016-02-29T19:41:11.000Z</time>
      </trkpt>
      <trkpt lat="48.88912" lon="2.38116">
        <ele>58.599998474121</ele>
        <time>2016-02-29T19:41:16.000Z</time>
      </trkpt>
      <trkpt lat="48.88924" lon="2.38138">
        <ele>59.400001525879</ele>
        <time>2016-02-29T19:41:20.000Z</time>
      </trkpt>
      <trkpt lat="48.88936" lon="2.38161">
        <ele>60</ele>
        <time>2016-02-29T19:41:24.000Z</time>
      </trkpt>
      <trkpt lat="48.88949" lon="2.38187">
        <ele>60.200000762939</ele>
        <time>2016-02-29T19:41:28.000Z</time>
      </trkpt>
      <trkpt lat="48.88963" lon="2.38215">
        <ele>60</ele>
        <time>2016-02-29T19:41:32.000Z</time>
      </trkpt>
      <trkpt lat="48.88975" lon="2.38238">
        <ele>60</ele>
        <time>2016-02-29T19:41:35.000Z</time>
      </trkpt>
      <trkpt lat="48.88989" lon="2.38266">
        <ele>59.599998474121</ele>
        <time>2016-02-29T19:41:39.000Z</time>
      </trkpt>
      <trkpt lat="48.89" lon="2.3829">
        <ele>59.200000762939</ele>
        <time>2016-02-29T19:41:42.000Z</time>
      </trkpt>
      <trkpt lat="48.8901" lon="2.3831">
        <ele>58.599998474121</ele>
        <time>2016-02-29T19:41:45.000Z</time>
      </trkpt>
      <trkpt lat="48.89022" lon="2.38337">
        <ele>58</ele>
        <time>2016-02-29T19:41:48.000Z</time>
      </trkpt>
      <trkpt lat="48.89034" lon="2.38363">
        <ele>57.400001525879</ele>
        <time>2016-02-29T19:41:51.000Z</time>
      </trkpt>
      <trkpt lat="48.89044" lon="2.38386">
        <ele>56.799999237061</ele>
        <time>2016-02-29T19:41:54.000Z</time>
      </trkpt>
      <trkpt lat="48.89055" lon="2.38409">
        <ele>56.400001525879</ele>
        <time>2016-02-29T19:41:57.000Z</time>
      </trkpt>
      <trkpt lat="48.89058" lon="2.38416">
        <ele>56.200000762939</ele>
        <time>2016-02-29T19:41:58.000Z</time>
      </trkpt>
      <trkpt lat="48.89071" lon="2.38444">
        <ele>56.200000762939</ele>
        <time>2016-02-29T19:42:02.000Z</time>
      </trkpt>
      <trkpt lat="48.89081" lon="2.38464">
        <ele>56.200000762939</ele>
        <time>2016-02-29T19:42:05.000Z</time>
      </trkpt>
      <trkpt lat="48.8909" lon="2.38483">
        <ele>56.200000762939</ele>
        <time>2016-02-29T19:42:08.000Z</time>
      </trkpt>
      <trkpt lat="48.89103" lon="2.38509">
        <ele>56.599998474121</ele>
        <time>2016-02-29T19:42:12.000Z</time>
      </trkpt>
      <trkpt lat="48.89115" lon="2.38535">
        <ele>57</ele>
        <time>2016-02-29T19:42:16.000Z</time>
      </trkpt>
      <trkpt lat="48.89127" lon="2.3856">
        <ele>57.400001525879</ele>
        <time>2016-02-29T19:42:20.000Z</time>
      </trkpt>
      <trkpt lat="48.8913" lon="2.38566">
        <ele>57.599998474121</ele>
        <time>2016-02-29T19:42:21.000Z</time>
      </trkpt>
      <trkpt lat="48.8914" lon="2.38589">
        <ele>57.599998474121</ele>
        <time>2016-02-29T19:42:25.000Z</time>
      </trkpt>
      <trkpt lat="48.89149" lon="2.38606">
        <ele>56.799999237061</ele>
        <time>2016-02-29T19:42:29.000Z</time>
      </trkpt>
      <trkpt lat="48.89156" lon="2.3863">
        <ele>56</ele>
        <time>2016-02-29T19:42:31.000Z</time>
      </trkpt>
      <trkpt lat="48.89162" lon="2.38649">
        <ele>55.799999237061</ele>
        <time>2016-02-29T19:42:34.000Z</time>
      </trkpt>
      <trkpt lat="48.89171" lon="2.38671">
        <ele>55.400001525879</ele>
        <time>2016-02-29T19:42:40.000Z</time>
      </trkpt>
      <trkpt lat="48.89172" lon="2.38672">
        <ele>55.200000762939</ele>
        <time>2016-02-29T19:42:41.000Z</time>
      </trkpt>
      <trkpt lat="48.89181" lon="2.38673">
        <ele>54.599998474121</ele>
        <time>2016-02-29T19:43:09.000Z</time>
      </trkpt>
      <trkpt lat="48.89187" lon="2.38678">
        <ele>54.200000762939</ele>
        <time>2016-02-29T19:43:16.000Z</time>
      </trkpt>
      <trkpt lat="48.89192" lon="2.38688">
        <ele>54</ele>
        <time>2016-02-29T19:43:26.000Z</time>
      </trkpt>
      <trkpt lat="48.89205" lon="2.3871">
        <ele>54.200000762939</ele>
        <time>2016-02-29T19:43:41.000Z</time>
      </trkpt>
      <trkpt lat="48.8921" lon="2.38736">
        <ele>54.200000762939</ele>
        <time>2016-02-29T19:43:48.000Z</time>
      </trkpt>
      <trkpt lat="48.89217" lon="2.38749">
        <ele>54.400001525879</ele>
        <time>2016-02-29T19:43:52.000Z</time>
      </trkpt>
      <trkpt lat="48.89231" lon="2.38773">
        <ele>53.799999237061</ele>
        <time>2016-02-29T19:43:57.000Z</time>
      </trkpt>
      <trkpt lat="48.89239" lon="2.38791">
        <ele>53.599998474121</ele>
        <time>2016-02-29T19:44:00.000Z</time>
      </trkpt>
      <trkpt lat="48.89246" lon="2.38811">
        <ele>53.200000762939</ele>
        <time>2016-02-29T19:44:05.000Z</time>
      </trkpt>
      <trkpt lat="48.89245" lon="2.38821">
        <ele>53</ele>
        <time>2016-02-29T19:44:11.000Z</time>
      </trkpt>
      <trkpt lat="48.89245" lon="2.38824">
        <ele>52.799999237061</ele>
        <time>2016-02-29T19:44:13.000Z</time>
      </trkpt>
      <trkpt lat="48.89258" lon="2.3883">
        <ele>52.799999237061</ele>
        <time>2016-02-29T19:44:21.000Z</time>
      </trkpt>
      <trkpt lat="48.89261" lon="2.38834">
        <ele>52.799999237061</ele>
        <time>2016-02-29T19:44:26.000Z</time>
      </trkpt>
      <trkpt lat="48.89276" lon="2.38856">
        <ele>52.799999237061</ele>
        <time>2016-02-29T19:44:33.000Z</time>
      </trkpt>
      <trkpt lat="48.89289" lon="2.3888">
        <ele>52.799999237061</ele>
        <time>2016-02-29T19:44:39.000Z</time>
      </trkpt>
      <trkpt lat="48.89303" lon="2.38901">
        <ele>52.799999237061</ele>
        <time>2016-02-29T19:44:45.000Z</time>
      </trkpt>
      <trkpt lat="48.89315" lon="2.38924">
        <ele>53</ele>
        <time>2016-02-29T19:44:50.000Z</time>
      </trkpt>
      <trkpt lat="48.89328" lon="2.38949">
        <ele>53.400001525879</ele>
        <time>2016-02-29T19:44:55.000Z</time>
      </trkpt>
      <trkpt lat="48.89339" lon="2.38971">
        <ele>53.599998474121</ele>
        <time>2016-02-29T19:44:59.000Z</time>
      </trkpt>
      <trkpt lat="48.8935" lon="2.38994">
        <ele>53.799999237061</ele>
        <time>2016-02-29T19:45:03.000Z</time>
      </trkpt>
      <trkpt lat="48.89362" lon="2.3902">
        <ele>53.799999237061</ele>
        <time>2016-02-29T19:45:08.000Z</time>
      </trkpt>
      <trkpt lat="48.89376" lon="2.39048">
        <ele>53.599998474121</ele>
        <time>2016-02-29T19:45:13.000Z</time>
      </trkpt>
      <trkpt lat="48.89389" lon="2.39072">
        <ele>53.400001525879</ele>
        <time>2016-02-29T19:45:17.000Z</time>
      </trkpt>
      <trkpt lat="48.894" lon="2.39093">
        <ele>53.599998474121</ele>
        <time>2016-02-29T19:45:21.000Z</time>
      </trkpt>
      <trkpt lat="48.89403" lon="2.39099">
        <ele>53.799999237061</ele>
        <time>2016-02-29T19:45:22.000Z</time>
      </trkpt>
      <trkpt lat="48.89414" lon="2.39123">
        <ele>54.200000762939</ele>
        <time>2016-02-29T19:45:26.000Z</time>
      </trkpt>
      <trkpt lat="48.89426" lon="2.39149">
        <ele>54.599998474121</ele>
        <time>2016-02-29T19:45:31.000Z</time>
      </trkpt>
      <trkpt lat="48.89431" lon="2.39161">
        <ele>54.799999237061</ele>
        <time>2016-02-29T19:45:34.000Z</time>
      </trkpt>
      <trkpt lat="48.89436" lon="2.39185">
        <ele>54.200000762939</ele>
        <time>2016-02-29T19:45:49.000Z</time>
      </trkpt>
      <trkpt lat="48.89432" lon="2.39192">
        <ele>53.799999237061</ele>
        <time>2016-02-29T19:45:58.000Z</time>
      </trkpt>
      <trkpt lat="48.89437" lon="2.39196">
        <ele>53.799999237061</ele>
        <time>2016-02-29T19:46:08.000Z</time>
      </trkpt>
      <trkpt lat="48.89436" lon="2.392">
        <ele>53.599998474121</ele>
        <time>2016-02-29T19:46:38.000Z</time>
      </trkpt>
      <trkpt lat="48.89438" lon="2.39199">
        <ele>53.599998474121</ele>
        <time>2016-02-29T19:46:40.000Z</time>
      </trkpt>
      <trkpt lat="48.89451" lon="2.39178">
        <ele>54.599998474121</ele>
        <time>2016-02-29T19:46:53.000Z</time>
      </trkpt>
      <trkpt lat="48.89467" lon="2.39163">
        <ele>54.400001525879</ele>
        <time>2016-02-29T19:47:05.000Z</time>
      </trkpt>
      <trkpt lat="48.89476" lon="2.39155">
        <ele>54</ele>
        <time>2016-02-29T19:47:13.000Z</time>
      </trkpt>
      <trkpt lat="48.89485" lon="2.39149">
        <ele>53.799999237061</ele>
        <time>2016-02-29T19:47:20.000Z</time>
      </trkpt>
      <trkpt lat="48.89488" lon="2.39148">
        <ele>53.599998474121</ele>
        <time>2016-02-29T19:47:23.000Z</time>
      </trkpt>
      <trkpt lat="48.89491" lon="2.39146">
        <ele>53.599998474121</ele>
        <time>2016-02-29T19:47:27.000Z</time>
      </trkpt>
      <trkpt lat="48.89504" lon="2.39141">
        <ele>53.200000762939</ele>
        <time>2016-02-29T19:47:39.000Z</time>
      </trkpt>
      <trkpt lat="48.89512" lon="2.3914">
        <ele>52.799999237061</ele>
        <time>2016-02-29T19:47:48.000Z</time>
      </trkpt>
      <trkpt lat="48.89517" lon="2.39136">
        <ele>52.599998474121</ele>
        <time>2016-02-29T19:48:27.000Z</time>
      </trkpt>
      <trkpt lat="48.8951" lon="2.39143">
        <ele>53</ele>
        <time>2016-02-29T19:48:47.000Z</time>
      </trkpt>
      <trkpt lat="48.89521" lon="2.39155">
        <ele>52.799999237061</ele>
        <time>2016-02-29T19:49:18.000Z</time>
      </trkpt>
      <trkpt lat="48.89519" lon="2.39173">
        <ele>53</ele>
        <time>2016-02-29T19:49:27.000Z</time>
      </trkpt>
      <trkpt lat="48.89504" lon="2.39156">
        <ele>53.400001525879</ele>
        <time>2016-02-29T19:49:37.000Z</time>
      </trkpt>
      <trkpt lat="48.89499" lon="2.39156">
        <ele>53.400001525879</ele>
        <time>2016-02-29T19:49:40.000Z</time>
      </trkpt>
      <trkpt lat="48.8949" lon="2.39161">
        <ele>53.799999237061</ele>
        <time>2016-02-29T19:49:48.000Z</time>
      </trkpt>
      <trkpt lat="48.89486" lon="2.39165">
        <ele>53.799999237061</ele>
        <time>2016-02-29T19:49:53.000Z</time>
      </trkpt>
      <trkpt lat="48.89484" lon="2.39171">
        <ele>53.799999237061</ele>
        <time>2016-02-29T19:49:59.000Z</time>
      </trkpt>
      <trkpt lat="48.89493" lon="2.39195">
        <ele>53.400001525879</ele>
        <time>2016-02-29T19:50:07.000Z</time>
      </trkpt>
      <trkpt lat="48.89502" lon="2.3921">
        <ele>53</ele>
        <time>2016-02-29T19:50:14.000Z</time>
      </trkpt>
      <trkpt lat="48.89514" lon="2.39208">
        <ele>52.799999237061</ele>
        <time>2016-02-29T19:50:20.000Z</time>
      </trkpt>
      <trkpt lat="48.89525" lon="2.39232">
        <ele>52.200000762939</ele>
        <time>2016-02-29T19:50:26.000Z</time>
      </trkpt>
      <trkpt lat="48.89536" lon="2.3926">
        <ele>51.799999237061</ele>
        <time>2016-02-29T19:50:32.000Z</time>
      </trkpt>
      <trkpt lat="48.89548" lon="2.39284">
        <ele>51.200000762939</ele>
        <time>2016-02-29T19:50:37.000Z</time>
      </trkpt>
      <trkpt lat="48.8956" lon="2.39312">
        <ele>50.799999237061</ele>
        <time>2016-02-29T19:50:42.000Z</time>
      </trkpt>
      <trkpt lat="48.8957" lon="2.39338">
        <ele>50.599998474121</ele>
        <time>2016-02-29T19:50:47.000Z</time>
      </trkpt>
      <trkpt lat="48.89574" lon="2.39353">
        <ele>50.599998474121</ele>
        <time>2016-02-29T19:50:51.000Z</time>
      </trkpt>
      <trkpt lat="48.89567" lon="2.39361">
        <ele>50.799999237061</ele>
        <time>2016-02-29T19:50:55.000Z</time>
      </trkpt>
      <trkpt lat="48.8955" lon="2.39373">
        <ele>51</ele>
        <time>2016-02-29T19:51:02.000Z</time>
      </trkpt>
      <trkpt lat="48.8955" lon="2.39382">
        <ele>51</ele>
        <time>2016-02-29T19:51:05.000Z</time>
      </trkpt>
      <trkpt lat="48.89559" lon="2.39411">
        <ele>51</ele>
        <time>2016-02-29T19:51:11.000Z</time>
      </trkpt>
      <trkpt lat="48.89573" lon="2.39433">
        <ele>51.400001525879</ele>
        <time>2016-02-29T19:51:18.000Z</time>
      </trkpt>
      <trkpt lat="48.89586" lon="2.39458">
        <ele>52</ele>
        <time>2016-02-29T19:51:23.000Z</time>
      </trkpt>
      <trkpt lat="48.89592" lon="2.39485">
        <ele>52.799999237061</ele>
        <time>2016-02-29T19:51:28.000Z</time>
      </trkpt>
      <trkpt lat="48.89603" lon="2.39508">
        <ele>53</ele>
        <time>2016-02-29T19:51:34.000Z</time>
      </trkpt>
      <trkpt lat="48.89609" lon="2.3954">
        <ele>52.599998474121</ele>
        <time>2016-02-29T19:51:39.000Z</time>
      </trkpt>
      <trkpt lat="48.89613" lon="2.39571">
        <ele>52.200000762939</ele>
        <time>2016-02-29T19:51:44.000Z</time>
      </trkpt>
      <trkpt lat="48.8962" lon="2.39601">
        <ele>52</ele>
        <time>2016-02-29T19:51:49.000Z</time>
      </trkpt>
      <trkpt lat="48.89621" lon="2.3963">
        <ele>51.599998474121</ele>
        <time>2016-02-29T19:51:54.000Z</time>
      </trkpt>
      <trkpt lat="48.89623" lon="2.3966">
        <ele>51.200000762939</ele>
        <time>2016-02-29T19:52:00.000Z</time>
      </trkpt>
      <trkpt lat="48.8962" lon="2.3969">
        <ele>52.200000762939</ele>
        <time>2016-02-29T19:52:06.000Z</time>
      </trkpt>
      <trkpt lat="48.89623" lon="2.39721">
        <ele>52.599998474121</ele>
        <time>2016-02-29T19:52:11.000Z</time>
      </trkpt>
      <trkpt lat="48.89623" lon="2.39751">
        <ele>53</ele>
        <time>2016-02-29T19:52:16.000Z</time>
      </trkpt>
      <trkpt lat="48.89624" lon="2.39782">
        <ele>52.799999237061</ele>
        <time>2016-02-29T19:52:22.000Z</time>
      </trkpt>
      <trkpt lat="48.89621" lon="2.39811">
        <ele>53</ele>
        <time>2016-02-29T19:52:27.000Z</time>
      </trkpt>
      <trkpt lat="48.89618" lon="2.39818">
        <ele>53.200000762939</ele>
        <time>2016-02-29T19:52:29.000Z</time>
      </trkpt>
      <trkpt lat="48.89608" lon="2.39842">
        <ele>53.200000762939</ele>
        <time>2016-02-29T19:52:46.000Z</time>
      </trkpt>
      <trkpt lat="48.89613" lon="2.39842">
        <ele>53.200000762939</ele>
        <time>2016-02-29T19:52:52.000Z</time>
      </trkpt>
      <trkpt lat="48.89634" lon="2.39835">
        <ele>53.599998474121</ele>
        <time>2016-02-29T19:53:03.000Z</time>
      </trkpt>
      <trkpt lat="48.89633" lon="2.3983">
        <ele>53.599998474121</ele>
        <time>2016-02-29T19:53:07.000Z</time>
      </trkpt>
      <trkpt lat="48.89631" lon="2.3983">
        <ele>53.599998474121</ele>
        <time>2016-02-29T19:53:08.000Z</time>
      </trkpt>
      <trkpt lat="48.89617" lon="2.398">
        <ele>52.799999237061</ele>
        <time>2016-02-29T19:53:20.000Z</time>
      </trkpt>
      <trkpt lat="48.89617" lon="2.39771">
        <ele>52.599998474121</ele>
        <time>2016-02-29T19:53:26.000Z</time>
      </trkpt>
      <trkpt lat="48.89616" lon="2.39741">
        <ele>52.400001525879</ele>
        <time>2016-02-29T19:53:32.000Z</time>
      </trkpt>
      <trkpt lat="48.89615" lon="2.39711">
        <ele>52</ele>
        <time>2016-02-29T19:53:38.000Z</time>
      </trkpt>
      <trkpt lat="48.89621" lon="2.39681">
        <ele>52</ele>
        <time>2016-02-29T19:53:44.000Z</time>
      </trkpt>
      <trkpt lat="48.89636" lon="2.3966">
        <ele>51.400001525879</ele>
        <time>2016-02-29T19:53:51.000Z</time>
      </trkpt>
      <trkpt lat="48.89654" lon="2.39645">
        <ele>51.799999237061</ele>
        <time>2016-02-29T19:53:57.000Z</time>
      </trkpt>
      <trkpt lat="48.89669" lon="2.3963">
        <ele>52.400001525879</ele>
        <time>2016-02-29T19:54:03.000Z</time>
      </trkpt>
      <trkpt lat="48.89685" lon="2.39611">
        <ele>53.200000762939</ele>
        <time>2016-02-29T19:54:10.000Z</time>
      </trkpt>
      <trkpt lat="48.89698" lon="2.396">
        <ele>53.599998474121</ele>
        <time>2016-02-29T19:54:15.000Z</time>
      </trkpt>
      <trkpt lat="48.89708" lon="2.39593">
        <ele>53.599998474121</ele>
        <time>2016-02-29T19:54:20.000Z</time>
      </trkpt>
      <trkpt lat="48.89725" lon="2.39603">
        <ele>53.200000762939</ele>
        <time>2016-02-29T19:54:25.000Z</time>
      </trkpt>
      <trkpt lat="48.89733" lon="2.39602">
        <ele>53</ele>
        <time>2016-02-29T19:54:29.000Z</time>
      </trkpt>
      <trkpt lat="48.89743" lon="2.39606">
        <ele>52.799999237061</ele>
        <time>2016-02-29T19:54:38.000Z</time>
      </trkpt>
      <trkpt lat="48.8975" lon="2.39634">
        <ele>52.599998474121</ele>
        <time>2016-02-29T19:54:45.000Z</time>
      </trkpt>
      <trkpt lat="48.89754" lon="2.39664">
        <ele>52</ele>
        <time>2016-02-29T19:54:51.000Z</time>
      </trkpt>
      <trkpt lat="48.89758" lon="2.3969">
        <ele>52.599998474121</ele>
        <time>2016-02-29T19:54:55.000Z</time>
      </trkpt>
      <trkpt lat="48.89761" lon="2.39718">
        <ele>53.200000762939</ele>
        <time>2016-02-29T19:54:59.000Z</time>
      </trkpt>
      <trkpt lat="48.89764" lon="2.39745">
        <ele>54.200000762939</ele>
        <time>2016-02-29T19:55:03.000Z</time>
      </trkpt>
      <trkpt lat="48.89767" lon="2.39779">
        <ele>55.400001525879</ele>
        <time>2016-02-29T19:55:08.000Z</time>
      </trkpt>
      <trkpt lat="48.8977" lon="2.39812">
        <ele>56.400001525879</ele>
        <time>2016-02-29T19:55:13.000Z</time>
      </trkpt>
      <trkpt lat="48.89774" lon="2.39839">
        <ele>57</ele>
        <time>2016-02-29T19:55:17.000Z</time>
      </trkpt>
      <trkpt lat="48.89775" lon="2.39868">
        <ele>56.400001525879</ele>
        <time>2016-02-29T19:55:22.000Z</time>
      </trkpt>
      <trkpt lat="48.89773" lon="2.39894">
        <ele>56.200000762939</ele>
        <time>2016-02-29T19:55:31.000Z</time>
      </trkpt>
      <trkpt lat="48.89775" lon="2.39893">
        <ele>56.200000762939</ele>
        <time>2016-02-29T19:55:38.000Z</time>
      </trkpt>
      <trkpt lat="48.8977" lon="2.39911">
        <ele>56</ele>
        <time>2016-02-29T19:55:57.000Z</time>
      </trkpt>
      <trkpt lat="48.89754" lon="2.3993">
        <ele>55.400001525879</ele>
        <time>2016-02-29T19:56:03.000Z</time>
      </trkpt>
      <trkpt lat="48.8974" lon="2.39946">
        <ele>54.799999237061</ele>
        <time>2016-02-29T19:56:09.000Z</time>
      </trkpt>
      <trkpt lat="48.89724" lon="2.39967">
        <ele>54.799999237061</ele>
        <time>2016-02-29T19:56:14.000Z</time>
      </trkpt>
      <trkpt lat="48.8971" lon="2.3999">
        <ele>55.400001525879</ele>
        <time>2016-02-29T19:56:19.000Z</time>
      </trkpt>
      <trkpt lat="48.89695" lon="2.40006">
        <ele>56</ele>
        <time>2016-02-29T19:56:23.000Z</time>
      </trkpt>
      <trkpt lat="48.89678" lon="2.40028">
        <ele>56.400001525879</ele>
        <time>2016-02-29T19:56:28.000Z</time>
      </trkpt>
      <trkpt lat="48.89663" lon="2.40052">
        <ele>57</ele>
        <time>2016-02-29T19:56:33.000Z</time>
      </trkpt>
      <trkpt lat="48.89655" lon="2.40079">
        <ele>56.200000762939</ele>
        <time>2016-02-29T19:56:39.000Z</time>
      </trkpt>
      <trkpt lat="48.89641" lon="2.40099">
        <ele>55.599998474121</ele>
        <time>2016-02-29T19:56:54.000Z</time>
      </trkpt>
      <trkpt lat="48.8965" lon="2.40126">
        <ele>55.599998474121</ele>
        <time>2016-02-29T19:57:01.000Z</time>
      </trkpt>
      <trkpt lat="48.89655" lon="2.40156">
        <ele>55.799999237061</ele>
        <time>2016-02-29T19:57:05.000Z</time>
      </trkpt>
      <trkpt lat="48.89661" lon="2.40185">
        <ele>55.599998474121</ele>
        <time>2016-02-29T19:57:09.000Z</time>
      </trkpt>
      <trkpt lat="48.89666" lon="2.40215">
        <ele>54.799999237061</ele>
        <time>2016-02-29T19:57:13.000Z</time>
      </trkpt>
      <trkpt lat="48.89672" lon="2.40247">
        <ele>55</ele>
        <time>2016-02-29T19:57:17.000Z</time>
      </trkpt>
      <trkpt lat="48.89677" lon="2.40276">
        <ele>54.400001525879</ele>
        <time>2016-02-29T19:57:21.000Z</time>
      </trkpt>
      <trkpt lat="48.89683" lon="2.40308">
        <ele>53.599998474121</ele>
        <time>2016-02-29T19:57:25.000Z</time>
      </trkpt>
      <trkpt lat="48.89691" lon="2.40341">
        <ele>53.200000762939</ele>
        <time>2016-02-29T19:57:29.000Z</time>
      </trkpt>
      <trkpt lat="48.89699" lon="2.40366">
        <ele>53.200000762939</ele>
        <time>2016-02-29T19:57:32.000Z</time>
      </trkpt>
      <trkpt lat="48.8971" lon="2.40389">
        <ele>53</ele>
        <time>2016-02-29T19:57:35.000Z</time>
      </trkpt>
      <trkpt lat="48.89723" lon="2.40419">
        <ele>52.799999237061</ele>
        <time>2016-02-29T19:57:39.000Z</time>
      </trkpt>
      <trkpt lat="48.89735" lon="2.4044">
        <ele>52.599998474121</ele>
        <time>2016-02-29T19:57:42.000Z</time>
      </trkpt>
      <trkpt lat="48.89744" lon="2.40465">
        <ele>52.799999237061</ele>
        <time>2016-02-29T19:57:45.000Z</time>
      </trkpt>
      <trkpt lat="48.89758" lon="2.40488">
        <ele>52.599998474121</ele>
        <time>2016-02-29T19:57:48.000Z</time>
      </trkpt>
      <trkpt lat="48.8977" lon="2.40513">
        <ele>52.400001525879</ele>
        <time>2016-02-29T19:57:51.000Z</time>
      </trkpt>
      <trkpt lat="48.89782" lon="2.40537">
        <ele>52</ele>
        <time>2016-02-29T19:57:54.000Z</time>
      </trkpt>
      <trkpt lat="48.89791" lon="2.40562">
        <ele>51.799999237061</ele>
        <time>2016-02-29T19:57:57.000Z</time>
      </trkpt>
      <trkpt lat="48.89803" lon="2.40594">
        <ele>51</ele>
        <time>2016-02-29T19:58:01.000Z</time>
      </trkpt>
      <trkpt lat="48.89814" lon="2.40625">
        <ele>50</ele>
        <time>2016-02-29T19:58:05.000Z</time>
      </trkpt>
      <trkpt lat="48.89824" lon="2.40656">
        <ele>49</ele>
        <time>2016-02-29T19:58:09.000Z</time>
      </trkpt>
      <trkpt lat="48.89833" lon="2.40682">
        <ele>48.599998474121</ele>
        <time>2016-02-29T19:58:13.000Z</time>
      </trkpt>
      <trkpt lat="48.89836" lon="2.40698">
        <ele>48.599998474121</ele>
        <time>2016-02-29T19:58:16.000Z</time>
      </trkpt>
      <trkpt lat="48.89832" lon="2.40729">
        <ele>49</ele>
        <time>2016-02-29T19:58:21.000Z</time>
      </trkpt>
      <trkpt lat="48.8983" lon="2.40762">
        <ele>48.200000762939</ele>
        <time>2016-02-29T19:58:26.000Z</time>
      </trkpt>
      <trkpt lat="48.8983" lon="2.40795">
        <ele>47.799999237061</ele>
        <time>2016-02-29T19:58:31.000Z</time>
      </trkpt>
      <trkpt lat="48.89828" lon="2.40822">
        <ele>47.599998474121</ele>
        <time>2016-02-29T19:58:35.000Z</time>
      </trkpt>
      <trkpt lat="48.89823" lon="2.4085">
        <ele>47.799999237061</ele>
        <time>2016-02-29T19:58:39.000Z</time>
      </trkpt>
      <trkpt lat="48.89814" lon="2.40875">
        <ele>48</ele>
        <time>2016-02-29T19:58:42.000Z</time>
      </trkpt>
      <trkpt lat="48.8981" lon="2.40892">
        <ele>48.400001525879</ele>
        <time>2016-02-29T19:58:44.000Z</time>
      </trkpt>
      <trkpt lat="48.89804" lon="2.40926">
        <ele>48.799999237061</ele>
        <time>2016-02-29T19:58:48.000Z</time>
      </trkpt>
      <trkpt lat="48.89793" lon="2.40953">
        <ele>49.200000762939</ele>
        <time>2016-02-29T19:58:51.000Z</time>
      </trkpt>
      <trkpt lat="48.89785" lon="2.40979">
        <ele>49.599998474121</ele>
        <time>2016-02-29T19:58:54.000Z</time>
      </trkpt>
      <trkpt lat="48.89779" lon="2.41006">
        <ele>50</ele>
        <time>2016-02-29T19:58:57.000Z</time>
      </trkpt>
      <trkpt lat="48.89774" lon="2.41037">
        <ele>50</ele>
        <time>2016-02-29T19:59:01.000Z</time>
      </trkpt>
      <trkpt lat="48.89768" lon="2.41064">
        <ele>50.200000762939</ele>
        <time>2016-02-29T19:59:05.000Z</time>
      </trkpt>
      <trkpt lat="48.8976" lon="2.41093">
        <ele>50.400001525879</ele>
        <time>2016-02-29T19:59:10.000Z</time>
      </trkpt>
      <trkpt lat="48.89755" lon="2.41124">
        <ele>50.599998474121</ele>
        <time>2016-02-29T19:59:15.000Z</time>
      </trkpt>
      <trkpt lat="48.89748" lon="2.41156">
        <ele>50.599998474121</ele>
        <time>2016-02-29T19:59:20.000Z</time>
      </trkpt>
      <trkpt lat="48.89745" lon="2.41163">
        <ele>50.400001525879</ele>
        <time>2016-02-29T19:59:21.000Z</time>
      </trkpt>
      <trkpt lat="48.89739" lon="2.41191">
        <ele>49.799999237061</ele>
        <time>2016-02-29T19:59:25.000Z</time>
      </trkpt>
      <trkpt lat="48.89734" lon="2.41225">
        <ele>49.200000762939</ele>
        <time>2016-02-29T19:59:30.000Z</time>
      </trkpt>
      <trkpt lat="48.89728" lon="2.41255">
        <ele>49</ele>
        <time>2016-02-29T19:59:34.000Z</time>
      </trkpt>
      <trkpt lat="48.89721" lon="2.41281">
        <ele>49.200000762939</ele>
        <time>2016-02-29T19:59:38.000Z</time>
      </trkpt>
      <trkpt lat="48.8971" lon="2.41305">
        <ele>49.599998474121</ele>
        <time>2016-02-29T19:59:42.000Z</time>
      </trkpt>
      <trkpt lat="48.89705" lon="2.41323">
        <ele>49.599998474121</ele>
        <time>2016-02-29T19:59:45.000Z</time>
      </trkpt>
      <trkpt lat="48.89697" lon="2.41357">
        <ele>49.799999237061</ele>
        <time>2016-02-29T19:59:50.000Z</time>
      </trkpt>
      <trkpt lat="48.89689" lon="2.41385">
        <ele>50</ele>
        <time>2016-02-29T19:59:54.000Z</time>
      </trkpt>
      <trkpt lat="48.89681" lon="2.41415">
        <ele>50.200000762939</ele>
        <time>2016-02-29T19:59:58.000Z</time>
      </trkpt>
      <trkpt lat="48.89673" lon="2.41441">
        <ele>49.799999237061</ele>
        <time>2016-02-29T20:00:01.000Z</time>
      </trkpt>
      <trkpt lat="48.89663" lon="2.41467">
        <ele>49.799999237061</ele>
        <time>2016-02-29T20:00:04.000Z</time>
      </trkpt>
      <trkpt lat="48.89654" lon="2.415">
        <ele>50.799999237061</ele>
        <time>2016-02-29T20:00:08.000Z</time>
      </trkpt>
      <trkpt lat="48.89649" lon="2.41523">
        <ele>50.599998474121</ele>
        <time>2016-02-29T20:00:11.000Z</time>
      </trkpt>
      <trkpt lat="48.89647" lon="2.41539">
        <ele>50.599998474121</ele>
        <time>2016-02-29T20:00:13.000Z</time>
      </trkpt>
      <trkpt lat="48.89649" lon="2.41573">
        <ele>51.200000762939</ele>
        <time>2016-02-29T20:00:17.000Z</time>
      </trkpt>
      <trkpt lat="48.89651" lon="2.41601">
        <ele>51.599998474121</ele>
        <time>2016-02-29T20:00:20.000Z</time>
      </trkpt>
      <trkpt lat="48.8965" lon="2.4163">
        <ele>52</ele>
        <time>2016-02-29T20:00:23.000Z</time>
      </trkpt>
      <trkpt lat="48.89656" lon="2.41662">
        <ele>51.799999237061</ele>
        <time>2016-02-29T20:00:26.000Z</time>
      </trkpt>
      <trkpt lat="48.89656" lon="2.41694">
        <ele>51.799999237061</ele>
        <time>2016-02-29T20:00:29.000Z</time>
      </trkpt>
      <trkpt lat="48.89657" lon="2.41726">
        <ele>51.799999237061</ele>
        <time>2016-02-29T20:00:32.000Z</time>
      </trkpt>
      <trkpt lat="48.89656" lon="2.41759">
        <ele>51.799999237061</ele>
        <time>2016-02-29T20:00:35.000Z</time>
      </trkpt>
      <trkpt lat="48.89657" lon="2.41792">
        <ele>51.200000762939</ele>
        <time>2016-02-29T20:00:38.000Z</time>
      </trkpt>
      <trkpt lat="48.89656" lon="2.41824">
        <ele>50.599998474121</ele>
        <time>2016-02-29T20:00:41.000Z</time>
      </trkpt>
      <trkpt lat="48.89657" lon="2.41855">
        <ele>50.400001525879</ele>
        <time>2016-02-29T20:00:44.000Z</time>
      </trkpt>
      <trkpt lat="48.89656" lon="2.41887">
        <ele>50.400001525879</ele>
        <time>2016-02-29T20:00:47.000Z</time>
      </trkpt>
      <trkpt lat="48.8966" lon="2.41917">
        <ele>49.400001525879</ele>
        <time>2016-02-29T20:00:50.000Z</time>
      </trkpt>
      <trkpt lat="48.89661" lon="2.41945">
        <ele>49.400001525879</ele>
        <time>2016-02-29T20:00:54.000Z</time>
      </trkpt>
      <trkpt lat="48.8966" lon="2.4195">
        <ele>49.400001525879</ele>
        <time>2016-02-29T20:00:55.000Z</time>
      </trkpt>
      <trkpt lat="48.89655" lon="2.4198">
        <ele>49.599998474121</ele>
        <time>2016-02-29T20:01:00.000Z</time>
      </trkpt>
      <trkpt lat="48.89655" lon="2.41992">
        <ele>49.599998474121</ele>
        <time>2016-02-29T20:01:02.000Z</time>
      </trkpt>
      <trkpt lat="48.89654" lon="2.41997">
        <ele>49.799999237061</ele>
        <time>2016-02-29T20:01:03.000Z</time>
      </trkpt>
      <trkpt lat="48.89653" lon="2.42025">
        <ele>49.799999237061</ele>
        <time>2016-02-29T20:01:07.000Z</time>
      </trkpt>
      <trkpt lat="48.89653" lon="2.42053">
        <ele>49.799999237061</ele>
        <time>2016-02-29T20:01:11.000Z</time>
      </trkpt>
      <trkpt lat="48.89655" lon="2.42082">
        <ele>49.599998474121</ele>
        <time>2016-02-29T20:01:15.000Z</time>
      </trkpt>
      <trkpt lat="48.89657" lon="2.4209">
        <ele>49.599998474121</ele>
        <time>2016-02-29T20:01:16.000Z</time>
      </trkpt>
      <trkpt lat="48.89658" lon="2.42118">
        <ele>49.599998474121</ele>
        <time>2016-02-29T20:01:20.000Z</time>
      </trkpt>
      <trkpt lat="48.89659" lon="2.42148">
        <ele>49.400001525879</ele>
        <time>2016-02-29T20:01:25.000Z</time>
      </trkpt>
      <trkpt lat="48.89659" lon="2.42153">
        <ele>49.400001525879</ele>
        <time>2016-02-29T20:01:26.000Z</time>
      </trkpt>
      <trkpt lat="48.89659" lon="2.42157">
        <ele>49.400001525879</ele>
        <time>2016-02-29T20:01:27.000Z</time>
      </trkpt>
      <trkpt lat="48.8966" lon="2.42167">
        <ele>49.400001525879</ele>
        <time>2016-02-29T20:01:30.000Z</time>
      </trkpt>
      <trkpt lat="48.8966" lon="2.42175">
        <ele>49.400001525879</ele>
        <time>2016-02-29T20:01:33.000Z</time>
      </trkpt>
      <trkpt lat="48.89663" lon="2.42181">
        <ele>49.400001525879</ele>
        <time>2016-02-29T20:01:37.000Z</time>
      </trkpt>
      <trkpt lat="48.89663" lon="2.42176">
        <ele>49.200000762939</ele>
        <time>2016-02-29T20:01:42.000Z</time>
      </trkpt>
      <trkpt lat="48.89664" lon="2.42175">
        <ele>49.200000762939</ele>
        <time>2016-02-29T20:01:43.000Z</time>
      </trkpt>
      <trkpt lat="48.89666" lon="2.42162">
        <ele>49.200000762939</ele>
        <time>2016-02-29T20:01:50.000Z</time>
      </trkpt>
      <trkpt lat="48.89666" lon="2.42156">
        <ele>49.200000762939</ele>
        <time>2016-02-29T20:01:54.000Z</time>
      </trkpt>
      <trkpt lat="48.89667" lon="2.42154">
        <ele>49</ele>
        <time>2016-02-29T20:01:56.000Z</time>
      </trkpt>
      <trkpt lat="48.89669" lon="2.42175">
        <ele>49</ele>
        <time>2016-02-29T20:02:44.000Z</time>
      </trkpt>
      <trkpt lat="48.89669" lon="2.42187">
        <ele>49</ele>
        <time>2016-02-29T20:02:57.000Z</time>
      </trkpt>
      <trkpt lat="48.89668" lon="2.42216">
        <ele>49</ele>
        <time>2016-02-29T20:03:15.000Z</time>
      </trkpt>
      <trkpt lat="48.89668" lon="2.42249">
        <ele>49</ele>
        <time>2016-02-29T20:03:20.000Z</time>
      </trkpt>
      <trkpt lat="48.89668" lon="2.42281">
        <ele>49.799999237061</ele>
        <time>2016-02-29T20:03:24.000Z</time>
      </trkpt>
      <trkpt lat="48.89667" lon="2.42313">
        <ele>50.599998474121</ele>
        <time>2016-02-29T20:03:28.000Z</time>
      </trkpt>
      <trkpt lat="48.89668" lon="2.42346">
        <ele>50.400001525879</ele>
        <time>2016-02-29T20:03:32.000Z</time>
      </trkpt>
      <trkpt lat="48.8967" lon="2.42377">
        <ele>50</ele>
        <time>2016-02-29T20:03:36.000Z</time>
      </trkpt>
      <trkpt lat="48.89668" lon="2.42405">
        <ele>49.799999237061</ele>
        <time>2016-02-29T20:03:40.000Z</time>
      </trkpt>
      <trkpt lat="48.89665" lon="2.42433">
        <ele>50.400001525879</ele>
        <time>2016-02-29T20:03:44.000Z</time>
      </trkpt>
      <trkpt lat="48.89664" lon="2.42461">
        <ele>51</ele>
        <time>2016-02-29T20:03:48.000Z</time>
      </trkpt>
      <trkpt lat="48.89665" lon="2.42491">
        <ele>51.400001525879</ele>
        <time>2016-02-29T20:03:52.000Z</time>
      </trkpt>
      <trkpt lat="48.89665" lon="2.42497">
        <ele>51.200000762939</ele>
        <time>2016-02-29T20:03:53.000Z</time>
      </trkpt>
      <trkpt lat="48.89666" lon="2.42523">
        <ele>51.599998474121</ele>
        <time>2016-02-29T20:04:00.000Z</time>
      </trkpt>
      <trkpt lat="48.89664" lon="2.42527">
        <ele>51.599998474121</ele>
        <time>2016-02-29T20:04:03.000Z</time>
      </trkpt>
      <trkpt lat="48.89663" lon="2.42529">
        <ele>51.599998474121</ele>
        <time>2016-02-29T20:04:05.000Z</time>
      </trkpt>
      <trkpt lat="48.89665" lon="2.42519">
        <ele>51.599998474121</ele>
        <time>2016-02-29T20:04:16.000Z</time>
      </trkpt>
      <trkpt lat="48.89665" lon="2.42494">
        <ele>51.200000762939</ele>
        <time>2016-02-29T20:04:25.000Z</time>
      </trkpt>
      <trkpt lat="48.89662" lon="2.42464">
        <ele>51.200000762939</ele>
        <time>2016-02-29T20:04:33.000Z</time>
      </trkpt>
      <trkpt lat="48.89658" lon="2.42436">
        <ele>50.599998474121</ele>
        <time>2016-02-29T20:04:41.000Z</time>
      </trkpt>
      <trkpt lat="48.89654" lon="2.42408">
        <ele>50.400001525879</ele>
        <time>2016-02-29T20:04:51.000Z</time>
      </trkpt>
      <trkpt lat="48.89653" lon="2.42407">
        <ele>50.400001525879</ele>
        <time>2016-02-29T20:04:53.000Z</time>
      </trkpt>
      <trkpt lat="48.89656" lon="2.42408">
        <ele>50.200000762939</ele>
        <time>2016-02-29T20:05:02.000Z</time>
      </trkpt>
      <trkpt lat="48.89644" lon="2.42405">
        <ele>50.599998474121</ele>
        <time>2016-02-29T20:05:41.000Z</time>
      </trkpt>
      <trkpt lat="48.89624" lon="2.42406">
        <ele>51.400001525879</ele>
        <time>2016-02-29T20:05:48.000Z</time>
      </trkpt>
      <trkpt lat="48.89605" lon="2.42412">
        <ele>52</ele>
        <time>2016-02-29T20:05:55.000Z</time>
      </trkpt>
      <trkpt lat="48.89603" lon="2.42437">
        <ele>52</ele>
        <time>2016-02-29T20:06:06.000Z</time>
      </trkpt>
      <trkpt lat="48.8961" lon="2.42459">
        <ele>52</ele>
        <time>2016-02-29T20:06:21.000Z</time>
      </trkpt>
      <trkpt lat="48.89618" lon="2.42489">
        <ele>51.799999237061</ele>
        <time>2016-02-29T20:06:27.000Z</time>
      </trkpt>
      <trkpt lat="48.89621" lon="2.42517">
        <ele>52</ele>
        <time>2016-02-29T20:06:32.000Z</time>
      </trkpt>
      <trkpt lat="48.89624" lon="2.42547">
        <ele>52.400001525879</ele>
        <time>2016-02-29T20:06:39.000Z</time>
      </trkpt>
      <trkpt lat="48.89621" lon="2.42566">
        <ele>52.599998474121</ele>
        <time>2016-02-29T20:06:48.000Z</time>
      </trkpt>
      <trkpt lat="48.89623" lon="2.4257">
        <ele>52.599998474121</ele>
        <time>2016-02-29T20:07:44.000Z</time>
      </trkpt>
      <trkpt lat="48.89608" lon="2.42575">
        <ele>52.799999237061</ele>
        <time>2016-02-29T20:08:08.000Z</time>
      </trkpt>
      <trkpt lat="48.89589" lon="2.42582">
        <ele>53</ele>
        <time>2016-02-29T20:08:14.000Z</time>
      </trkpt>
      <trkpt lat="48.89578" lon="2.42582">
        <ele>53</ele>
        <time>2016-02-29T20:08:17.000Z</time>
      </trkpt>
      <trkpt lat="48.89559" lon="2.42577">
        <ele>53</ele>
        <time>2016-02-29T20:08:27.000Z</time>
      </trkpt>
      <trkpt lat="48.89556" lon="2.42577">
        <ele>53</ele>
        <time>2016-02-29T20:08:30.000Z</time>
      </trkpt>
      <trkpt lat="48.89555" lon="2.42577">
        <ele>53</ele>
        <time>2016-02-29T20:08:31.000Z</time>
      </trkpt>
      <trkpt lat="48.89542" lon="2.42574">
        <ele>53</ele>
        <time>2016-02-29T20:08:52.000Z</time>
      </trkpt>
      <trkpt lat="48.89524" lon="2.42565">
        <ele>53.200000762939</ele>
        <time>2016-02-29T20:08:57.000Z</time>
      </trkpt>
      <trkpt lat="48.89504" lon="2.42553">
        <ele>54</ele>
        <time>2016-02-29T20:09:02.000Z</time>
      </trkpt>
      <trkpt lat="48.89486" lon="2.4254">
        <ele>54.799999237061</ele>
        <time>2016-02-29T20:09:07.000Z</time>
      </trkpt>
      <trkpt lat="48.8947" lon="2.42523">
        <ele>55.599998474121</ele>
        <time>2016-02-29T20:09:12.000Z</time>
      </trkpt>
      <trkpt lat="48.89452" lon="2.42503">
        <ele>56.599998474121</ele>
        <time>2016-02-29T20:09:18.000Z</time>
      </trkpt>
      <trkpt lat="48.89433" lon="2.42493">
        <ele>57.400001525879</ele>
        <time>2016-02-29T20:09:22.000Z</time>
      </trkpt>
      <trkpt lat="48.89413" lon="2.42484">
        <ele>58.400001525879</ele>
        <time>2016-02-29T20:09:26.000Z</time>
      </trkpt>
      <trkpt lat="48.89393" lon="2.42476">
        <ele>59.599998474121</ele>
        <time>2016-02-29T20:09:30.000Z</time>
      </trkpt>
      <trkpt lat="48.89372" lon="2.4247">
        <ele>60.599998474121</ele>
        <time>2016-02-29T20:09:34.000Z</time>
      </trkpt>
      <trkpt lat="48.89354" lon="2.42452">
        <ele>61.799999237061</ele>
        <time>2016-02-29T20:09:38.000Z</time>
      </trkpt>
      <trkpt lat="48.89336" lon="2.42438">
        <ele>62.799999237061</ele>
        <time>2016-02-29T20:09:42.000Z</time>
      </trkpt>
      <trkpt lat="48.8932" lon="2.42422">
        <ele>63.599998474121</ele>
        <time>2016-02-29T20:09:46.000Z</time>
      </trkpt>
      <trkpt lat="48.89301" lon="2.42404">
        <ele>64.599998474121</ele>
        <time>2016-02-29T20:09:50.000Z</time>
      </trkpt>
      <trkpt lat="48.89284" lon="2.42391">
        <ele>65.400001525879</ele>
        <time>2016-02-29T20:09:53.000Z</time>
      </trkpt>
      <trkpt lat="48.89265" lon="2.42379">
        <ele>66.599998474121</ele>
        <time>2016-02-29T20:09:56.000Z</time>
      </trkpt>
      <trkpt lat="48.89261" lon="2.42373">
        <ele>66.800003051758</ele>
        <time>2016-02-29T20:09:57.000Z</time>
      </trkpt>
      <trkpt lat="48.89241" lon="2.4236">
        <ele>68.400001525879</ele>
        <time>2016-02-29T20:10:01.000Z</time>
      </trkpt>
      <trkpt lat="48.89222" lon="2.42349">
        <ele>69.599998474121</ele>
        <time>2016-02-29T20:10:04.000Z</time>
      </trkpt>
      <trkpt lat="48.89209" lon="2.42341">
        <ele>70.599998474121</ele>
        <time>2016-02-29T20:10:06.000Z</time>
      </trkpt>
      <trkpt lat="48.89191" lon="2.4233">
        <ele>71.800003051758</ele>
        <time>2016-02-29T20:10:09.000Z</time>
      </trkpt>
      <trkpt lat="48.89187" lon="2.42325">
        <ele>71.800003051758</ele>
        <time>2016-02-29T20:10:10.000Z</time>
      </trkpt>
      <trkpt lat="48.89171" lon="2.42311">
        <ele>72.400001525879</ele>
        <time>2016-02-29T20:10:14.000Z</time>
      </trkpt>
      <trkpt lat="48.89161" lon="2.42303">
        <ele>72.800003051758</ele>
        <time>2016-02-29T20:10:17.000Z</time>
      </trkpt>
      <trkpt lat="48.89155" lon="2.42293">
        <ele>72.599998474121</ele>
        <time>2016-02-29T20:10:21.000Z</time>
      </trkpt>
      <trkpt lat="48.89154" lon="2.42288">
        <ele>72.199996948242</ele>
        <time>2016-02-29T20:10:24.000Z</time>
      </trkpt>
      <trkpt lat="48.89157" lon="2.42289">
        <ele>72</ele>
        <time>2016-02-29T20:10:30.000Z</time>
      </trkpt>
      <trkpt lat="48.89161" lon="2.4229">
        <ele>71.800003051758</ele>
        <time>2016-02-29T20:10:36.000Z</time>
      </trkpt>
      <trkpt lat="48.89164" lon="2.42292">
        <ele>71.599998474121</ele>
        <time>2016-02-29T20:10:53.000Z</time>
      </trkpt>
      <trkpt lat="48.89159" lon="2.42291">
        <ele>72</ele>
        <time>2016-02-29T20:11:04.000Z</time>
      </trkpt>
      <trkpt lat="48.89158" lon="2.42291">
        <ele>72.199996948242</ele>
        <time>2016-02-29T20:11:07.000Z</time>
      </trkpt>
      <trkpt lat="48.89154" lon="2.42287">
        <ele>72.199996948242</ele>
        <time>2016-02-29T20:11:22.000Z</time>
      </trkpt>
      <trkpt lat="48.89167" lon="2.42292">
        <ele>71.400001525879</ele>
        <time>2016-02-29T20:11:39.000Z</time>
      </trkpt>
      <trkpt lat="48.89162" lon="2.42286">
        <ele>71.400001525879</ele>
        <time>2016-02-29T20:11:59.000Z</time>
      </trkpt>
      <trkpt lat="48.89152" lon="2.4227">
        <ele>71.199996948242</ele>
        <time>2016-02-29T20:12:23.000Z</time>
      </trkpt>
      <trkpt lat="48.89135" lon="2.42255">
        <ele>71.800003051758</ele>
        <time>2016-02-29T20:12:29.000Z</time>
      </trkpt>
      <trkpt lat="48.89117" lon="2.42239">
        <ele>72.800003051758</ele>
        <time>2016-02-29T20:12:34.000Z</time>
      </trkpt>
      <trkpt lat="48.89102" lon="2.42222">
        <ele>73.599998474121</ele>
        <time>2016-02-29T20:12:39.000Z</time>
      </trkpt>
      <trkpt lat="48.89088" lon="2.422">
        <ele>73.800003051758</ele>
        <time>2016-02-29T20:12:44.000Z</time>
      </trkpt>
      <trkpt lat="48.89072" lon="2.42176">
        <ele>74</ele>
        <time>2016-02-29T20:12:49.000Z</time>
      </trkpt>
      <trkpt lat="48.89057" lon="2.42153">
        <ele>74</ele>
        <time>2016-02-29T20:12:54.000Z</time>
      </trkpt>
      <trkpt lat="48.89043" lon="2.42135">
        <ele>74.400001525879</ele>
        <time>2016-02-29T20:12:59.000Z</time>
      </trkpt>
      <trkpt lat="48.89029" lon="2.42116">
        <ele>74.599998474121</ele>
        <time>2016-02-29T20:13:05.000Z</time>
      </trkpt>
      <trkpt lat="48.89015" lon="2.42094">
        <ele>74.800003051758</ele>
        <time>2016-02-29T20:13:11.000Z</time>
      </trkpt>
      <trkpt lat="48.88999" lon="2.42078">
        <ele>76</ele>
        <time>2016-02-29T20:13:16.000Z</time>
      </trkpt>
      <trkpt lat="48.88981" lon="2.42059">
        <ele>77.800003051758</ele>
        <time>2016-02-29T20:13:21.000Z</time>
      </trkpt>
      <trkpt lat="48.88966" lon="2.42039">
        <ele>79.599998474121</ele>
        <time>2016-02-29T20:13:26.000Z</time>
      </trkpt>
      <trkpt lat="48.8895" lon="2.42019">
        <ele>81.599998474121</ele>
        <time>2016-02-29T20:13:31.000Z</time>
      </trkpt>
      <trkpt lat="48.88941" lon="2.41995">
        <ele>82.599998474121</ele>
        <time>2016-02-29T20:13:36.000Z</time>
      </trkpt>
      <trkpt lat="48.88934" lon="2.41966">
        <ele>81.800003051758</ele>
        <time>2016-02-29T20:13:41.000Z</time>
      </trkpt>
      <trkpt lat="48.88933" lon="2.41938">
        <ele>80.599998474121</ele>
        <time>2016-02-29T20:13:45.000Z</time>
      </trkpt>
      <trkpt lat="48.88931" lon="2.41909">
        <ele>79</ele>
        <time>2016-02-29T20:13:49.000Z</time>
      </trkpt>
      <trkpt lat="48.88931" lon="2.41894">
        <ele>77.800003051758</ele>
        <time>2016-02-29T20:13:51.000Z</time>
      </trkpt>
      <trkpt lat="48.8893" lon="2.41871">
        <ele>76.199996948242</ele>
        <time>2016-02-29T20:13:54.000Z</time>
      </trkpt>
      <trkpt lat="48.88927" lon="2.41839">
        <ele>74</ele>
        <time>2016-02-29T20:13:58.000Z</time>
      </trkpt>
      <trkpt lat="48.88926" lon="2.41806">
        <ele>73.199996948242</ele>
        <time>2016-02-29T20:14:02.000Z</time>
      </trkpt>
      <trkpt lat="48.88924" lon="2.41775">
        <ele>73</ele>
        <time>2016-02-29T20:14:06.000Z</time>
      </trkpt>
      <trkpt lat="48.88923" lon="2.41747">
        <ele>72.599998474121</ele>
        <time>2016-02-29T20:14:10.000Z</time>
      </trkpt>
      <trkpt lat="48.88923" lon="2.41722">
        <ele>72.800003051758</ele>
        <time>2016-02-29T20:14:14.000Z</time>
      </trkpt>
      <trkpt lat="48.88923" lon="2.41708">
        <ele>73.199996948242</ele>
        <time>2016-02-29T20:14:17.000Z</time>
      </trkpt>
      <trkpt lat="48.88924" lon="2.41695">
        <ele>73.400001525879</ele>
        <time>2016-02-29T20:14:21.000Z</time>
      </trkpt>
      <trkpt lat="48.88913" lon="2.4168">
        <ele>74</ele>
        <time>2016-02-29T20:14:34.000Z</time>
      </trkpt>
      <trkpt lat="48.8891" lon="2.41681">
        <ele>74</ele>
        <time>2016-02-29T20:14:35.000Z</time>
      </trkpt>
      <trkpt lat="48.88891" lon="2.41685">
        <ele>74.199996948242</ele>
        <time>2016-02-29T20:14:44.000Z</time>
      </trkpt>
      <trkpt lat="48.8887" lon="2.41691">
        <ele>74.599998474121</ele>
        <time>2016-02-29T20:14:49.000Z</time>
      </trkpt>
      <trkpt lat="48.8886" lon="2.41696">
        <ele>74.800003051758</ele>
        <time>2016-02-29T20:14:51.000Z</time>
      </trkpt>
      <trkpt lat="48.8884" lon="2.41704">
        <ele>75.199996948242</ele>
        <time>2016-02-29T20:14:56.000Z</time>
      </trkpt>
      <trkpt lat="48.88818" lon="2.41712">
        <ele>75.400001525879</ele>
        <time>2016-02-29T20:15:02.000Z</time>
      </trkpt>
      <trkpt lat="48.88797" lon="2.4172">
        <ele>75.800003051758</ele>
        <time>2016-02-29T20:15:07.000Z</time>
      </trkpt>
      <trkpt lat="48.88778" lon="2.41733">
        <ele>76</ele>
        <time>2016-02-29T20:15:11.000Z</time>
      </trkpt>
      <trkpt lat="48.88758" lon="2.41747">
        <ele>76.800003051758</ele>
        <time>2016-02-29T20:15:15.000Z</time>
      </trkpt>
      <trkpt lat="48.88737" lon="2.41762">
        <ele>78.199996948242</ele>
        <time>2016-02-29T20:15:19.000Z</time>
      </trkpt>
      <trkpt lat="48.88718" lon="2.41775">
        <ele>79.599998474121</ele>
        <time>2016-02-29T20:15:23.000Z</time>
      </trkpt>
      <trkpt lat="48.88709" lon="2.4178">
        <ele>80</ele>
        <time>2016-02-29T20:15:25.000Z</time>
      </trkpt>
      <trkpt lat="48.88698" lon="2.41785">
        <ele>80.599998474121</ele>
        <time>2016-02-29T20:15:29.000Z</time>
      </trkpt>
      <trkpt lat="48.88689" lon="2.41787">
        <ele>81</ele>
        <time>2016-02-29T20:15:34.000Z</time>
      </trkpt>
      <trkpt lat="48.88683" lon="2.41783">
        <ele>81.199996948242</ele>
        <time>2016-02-29T20:15:39.000Z</time>
      </trkpt>
      <trkpt lat="48.88676" lon="2.4177">
        <ele>81.400001525879</ele>
        <time>2016-02-29T20:16:21.000Z</time>
      </trkpt>
      <trkpt lat="48.8866" lon="2.41758">
        <ele>82</ele>
        <time>2016-02-29T20:16:27.000Z</time>
      </trkpt>
      <trkpt lat="48.88647" lon="2.41736">
        <ele>82.199996948242</ele>
        <time>2016-02-29T20:16:33.000Z</time>
      </trkpt>
      <trkpt lat="48.88639" lon="2.41711">
        <ele>81.599998474121</ele>
        <time>2016-02-29T20:16:37.000Z</time>
      </trkpt>
      <trkpt lat="48.88632" lon="2.4168">
        <ele>81.199996948242</ele>
        <time>2016-02-29T20:16:41.000Z</time>
      </trkpt>
      <trkpt lat="48.88626" lon="2.41646">
        <ele>80.800003051758</ele>
        <time>2016-02-29T20:16:45.000Z</time>
      </trkpt>
      <trkpt lat="48.8862" lon="2.4162">
        <ele>80.400001525879</ele>
        <time>2016-02-29T20:16:48.000Z</time>
      </trkpt>
      <trkpt lat="48.88612" lon="2.41586">
        <ele>79.800003051758</ele>
        <time>2016-02-29T20:16:52.000Z</time>
      </trkpt>
      <trkpt lat="48.88611" lon="2.41568">
        <ele>80</ele>
        <time>2016-02-29T20:16:54.000Z</time>
      </trkpt>
      <trkpt lat="48.88606" lon="2.41532">
        <ele>80.599998474121</ele>
        <time>2016-02-29T20:16:58.000Z</time>
      </trkpt>
      <trkpt lat="48.88601" lon="2.41504">
        <ele>81.199996948242</ele>
        <time>2016-02-29T20:17:01.000Z</time>
      </trkpt>
      <trkpt lat="48.88598" lon="2.41474">
        <ele>80.199996948242</ele>
        <time>2016-02-29T20:17:04.000Z</time>
      </trkpt>
      <trkpt lat="48.88593" lon="2.41445">
        <ele>78.800003051758</ele>
        <time>2016-02-29T20:17:07.000Z</time>
      </trkpt>
      <trkpt lat="48.88589" lon="2.41418">
        <ele>77.400001525879</ele>
        <time>2016-02-29T20:17:11.000Z</time>
      </trkpt>
      <trkpt lat="48.88586" lon="2.41397">
        <ele>78.599998474121</ele>
        <time>2016-02-29T20:17:16.000Z</time>
      </trkpt>
      <trkpt lat="48.88583" lon="2.41391">
        <ele>79.199996948242</ele>
        <time>2016-02-29T20:17:19.000Z</time>
      </trkpt>
      <trkpt lat="48.88583" lon="2.41391">
        <ele>79</ele>
        <time>2016-02-29T20:17:21.000Z</time>
      </trkpt>
      <trkpt lat="48.88585" lon="2.41376">
        <ele>78.800003051758</ele>
        <time>2016-02-29T20:17:47.000Z</time>
      </trkpt>
      <trkpt lat="48.88582" lon="2.41349">
        <ele>79.199996948242</ele>
        <time>2016-02-29T20:17:51.000Z</time>
      </trkpt>
      <trkpt lat="48.8858" lon="2.41318">
        <ele>79.199996948242</ele>
        <time>2016-02-29T20:17:55.000Z</time>
      </trkpt>
      <trkpt lat="48.88577" lon="2.41284">
        <ele>79.400001525879</ele>
        <time>2016-02-29T20:17:59.000Z</time>
      </trkpt>
      <trkpt lat="48.88574" lon="2.41253">
        <ele>80</ele>
        <time>2016-02-29T20:18:03.000Z</time>
      </trkpt>
      <trkpt lat="48.88571" lon="2.41219">
        <ele>79.400001525879</ele>
        <time>2016-02-29T20:18:07.000Z</time>
      </trkpt>
      <trkpt lat="48.88565" lon="2.4119">
        <ele>79.599998474121</ele>
        <time>2016-02-29T20:18:11.000Z</time>
      </trkpt>
      <trkpt lat="48.88562" lon="2.4116">
        <ele>80</ele>
        <time>2016-02-29T20:18:15.000Z</time>
      </trkpt>
      <trkpt lat="48.8856" lon="2.4113">
        <ele>79</ele>
        <time>2016-02-29T20:18:19.000Z</time>
      </trkpt>
      <trkpt lat="48.88554" lon="2.41103">
        <ele>78.199996948242</ele>
        <time>2016-02-29T20:18:23.000Z</time>
      </trkpt>
      <trkpt lat="48.88546" lon="2.41074">
        <ele>77.199996948242</ele>
        <time>2016-02-29T20:18:27.000Z</time>
      </trkpt>
      <trkpt lat="48.88543" lon="2.41042">
        <ele>76</ele>
        <time>2016-02-29T20:18:32.000Z</time>
      </trkpt>
      <trkpt lat="48.88543" lon="2.41027">
        <ele>75.199996948242</ele>
        <time>2016-02-29T20:18:34.000Z</time>
      </trkpt>
      <trkpt lat="48.8854" lon="2.40994">
        <ele>73.800003051758</ele>
        <time>2016-02-29T20:18:38.000Z</time>
      </trkpt>
      <trkpt lat="48.88531" lon="2.40961">
        <ele>72.199996948242</ele>
        <time>2016-02-29T20:18:42.000Z</time>
      </trkpt>
      <trkpt lat="48.88519" lon="2.40939">
        <ele>71.800003051758</ele>
        <time>2016-02-29T20:18:45.000Z</time>
      </trkpt>
      <trkpt lat="48.88516" lon="2.40931">
        <ele>71.400001525879</ele>
        <time>2016-02-29T20:18:46.000Z</time>
      </trkpt>
      <trkpt lat="48.88505" lon="2.40903">
        <ele>71.199996948242</ele>
        <time>2016-02-29T20:18:50.000Z</time>
      </trkpt>
      <trkpt lat="48.88498" lon="2.40877">
        <ele>71.599998474121</ele>
        <time>2016-02-29T20:18:54.000Z</time>
      </trkpt>
      <trkpt lat="48.88494" lon="2.4085">
        <ele>72.199996948242</ele>
        <time>2016-02-29T20:18:58.000Z</time>
      </trkpt>
      <trkpt lat="48.88492" lon="2.40828">
        <ele>72.400001525879</ele>
        <time>2016-02-29T20:19:02.000Z</time>
      </trkpt>
      <trkpt lat="48.88489" lon="2.40802">
        <ele>72.599998474121</ele>
        <time>2016-02-29T20:19:08.000Z</time>
      </trkpt>
      <trkpt lat="48.88478" lon="2.40797">
        <ele>73.199996948242</ele>
        <time>2016-02-29T20:19:17.000Z</time>
      </trkpt>
      <trkpt lat="48.88459" lon="2.40802">
        <ele>74</ele>
        <time>2016-02-29T20:19:22.000Z</time>
      </trkpt>
      <trkpt lat="48.8844" lon="2.40807">
        <ele>75</ele>
        <time>2016-02-29T20:19:27.000Z</time>
      </trkpt>
      <trkpt lat="48.8842" lon="2.40816">
        <ele>75</ele>
        <time>2016-02-29T20:19:31.000Z</time>
      </trkpt>
      <trkpt lat="48.884" lon="2.40824">
        <ele>75.800003051758</ele>
        <time>2016-02-29T20:19:35.000Z</time>
      </trkpt>
      <trkpt lat="48.88382" lon="2.4083">
        <ele>76.400001525879</ele>
        <time>2016-02-29T20:19:38.000Z</time>
      </trkpt>
      <trkpt lat="48.88364" lon="2.40836">
        <ele>76.800003051758</ele>
        <time>2016-02-29T20:19:41.000Z</time>
      </trkpt>
      <trkpt lat="48.88346" lon="2.40842">
        <ele>78.400001525879</ele>
        <time>2016-02-29T20:19:44.000Z</time>
      </trkpt>
      <trkpt lat="48.88326" lon="2.40846">
        <ele>80.199996948242</ele>
        <time>2016-02-29T20:19:47.000Z</time>
      </trkpt>
      <trkpt lat="48.88308" lon="2.40851">
        <ele>81.800003051758</ele>
        <time>2016-02-29T20:19:50.000Z</time>
      </trkpt>
      <trkpt lat="48.88302" lon="2.40852">
        <ele>82.400001525879</ele>
        <time>2016-02-29T20:19:51.000Z</time>
      </trkpt>
      <trkpt lat="48.88284" lon="2.40851">
        <ele>83</ele>
        <time>2016-02-29T20:19:55.000Z</time>
      </trkpt>
      <trkpt lat="48.88266" lon="2.40853">
        <ele>83.800003051758</ele>
        <time>2016-02-29T20:19:59.000Z</time>
      </trkpt>
      <trkpt lat="48.88249" lon="2.40854">
        <ele>85.199996948242</ele>
        <time>2016-02-29T20:20:04.000Z</time>
      </trkpt>
      <trkpt lat="48.88247" lon="2.40854">
        <ele>85.400001525879</ele>
        <time>2016-02-29T20:20:06.000Z</time>
      </trkpt>
      <trkpt lat="48.88246" lon="2.40853">
        <ele>85.599998474121</ele>
        <time>2016-02-29T20:20:11.000Z</time>
      </trkpt>
      <trkpt lat="48.88246" lon="2.40853">
        <ele>85.599998474121</ele>
        <time>2016-02-29T20:20:12.000Z</time>
      </trkpt>
      <trkpt lat="48.88237" lon="2.40847">
        <ele>86.199996948242</ele>
        <time>2016-02-29T20:20:48.000Z</time>
      </trkpt>
      <trkpt lat="48.88219" lon="2.40847">
        <ele>87.800003051758</ele>
        <time>2016-02-29T20:20:54.000Z</time>
      </trkpt>
      <trkpt lat="48.882" lon="2.40842">
        <ele>89.199996948242</ele>
        <time>2016-02-29T20:21:01.000Z</time>
      </trkpt>
      <trkpt lat="48.88181" lon="2.40833">
        <ele>90.800003051758</ele>
        <time>2016-02-29T20:21:05.000Z</time>
      </trkpt>
      <trkpt lat="48.88163" lon="2.40832">
        <ele>92.599998474121</ele>
        <time>2016-02-29T20:21:09.000Z</time>
      </trkpt>
      <trkpt lat="48.88149" lon="2.40833">
        <ele>94</ele>
        <time>2016-02-29T20:21:12.000Z</time>
      </trkpt>
      <trkpt lat="48.88127" lon="2.40835">
        <ele>96</ele>
        <time>2016-02-29T20:21:17.000Z</time>
      </trkpt>
      <trkpt lat="48.88109" lon="2.4083">
        <ele>97.599998474121</ele>
        <time>2016-02-29T20:21:22.000Z</time>
      </trkpt>
      <trkpt lat="48.88103" lon="2.40829">
        <ele>98.199996948242</ele>
        <time>2016-02-29T20:21:24.000Z</time>
      </trkpt>
      <trkpt lat="48.88084" lon="2.40827">
        <ele>99.400001525879</ele>
        <time>2016-02-29T20:21:33.000Z</time>
      </trkpt>
      <trkpt lat="48.8808" lon="2.40826">
        <ele>99.599998474121</ele>
        <time>2016-02-29T20:21:37.000Z</time>
      </trkpt>
      <trkpt lat="48.88059" lon="2.40824">
        <ele>100.80000305176</ele>
        <time>2016-02-29T20:21:45.000Z</time>
      </trkpt>
      <trkpt lat="48.88041" lon="2.40824">
        <ele>102</ele>
        <time>2016-02-29T20:21:48.000Z</time>
      </trkpt>
      <trkpt lat="48.88023" lon="2.40817">
        <ele>103</ele>
        <time>2016-02-29T20:22:15.000Z</time>
      </trkpt>
      <trkpt lat="48.88023" lon="2.40826">
        <ele>103</ele>
        <time>2016-02-29T20:22:28.000Z</time>
      </trkpt>
      <trkpt lat="48.88026" lon="2.40824">
        <ele>102.80000305176</ele>
        <time>2016-02-29T20:23:00.000Z</time>
      </trkpt>
      <trkpt lat="48.88014" lon="2.4083">
        <ele>103.40000152588</ele>
        <time>2016-02-29T20:23:28.000Z</time>
      </trkpt>
      <trkpt lat="48.87995" lon="2.40826">
        <ele>104</ele>
        <time>2016-02-29T20:23:39.000Z</time>
      </trkpt>
      <trkpt lat="48.87974" lon="2.4083">
        <ele>104.19999694824</ele>
        <time>2016-02-29T20:23:46.000Z</time>
      </trkpt>
      <trkpt lat="48.87965" lon="2.40824">
        <ele>104.80000305176</ele>
        <time>2016-02-29T20:23:52.000Z</time>
      </trkpt>
      <trkpt lat="48.87962" lon="2.40825">
        <ele>104.80000305176</ele>
        <time>2016-02-29T20:24:33.000Z</time>
      </trkpt>
      <trkpt lat="48.87954" lon="2.40849">
        <ele>105.80000305176</ele>
        <time>2016-02-29T20:24:39.000Z</time>
      </trkpt>
      <trkpt lat="48.87936" lon="2.40865">
        <ele>106.40000152588</ele>
        <time>2016-02-29T20:24:44.000Z</time>
      </trkpt>
      <trkpt lat="48.87916" lon="2.4088">
        <ele>107.59999847412</ele>
        <time>2016-02-29T20:24:49.000Z</time>
      </trkpt>
      <trkpt lat="48.87896" lon="2.40896">
        <ele>108.59999847412</ele>
        <time>2016-02-29T20:24:54.000Z</time>
      </trkpt>
      <trkpt lat="48.87879" lon="2.40907">
        <ele>109.19999694824</ele>
        <time>2016-02-29T20:24:58.000Z</time>
      </trkpt>
      <trkpt lat="48.87862" lon="2.40917">
        <ele>110.19999694824</ele>
        <time>2016-02-29T20:25:03.000Z</time>
      </trkpt>
      <trkpt lat="48.87852" lon="2.40924">
        <ele>110.40000152588</ele>
        <time>2016-02-29T20:25:08.000Z</time>
      </trkpt>
      <trkpt lat="48.87846" lon="2.40923">
        <ele>110.40000152588</ele>
        <time>2016-02-29T20:25:19.000Z</time>
      </trkpt>
      <trkpt lat="48.87841" lon="2.40916">
        <ele>110.40000152588</ele>
        <time>2016-02-29T20:25:26.000Z</time>
      </trkpt>
      <trkpt lat="48.87823" lon="2.40913">
        <ele>110.80000305176</ele>
        <time>2016-02-29T20:25:50.000Z</time>
      </trkpt>
      <trkpt lat="48.87815" lon="2.40906">
        <ele>111</ele>
        <time>2016-02-29T20:26:07.000Z</time>
      </trkpt>
      <trkpt lat="48.87816" lon="2.40874">
        <ele>111.40000152588</ele>
        <time>2016-02-29T20:26:18.000Z</time>
      </trkpt>
      <trkpt lat="48.87814" lon="2.40846">
        <ele>110.80000305176</ele>
        <time>2016-02-29T20:26:27.000Z</time>
      </trkpt>
      <trkpt lat="48.87803" lon="2.40821">
        <ele>111.40000152588</ele>
        <time>2016-02-29T20:26:35.000Z</time>
      </trkpt>
      <trkpt lat="48.8779" lon="2.40804">
        <ele>112.40000152588</ele>
        <time>2016-02-29T20:26:42.000Z</time>
      </trkpt>
      <trkpt lat="48.87785" lon="2.40793">
        <ele>112.80000305176</ele>
        <time>2016-02-29T20:27:16.000Z</time>
      </trkpt>
      <trkpt lat="48.8777" lon="2.40772">
        <ele>114</ele>
        <time>2016-02-29T20:27:23.000Z</time>
      </trkpt>
      <trkpt lat="48.87757" lon="2.40749">
        <ele>115.19999694824</ele>
        <time>2016-02-29T20:27:29.000Z</time>
      </trkpt>
      <trkpt lat="48.87748" lon="2.40724">
        <ele>115.59999847412</ele>
        <time>2016-02-29T20:27:35.000Z</time>
      </trkpt>
      <trkpt lat="48.87738" lon="2.40698">
        <ele>116.19999694824</ele>
        <time>2016-02-29T20:27:43.000Z</time>
      </trkpt>
      <trkpt lat="48.8773" lon="2.40672">
        <ele>117</ele>
        <time>2016-02-29T20:27:52.000Z</time>
      </trkpt>
      <trkpt lat="48.87715" lon="2.40656">
        <ele>117.59999847412</ele>
        <time>2016-02-29T20:28:02.000Z</time>
      </trkpt>
      <trkpt lat="48.87714" lon="2.40656">
        <ele>117.80000305176</ele>
        <time>2016-02-29T20:28:03.000Z</time>
      </trkpt>
      <trkpt lat="48.87695" lon="2.40642">
        <ele>118.40000152588</ele>
        <time>2016-02-29T20:28:27.000Z</time>
      </trkpt>
      <trkpt lat="48.87674" lon="2.40635">
        <ele>119.19999694824</ele>
        <time>2016-02-29T20:28:32.000Z</time>
      </trkpt>
      <trkpt lat="48.87654" lon="2.40629">
        <ele>119.80000305176</ele>
        <time>2016-02-29T20:28:36.000Z</time>
      </trkpt>
      <trkpt lat="48.87634" lon="2.40621">
        <ele>120.40000152588</ele>
        <time>2016-02-29T20:28:40.000Z</time>
      </trkpt>
      <trkpt lat="48.87616" lon="2.40617">
        <ele>121</ele>
        <time>2016-02-29T20:28:43.000Z</time>
      </trkpt>
      <trkpt lat="48.87598" lon="2.40613">
        <ele>121.40000152588</ele>
        <time>2016-02-29T20:28:46.000Z</time>
      </trkpt>
      <trkpt lat="48.87577" lon="2.40606">
        <ele>121.59999847412</ele>
        <time>2016-02-29T20:28:50.000Z</time>
      </trkpt>
      <trkpt lat="48.87551" lon="2.40595">
        <ele>121.80000305176</ele>
        <time>2016-02-29T20:28:54.000Z</time>
      </trkpt>
      <trkpt lat="48.87537" lon="2.4059">
        <ele>122</ele>
        <time>2016-02-29T20:28:57.000Z</time>
      </trkpt>
      <trkpt lat="48.87517" lon="2.40588">
        <ele>122.19999694824</ele>
        <time>2016-02-29T20:29:01.000Z</time>
      </trkpt>
      <trkpt lat="48.87509" lon="2.4059">
        <ele>122.19999694824</ele>
        <time>2016-02-29T20:29:03.000Z</time>
      </trkpt>
      <trkpt lat="48.87502" lon="2.40591">
        <ele>122.40000152588</ele>
        <time>2016-02-29T20:29:07.000Z</time>
      </trkpt>
      <trkpt lat="48.87502" lon="2.40591">
        <ele>122.40000152588</ele>
        <time>2016-02-29T20:29:09.000Z</time>
      </trkpt>
      <trkpt lat="48.87497" lon="2.40584">
        <ele>122.40000152588</ele>
        <time>2016-02-29T20:29:13.000Z</time>
      </trkpt>
      <trkpt lat="48.87499" lon="2.40575">
        <ele>122.19999694824</ele>
        <time>2016-02-29T20:29:19.000Z</time>
      </trkpt>
      <trkpt lat="48.87498" lon="2.40575">
        <ele>122.19999694824</ele>
        <time>2016-02-29T20:29:20.000Z</time>
      </trkpt>
      <trkpt lat="48.87485" lon="2.40563">
        <ele>122.40000152588</ele>
        <time>2016-02-29T20:29:46.000Z</time>
      </trkpt>
      <trkpt lat="48.87464" lon="2.40555">
        <ele>122.80000305176</ele>
        <time>2016-02-29T20:29:52.000Z</time>
      </trkpt>
      <trkpt lat="48.87442" lon="2.40547">
        <ele>123</ele>
        <time>2016-02-29T20:29:56.000Z</time>
      </trkpt>
      <trkpt lat="48.87429" lon="2.40543">
        <ele>122.80000305176</ele>
        <time>2016-02-29T20:29:58.000Z</time>
      </trkpt>
      <trkpt lat="48.87414" lon="2.40539">
        <ele>122.59999847412</ele>
        <time>2016-02-29T20:30:01.000Z</time>
      </trkpt>
      <trkpt lat="48.87396" lon="2.40528">
        <ele>122.40000152588</ele>
        <time>2016-02-29T20:30:05.000Z</time>
      </trkpt>
      <trkpt lat="48.87377" lon="2.40517">
        <ele>122.19999694824</ele>
        <time>2016-02-29T20:30:09.000Z</time>
      </trkpt>
      <trkpt lat="48.87359" lon="2.40508">
        <ele>121.80000305176</ele>
        <time>2016-02-29T20:30:11.000Z</time>
      </trkpt>
      <trkpt lat="48.87341" lon="2.40497">
        <ele>121.19999694824</ele>
        <time>2016-02-29T20:30:14.000Z</time>
      </trkpt>
      <trkpt lat="48.87322" lon="2.40485">
        <ele>120.19999694824</ele>
        <time>2016-02-29T20:30:18.000Z</time>
      </trkpt>
      <trkpt lat="48.87303" lon="2.40479">
        <ele>119.19999694824</ele>
        <time>2016-02-29T20:30:21.000Z</time>
      </trkpt>
      <trkpt lat="48.87281" lon="2.40471">
        <ele>118.19999694824</ele>
        <time>2016-02-29T20:30:25.000Z</time>
      </trkpt>
      <trkpt lat="48.87267" lon="2.40465">
        <ele>117.59999847412</ele>
        <time>2016-02-29T20:30:28.000Z</time>
      </trkpt>
      <trkpt lat="48.87248" lon="2.40464">
        <ele>116.59999847412</ele>
        <time>2016-02-29T20:30:31.000Z</time>
      </trkpt>
      <trkpt lat="48.87224" lon="2.40456">
        <ele>115.80000305176</ele>
        <time>2016-02-29T20:30:34.000Z</time>
      </trkpt>
      <trkpt lat="48.87208" lon="2.40454">
        <ele>115.40000152588</ele>
        <time>2016-02-29T20:30:36.000Z</time>
      </trkpt>
      <trkpt lat="48.87188" lon="2.40451">
        <ele>115</ele>
        <time>2016-02-29T20:30:39.000Z</time>
      </trkpt>
      <trkpt lat="48.87174" lon="2.40441">
        <ele>114.19999694824</ele>
        <time>2016-02-29T20:30:42.000Z</time>
      </trkpt>
      <trkpt lat="48.87157" lon="2.40429">
        <ele>113.40000152588</ele>
        <time>2016-02-29T20:30:47.000Z</time>
      </trkpt>
      <trkpt lat="48.8715" lon="2.40423">
        <ele>113</ele>
        <time>2016-02-29T20:30:49.000Z</time>
      </trkpt>
      <trkpt lat="48.87133" lon="2.40409">
        <ele>112.40000152588</ele>
        <time>2016-02-29T20:30:53.000Z</time>
      </trkpt>
      <trkpt lat="48.87119" lon="2.40399">
        <ele>112</ele>
        <time>2016-02-29T20:30:58.000Z</time>
      </trkpt>
      <trkpt lat="48.87112" lon="2.40388">
        <ele>112</ele>
        <time>2016-02-29T20:31:01.000Z</time>
      </trkpt>
      <trkpt lat="48.87103" lon="2.40372">
        <ele>112</ele>
        <time>2016-02-29T20:31:06.000Z</time>
      </trkpt>
      <trkpt lat="48.87062" lon="2.40348">
        <ele>112.59999847412</ele>
        <time>2016-02-29T20:31:13.000Z</time>
      </trkpt>
      <trkpt lat="48.87044" lon="2.4033">
        <ele>113</ele>
        <time>2016-02-29T20:31:17.000Z</time>
      </trkpt>
      <trkpt lat="48.87025" lon="2.40313">
        <ele>112.59999847412</ele>
        <time>2016-02-29T20:31:21.000Z</time>
      </trkpt>
      <trkpt lat="48.87017" lon="2.40304">
        <ele>112.40000152588</ele>
        <time>2016-02-29T20:31:23.000Z</time>
      </trkpt>
      <trkpt lat="48.87004" lon="2.40281">
        <ele>112.19999694824</ele>
        <time>2016-02-29T20:31:27.000Z</time>
      </trkpt>
      <trkpt lat="48.86985" lon="2.40259">
        <ele>112.19999694824</ele>
        <time>2016-02-29T20:31:31.000Z</time>
      </trkpt>
      <trkpt lat="48.86963" lon="2.4024">
        <ele>112.40000152588</ele>
        <time>2016-02-29T20:31:34.000Z</time>
      </trkpt>
      <trkpt lat="48.86945" lon="2.40225">
        <ele>112.59999847412</ele>
        <time>2016-02-29T20:31:37.000Z</time>
      </trkpt>
      <trkpt lat="48.86928" lon="2.40214">
        <ele>112</ele>
        <time>2016-02-29T20:31:40.000Z</time>
      </trkpt>
      <trkpt lat="48.86908" lon="2.40201">
        <ele>110.59999847412</ele>
        <time>2016-02-29T20:31:43.000Z</time>
      </trkpt>
      <trkpt lat="48.86881" lon="2.40189">
        <ele>108.80000305176</ele>
        <time>2016-02-29T20:31:45.000Z</time>
      </trkpt>
      <trkpt lat="48.86863" lon="2.40177">
        <ele>107.19999694824</ele>
        <time>2016-02-29T20:31:47.000Z</time>
      </trkpt>
      <trkpt lat="48.86843" lon="2.40166">
        <ele>104.80000305176</ele>
        <time>2016-02-29T20:31:49.000Z</time>
      </trkpt>
      <trkpt lat="48.86832" lon="2.40145">
        <ele>104</ele>
        <time>2016-02-29T20:31:57.000Z</time>
      </trkpt>
      <trkpt lat="48.86829" lon="2.40142">
        <ele>103.80000305176</ele>
        <time>2016-02-29T20:32:01.000Z</time>
      </trkpt>
      <trkpt lat="48.86829" lon="2.40143">
        <ele>103.80000305176</ele>
        <time>2016-02-29T20:32:02.000Z</time>
      </trkpt>
      <trkpt lat="48.86816" lon="2.40127">
        <ele>102.40000152588</ele>
        <time>2016-02-29T20:32:13.000Z</time>
      </trkpt>
      <trkpt lat="48.86798" lon="2.40111">
        <ele>100.40000152588</ele>
        <time>2016-02-29T20:32:18.000Z</time>
      </trkpt>
      <trkpt lat="48.86782" lon="2.40089">
        <ele>99</ele>
        <time>2016-02-29T20:32:22.000Z</time>
      </trkpt>
      <trkpt lat="48.86766" lon="2.40069">
        <ele>98.199996948242</ele>
        <time>2016-02-29T20:32:25.000Z</time>
      </trkpt>
      <trkpt lat="48.86752" lon="2.40045">
        <ele>98.800003051758</ele>
        <time>2016-02-29T20:32:28.000Z</time>
      </trkpt>
      <trkpt lat="48.86741" lon="2.40033">
        <ele>98.599998474121</ele>
        <time>2016-02-29T20:32:30.000Z</time>
      </trkpt>
      <trkpt lat="48.86722" lon="2.40018">
        <ele>98.199996948242</ele>
        <time>2016-02-29T20:32:33.000Z</time>
      </trkpt>
      <trkpt lat="48.86702" lon="2.39998">
        <ele>97.800003051758</ele>
        <time>2016-02-29T20:32:37.000Z</time>
      </trkpt>
      <trkpt lat="48.86677" lon="2.39979">
        <ele>97.400001525879</ele>
        <time>2016-02-29T20:32:40.000Z</time>
      </trkpt>
      <trkpt lat="48.86655" lon="2.39961">
        <ele>97.599998474121</ele>
        <time>2016-02-29T20:32:43.000Z</time>
      </trkpt>
      <trkpt lat="48.86637" lon="2.39949">
        <ele>97.400001525879</ele>
        <time>2016-02-29T20:32:46.000Z</time>
      </trkpt>
      <trkpt lat="48.86619" lon="2.39943">
        <ele>97</ele>
        <time>2016-02-29T20:32:48.000Z</time>
      </trkpt>
      <trkpt lat="48.86602" lon="2.39929">
        <ele>97.199996948242</ele>
        <time>2016-02-29T20:32:51.000Z</time>
      </trkpt>
      <trkpt lat="48.86585" lon="2.39918">
        <ele>97</ele>
        <time>2016-02-29T20:32:54.000Z</time>
      </trkpt>
      <trkpt lat="48.8658" lon="2.39914">
        <ele>97</ele>
        <time>2016-02-29T20:32:55.000Z</time>
      </trkpt>
      <trkpt lat="48.86556" lon="2.39903">
        <ele>96.400001525879</ele>
        <time>2016-02-29T20:32:58.000Z</time>
      </trkpt>
      <trkpt lat="48.86536" lon="2.39896">
        <ele>95.599998474121</ele>
        <time>2016-02-29T20:33:02.000Z</time>
      </trkpt>
      <trkpt lat="48.86521" lon="2.39887">
        <ele>95.400001525879</ele>
        <time>2016-02-29T20:33:04.000Z</time>
      </trkpt>
      <trkpt lat="48.86518" lon="2.39877">
        <ele>95.400001525879</ele>
        <time>2016-02-29T20:33:06.000Z</time>
      </trkpt>
      <trkpt lat="48.86515" lon="2.39857">
        <ele>95.599998474121</ele>
        <time>2016-02-29T20:33:09.000Z</time>
      </trkpt>
      <trkpt lat="48.86504" lon="2.39835">
        <ele>95.599998474121</ele>
        <time>2016-02-29T20:33:14.000Z</time>
      </trkpt>
      <trkpt lat="48.86502" lon="2.39836">
        <ele>95.400001525879</ele>
        <time>2016-02-29T20:33:15.000Z</time>
      </trkpt>
      <trkpt lat="48.86492" lon="2.39826">
        <ele>95.400001525879</ele>
        <time>2016-02-29T20:33:23.000Z</time>
      </trkpt>
      <trkpt lat="48.86492" lon="2.39826">
        <ele>95.400001525879</ele>
        <time>2016-02-29T20:33:24.000Z</time>
      </trkpt>
      <trkpt lat="48.86487" lon="2.39825">
        <ele>95.400001525879</ele>
        <time>2016-02-29T20:33:32.000Z</time>
      </trkpt>
      <trkpt lat="48.86472" lon="2.39833">
        <ele>94.800003051758</ele>
        <time>2016-02-29T20:34:01.000Z</time>
      </trkpt>
      <trkpt lat="48.86456" lon="2.39852">
        <ele>94.199996948242</ele>
        <time>2016-02-29T20:34:07.000Z</time>
      </trkpt>
      <trkpt lat="48.86441" lon="2.39869">
        <ele>93.599998474121</ele>
        <time>2016-02-29T20:34:13.000Z</time>
      </trkpt>
      <trkpt lat="48.86424" lon="2.39883">
        <ele>93.599998474121</ele>
        <time>2016-02-29T20:34:19.000Z</time>
      </trkpt>
      <trkpt lat="48.86407" lon="2.39901">
        <ele>93.400001525879</ele>
        <time>2016-02-29T20:34:25.000Z</time>
      </trkpt>
      <trkpt lat="48.86389" lon="2.39923">
        <ele>93</ele>
        <time>2016-02-29T20:34:31.000Z</time>
      </trkpt>
      <trkpt lat="48.86375" lon="2.39943">
        <ele>92.599998474121</ele>
        <time>2016-02-29T20:34:36.000Z</time>
      </trkpt>
      <trkpt lat="48.86362" lon="2.39963">
        <ele>92</ele>
        <time>2016-02-29T20:34:40.000Z</time>
      </trkpt>
      <trkpt lat="48.86354" lon="2.39992">
        <ele>91.199996948242</ele>
        <time>2016-02-29T20:34:45.000Z</time>
      </trkpt>
      <trkpt lat="48.86331" lon="2.40006">
        <ele>91.400001525879</ele>
        <time>2016-02-29T20:34:49.000Z</time>
      </trkpt>
      <trkpt lat="48.86308" lon="2.40004">
        <ele>92</ele>
        <time>2016-02-29T20:34:52.000Z</time>
      </trkpt>
      <trkpt lat="48.86277" lon="2.39999">
        <ele>92.800003051758</ele>
        <time>2016-02-29T20:34:55.000Z</time>
      </trkpt>
      <trkpt lat="48.86248" lon="2.39997">
        <ele>92.400001525879</ele>
        <time>2016-02-29T20:34:57.000Z</time>
      </trkpt>
      <trkpt lat="48.86223" lon="2.39999">
        <ele>91.800003051758</ele>
        <time>2016-02-29T20:34:59.000Z</time>
      </trkpt>
      <trkpt lat="48.86201" lon="2.40006">
        <ele>91.199996948242</ele>
        <time>2016-02-29T20:35:02.000Z</time>
      </trkpt>
      <trkpt lat="48.86196" lon="2.40009">
        <ele>91</ele>
        <time>2016-02-29T20:35:03.000Z</time>
      </trkpt>
      <trkpt lat="48.86174" lon="2.40015">
        <ele>90.199996948242</ele>
        <time>2016-02-29T20:35:07.000Z</time>
      </trkpt>
      <trkpt lat="48.86151" lon="2.40016">
        <ele>89.199996948242</ele>
        <time>2016-02-29T20:35:11.000Z</time>
      </trkpt>
      <trkpt lat="48.8613" lon="2.40019">
        <ele>88.199996948242</ele>
        <time>2016-02-29T20:35:15.000Z</time>
      </trkpt>
      <trkpt lat="48.86107" lon="2.40029">
        <ele>86.400001525879</ele>
        <time>2016-02-29T20:35:19.000Z</time>
      </trkpt>
      <trkpt lat="48.86088" lon="2.40034">
        <ele>84.599998474121</ele>
        <time>2016-02-29T20:35:22.000Z</time>
      </trkpt>
      <trkpt lat="48.86068" lon="2.40043">
        <ele>82.800003051758</ele>
        <time>2016-02-29T20:35:25.000Z</time>
      </trkpt>
      <trkpt lat="48.86059" lon="2.40048">
        <ele>81.599998474121</ele>
        <time>2016-02-29T20:35:26.000Z</time>
      </trkpt>
      <trkpt lat="48.86034" lon="2.4006">
        <ele>78.800003051758</ele>
        <time>2016-02-29T20:35:29.000Z</time>
      </trkpt>
      <trkpt lat="48.86011" lon="2.40073">
        <ele>76.599998474121</ele>
        <time>2016-02-29T20:35:32.000Z</time>
      </trkpt>
      <trkpt lat="48.85991" lon="2.40091">
        <ele>75</ele>
        <time>2016-02-29T20:35:35.000Z</time>
      </trkpt>
      <trkpt lat="48.85976" lon="2.40108">
        <ele>73.400001525879</ele>
        <time>2016-02-29T20:35:38.000Z</time>
      </trkpt>
      <trkpt lat="48.85959" lon="2.40129">
        <ele>73</ele>
        <time>2016-02-29T20:35:42.000Z</time>
      </trkpt>
      <trkpt lat="48.85943" lon="2.40157">
        <ele>73</ele>
        <time>2016-02-29T20:35:46.000Z</time>
      </trkpt>
      <trkpt lat="48.8593" lon="2.40179">
        <ele>72.599998474121</ele>
        <time>2016-02-29T20:35:49.000Z</time>
      </trkpt>
      <trkpt lat="48.85912" lon="2.40198">
        <ele>72</ele>
        <time>2016-02-29T20:35:52.000Z</time>
      </trkpt>
      <trkpt lat="48.85895" lon="2.40217">
        <ele>71.199996948242</ele>
        <time>2016-02-29T20:35:56.000Z</time>
      </trkpt>
      <trkpt lat="48.85878" lon="2.40236">
        <ele>70</ele>
        <time>2016-02-29T20:35:59.000Z</time>
      </trkpt>
      <trkpt lat="48.8586" lon="2.40261">
        <ele>69</ele>
        <time>2016-02-29T20:36:02.000Z</time>
      </trkpt>
      <trkpt lat="48.85846" lon="2.40277">
        <ele>69.400001525879</ele>
        <time>2016-02-29T20:36:05.000Z</time>
      </trkpt>
      <trkpt lat="48.85832" lon="2.40298">
        <ele>69.800003051758</ele>
        <time>2016-02-29T20:36:08.000Z</time>
      </trkpt>
      <trkpt lat="48.85825" lon="2.40323">
        <ele>69.599998474121</ele>
        <time>2016-02-29T20:36:11.000Z</time>
      </trkpt>
      <trkpt lat="48.8581" lon="2.40347">
        <ele>69.199996948242</ele>
        <time>2016-02-29T20:36:14.000Z</time>
      </trkpt>
      <trkpt lat="48.85796" lon="2.40366">
        <ele>69</ele>
        <time>2016-02-29T20:36:17.000Z</time>
      </trkpt>
      <trkpt lat="48.8578" lon="2.40388">
        <ele>69.199996948242</ele>
        <time>2016-02-29T20:36:21.000Z</time>
      </trkpt>
      <trkpt lat="48.85765" lon="2.40404">
        <ele>69.199996948242</ele>
        <time>2016-02-29T20:36:24.000Z</time>
      </trkpt>
      <trkpt lat="48.85745" lon="2.4042">
        <ele>68.199996948242</ele>
        <time>2016-02-29T20:36:28.000Z</time>
      </trkpt>
      <trkpt lat="48.85726" lon="2.40436">
        <ele>67.599998474121</ele>
        <time>2016-02-29T20:36:32.000Z</time>
      </trkpt>
      <trkpt lat="48.85702" lon="2.4045">
        <ele>66.800003051758</ele>
        <time>2016-02-29T20:36:36.000Z</time>
      </trkpt>
      <trkpt lat="48.85682" lon="2.40462">
        <ele>66.400001525879</ele>
        <time>2016-02-29T20:36:39.000Z</time>
      </trkpt>
      <trkpt lat="48.85664" lon="2.40473">
        <ele>66</ele>
        <time>2016-02-29T20:36:42.000Z</time>
      </trkpt>
      <trkpt lat="48.85646" lon="2.40482">
        <ele>66</ele>
        <time>2016-02-29T20:36:45.000Z</time>
      </trkpt>
      <trkpt lat="48.85627" lon="2.40489">
        <ele>66</ele>
        <time>2016-02-29T20:36:48.000Z</time>
      </trkpt>
      <trkpt lat="48.85605" lon="2.40499">
        <ele>66</ele>
        <time>2016-02-29T20:36:52.000Z</time>
      </trkpt>
      <trkpt lat="48.85586" lon="2.40509">
        <ele>65.199996948242</ele>
        <time>2016-02-29T20:36:55.000Z</time>
      </trkpt>
      <trkpt lat="48.85567" lon="2.40514">
        <ele>64.599998474121</ele>
        <time>2016-02-29T20:36:58.000Z</time>
      </trkpt>
      <trkpt lat="48.85544" lon="2.40522">
        <ele>63.599998474121</ele>
        <time>2016-02-29T20:37:02.000Z</time>
      </trkpt>
      <trkpt lat="48.8552" lon="2.40528">
        <ele>63.400001525879</ele>
        <time>2016-02-29T20:37:06.000Z</time>
      </trkpt>
      <trkpt lat="48.855" lon="2.40534">
        <ele>64.199996948242</ele>
        <time>2016-02-29T20:37:09.000Z</time>
      </trkpt>
      <trkpt lat="48.85481" lon="2.40542">
        <ele>65</ele>
        <time>2016-02-29T20:37:12.000Z</time>
      </trkpt>
      <trkpt lat="48.8546" lon="2.40548">
        <ele>64.599998474121</ele>
        <time>2016-02-29T20:37:15.000Z</time>
      </trkpt>
      <trkpt lat="48.85442" lon="2.40555">
        <ele>64</ele>
        <time>2016-02-29T20:37:18.000Z</time>
      </trkpt>
      <trkpt lat="48.85429" lon="2.40556">
        <ele>63.799999237061</ele>
        <time>2016-02-29T20:37:20.000Z</time>
      </trkpt>
      <trkpt lat="48.85408" lon="2.40558">
        <ele>63.599998474121</ele>
        <time>2016-02-29T20:37:23.000Z</time>
      </trkpt>
      <trkpt lat="48.85389" lon="2.40559">
        <ele>63.400001525879</ele>
        <time>2016-02-29T20:37:26.000Z</time>
      </trkpt>
      <trkpt lat="48.85373" lon="2.40568">
        <ele>63.200000762939</ele>
        <time>2016-02-29T20:37:28.000Z</time>
      </trkpt>
      <trkpt lat="48.85354" lon="2.4057">
        <ele>63</ele>
        <time>2016-02-29T20:37:31.000Z</time>
      </trkpt>
      <trkpt lat="48.85334" lon="2.40571">
        <ele>62.799999237061</ele>
        <time>2016-02-29T20:37:34.000Z</time>
      </trkpt>
      <trkpt lat="48.85313" lon="2.4058">
        <ele>62.400001525879</ele>
        <time>2016-02-29T20:37:38.000Z</time>
      </trkpt>
      <trkpt lat="48.85293" lon="2.4059">
        <ele>62</ele>
        <time>2016-02-29T20:37:43.000Z</time>
      </trkpt>
      <trkpt lat="48.85275" lon="2.40591">
        <ele>61.799999237061</ele>
        <time>2016-02-29T20:37:49.000Z</time>
      </trkpt>
      <trkpt lat="48.8527" lon="2.40599">
        <ele>61.799999237061</ele>
        <time>2016-02-29T20:37:50.000Z</time>
      </trkpt>
      <trkpt lat="48.85253" lon="2.40612">
        <ele>62.400001525879</ele>
        <time>2016-02-29T20:38:03.000Z</time>
      </trkpt>
      <trkpt lat="48.85234" lon="2.40614">
        <ele>63</ele>
        <time>2016-02-29T20:38:10.000Z</time>
      </trkpt>
      <trkpt lat="48.85215" lon="2.40613">
        <ele>63.400001525879</ele>
        <time>2016-02-29T20:38:15.000Z</time>
      </trkpt>
      <trkpt lat="48.85195" lon="2.40618">
        <ele>62.799999237061</ele>
        <time>2016-02-29T20:38:20.000Z</time>
      </trkpt>
      <trkpt lat="48.85175" lon="2.40622">
        <ele>62</ele>
        <time>2016-02-29T20:38:25.000Z</time>
      </trkpt>
      <trkpt lat="48.85155" lon="2.40626">
        <ele>60.799999237061</ele>
        <time>2016-02-29T20:38:31.000Z</time>
      </trkpt>
      <trkpt lat="48.85137" lon="2.40634">
        <ele>59.799999237061</ele>
        <time>2016-02-29T20:38:37.000Z</time>
      </trkpt>
      <trkpt lat="48.85119" lon="2.40641">
        <ele>59.200000762939</ele>
        <time>2016-02-29T20:38:42.000Z</time>
      </trkpt>
      <trkpt lat="48.85099" lon="2.40652">
        <ele>58.599998474121</ele>
        <time>2016-02-29T20:38:47.000Z</time>
      </trkpt>
      <trkpt lat="48.8508" lon="2.40658">
        <ele>58</ele>
        <time>2016-02-29T20:38:52.000Z</time>
      </trkpt>
      <trkpt lat="48.85061" lon="2.4065">
        <ele>58</ele>
        <time>2016-02-29T20:38:56.000Z</time>
      </trkpt>
      <trkpt lat="48.85043" lon="2.40646">
        <ele>57.799999237061</ele>
        <time>2016-02-29T20:39:01.000Z</time>
      </trkpt>
      <trkpt lat="48.85023" lon="2.40656">
        <ele>56.599998474121</ele>
        <time>2016-02-29T20:39:08.000Z</time>
      </trkpt>
      <trkpt lat="48.85002" lon="2.40661">
        <ele>55.599998474121</ele>
        <time>2016-02-29T20:39:13.000Z</time>
      </trkpt>
      <trkpt lat="48.84981" lon="2.40659">
        <ele>55.200000762939</ele>
        <time>2016-02-29T20:39:17.000Z</time>
      </trkpt>
      <trkpt lat="48.84961" lon="2.4066">
        <ele>54.200000762939</ele>
        <time>2016-02-29T20:39:21.000Z</time>
      </trkpt>
      <trkpt lat="48.84943" lon="2.40662">
        <ele>53.400001525879</ele>
        <time>2016-02-29T20:39:24.000Z</time>
      </trkpt>
      <trkpt lat="48.84924" lon="2.40664">
        <ele>53.200000762939</ele>
        <time>2016-02-29T20:39:27.000Z</time>
      </trkpt>
      <trkpt lat="48.84902" lon="2.40666">
        <ele>53.400001525879</ele>
        <time>2016-02-29T20:39:31.000Z</time>
      </trkpt>
      <trkpt lat="48.84878" lon="2.40663">
        <ele>53.799999237061</ele>
        <time>2016-02-29T20:39:35.000Z</time>
      </trkpt>
      <trkpt lat="48.84856" lon="2.40658">
        <ele>54.400001525879</ele>
        <time>2016-02-29T20:39:39.000Z</time>
      </trkpt>
      <trkpt lat="48.84835" lon="2.40653">
        <ele>53.799999237061</ele>
        <time>2016-02-29T20:39:43.000Z</time>
      </trkpt>
      <trkpt lat="48.84816" lon="2.40649">
        <ele>53.400001525879</ele>
        <time>2016-02-29T20:39:47.000Z</time>
      </trkpt>
      <trkpt lat="48.84799" lon="2.40644">
        <ele>53.200000762939</ele>
        <time>2016-02-29T20:39:51.000Z</time>
      </trkpt>
      <trkpt lat="48.84787" lon="2.40641">
        <ele>53</ele>
        <time>2016-02-29T20:39:54.000Z</time>
      </trkpt>
      <trkpt lat="48.84775" lon="2.40637">
        <ele>52.799999237061</ele>
        <time>2016-02-29T20:39:58.000Z</time>
      </trkpt>
      <trkpt lat="48.8477" lon="2.40633">
        <ele>52.799999237061</ele>
        <time>2016-02-29T20:40:00.000Z</time>
      </trkpt>
      <trkpt lat="48.84764" lon="2.4063">
        <ele>53</ele>
        <time>2016-02-29T20:40:03.000Z</time>
      </trkpt>
      <trkpt lat="48.8475" lon="2.4062">
        <ele>53.599998474121</ele>
        <time>2016-02-29T20:40:33.000Z</time>
      </trkpt>
      <trkpt lat="48.84733" lon="2.40628">
        <ele>53.799999237061</ele>
        <time>2016-02-29T20:40:41.000Z</time>
      </trkpt>
      <trkpt lat="48.84728" lon="2.4065">
        <ele>53.799999237061</ele>
        <time>2016-02-29T20:40:45.000Z</time>
      </trkpt>
      <trkpt lat="48.84727" lon="2.40685">
        <ele>53.799999237061</ele>
        <time>2016-02-29T20:40:50.000Z</time>
      </trkpt>
      <trkpt lat="48.84726" lon="2.40716">
        <ele>53.799999237061</ele>
        <time>2016-02-29T20:40:54.000Z</time>
      </trkpt>
      <trkpt lat="48.84727" lon="2.4075">
        <ele>53</ele>
        <time>2016-02-29T20:40:58.000Z</time>
      </trkpt>
      <trkpt lat="48.84728" lon="2.40778">
        <ele>53</ele>
        <time>2016-02-29T20:41:01.000Z</time>
      </trkpt>
      <trkpt lat="48.84727" lon="2.40807">
        <ele>52.799999237061</ele>
        <time>2016-02-29T20:41:04.000Z</time>
      </trkpt>
      <trkpt lat="48.84723" lon="2.40837">
        <ele>52.599998474121</ele>
        <time>2016-02-29T20:41:07.000Z</time>
      </trkpt>
      <trkpt lat="48.84718" lon="2.40864">
        <ele>53.599998474121</ele>
        <time>2016-02-29T20:41:10.000Z</time>
      </trkpt>
      <trkpt lat="48.84715" lon="2.40897">
        <ele>55.599998474121</ele>
        <time>2016-02-29T20:41:14.000Z</time>
      </trkpt>
      <trkpt lat="48.84713" lon="2.40932">
        <ele>56</ele>
        <time>2016-02-29T20:41:18.000Z</time>
      </trkpt>
      <trkpt lat="48.84711" lon="2.40968">
        <ele>55.200000762939</ele>
        <time>2016-02-29T20:41:22.000Z</time>
      </trkpt>
      <trkpt lat="48.8471" lon="2.40976">
        <ele>55</ele>
        <time>2016-02-29T20:41:23.000Z</time>
      </trkpt>
      <trkpt lat="48.84704" lon="2.41008">
        <ele>54.799999237061</ele>
        <time>2016-02-29T20:41:27.000Z</time>
      </trkpt>
      <trkpt lat="48.84704" lon="2.41039">
        <ele>54.599998474121</ele>
        <time>2016-02-29T20:41:31.000Z</time>
      </trkpt>
      <trkpt lat="48.84699" lon="2.4106">
        <ele>54.400001525879</ele>
        <time>2016-02-29T20:41:34.000Z</time>
      </trkpt>
      <trkpt lat="48.84695" lon="2.41082">
        <ele>54</ele>
        <time>2016-02-29T20:41:39.000Z</time>
      </trkpt>
      <trkpt lat="48.84685" lon="2.41106">
        <ele>54.200000762939</ele>
        <time>2016-02-29T20:41:47.000Z</time>
      </trkpt>
      <trkpt lat="48.84685" lon="2.41121">
        <ele>54.200000762939</ele>
        <time>2016-02-29T20:41:51.000Z</time>
      </trkpt>
      <trkpt lat="48.84688" lon="2.4114">
        <ele>54</ele>
        <time>2016-02-29T20:41:55.000Z</time>
      </trkpt>
      <trkpt lat="48.84689" lon="2.41168">
        <ele>54</ele>
        <time>2016-02-29T20:42:00.000Z</time>
      </trkpt>
      <trkpt lat="48.8469" lon="2.41199">
        <ele>54</ele>
        <time>2016-02-29T20:42:05.000Z</time>
      </trkpt>
      <trkpt lat="48.84687" lon="2.41226">
        <ele>54.200000762939</ele>
        <time>2016-02-29T20:42:09.000Z</time>
      </trkpt>
      <trkpt lat="48.84683" lon="2.41253">
        <ele>54.200000762939</ele>
        <time>2016-02-29T20:42:13.000Z</time>
      </trkpt>
      <trkpt lat="48.84679" lon="2.41281">
        <ele>53.799999237061</ele>
        <time>2016-02-29T20:42:17.000Z</time>
      </trkpt>
      <trkpt lat="48.84681" lon="2.41309">
        <ele>53</ele>
        <time>2016-02-29T20:42:21.000Z</time>
      </trkpt>
      <trkpt lat="48.8468" lon="2.41323">
        <ele>52.599998474121</ele>
        <time>2016-02-29T20:42:23.000Z</time>
      </trkpt>
      <trkpt lat="48.84676" lon="2.41348">
        <ele>51</ele>
        <time>2016-02-29T20:42:27.000Z</time>
      </trkpt>
      <trkpt lat="48.84667" lon="2.41374">
        <ele>49.200000762939</ele>
        <time>2016-02-29T20:42:32.000Z</time>
      </trkpt>
      <trkpt lat="48.84656" lon="2.41396">
        <ele>48.400001525879</ele>
        <time>2016-02-29T20:42:37.000Z</time>
      </trkpt>
      <trkpt lat="48.84644" lon="2.41421">
        <ele>48.799999237061</ele>
        <time>2016-02-29T20:42:42.000Z</time>
      </trkpt>
      <trkpt lat="48.84639" lon="2.4145">
        <ele>50.200000762939</ele>
        <time>2016-02-29T20:42:48.000Z</time>
      </trkpt>
      <trkpt lat="48.84638" lon="2.41454">
        <ele>50.400001525879</ele>
        <time>2016-02-29T20:42:49.000Z</time>
      </trkpt>
      <trkpt lat="48.84641" lon="2.41482">
        <ele>51.799999237061</ele>
        <time>2016-02-29T20:42:59.000Z</time>
      </trkpt>
      <trkpt lat="48.84642" lon="2.41482">
        <ele>51.799999237061</ele>
        <time>2016-02-29T20:43:00.000Z</time>
      </trkpt>
      <trkpt lat="48.84644" lon="2.41498">
        <ele>52.599998474121</ele>
        <time>2016-02-29T20:43:18.000Z</time>
      </trkpt>
      <trkpt lat="48.84655" lon="2.41521">
        <ele>52.799999237061</ele>
        <time>2016-02-29T20:43:24.000Z</time>
      </trkpt>
      <trkpt lat="48.84659" lon="2.4155">
        <ele>53.599998474121</ele>
        <time>2016-02-29T20:43:29.000Z</time>
      </trkpt>
      <trkpt lat="48.84659" lon="2.41578">
        <ele>56.400001525879</ele>
        <time>2016-02-29T20:43:33.000Z</time>
      </trkpt>
      <trkpt lat="48.84657" lon="2.4161">
        <ele>55.799999237061</ele>
        <time>2016-02-29T20:43:37.000Z</time>
      </trkpt>
      <trkpt lat="48.84656" lon="2.41638">
        <ele>55.200000762939</ele>
        <time>2016-02-29T20:43:41.000Z</time>
      </trkpt>
      <trkpt lat="48.84651" lon="2.4167">
        <ele>56.200000762939</ele>
        <time>2016-02-29T20:43:46.000Z</time>
      </trkpt>
      <trkpt lat="48.84643" lon="2.41696">
        <ele>58.599998474121</ele>
        <time>2016-02-29T20:43:51.000Z</time>
      </trkpt>
      <trkpt lat="48.8464" lon="2.41714">
        <ele>58.400001525879</ele>
        <time>2016-02-29T20:43:55.000Z</time>
      </trkpt>
      <trkpt lat="48.84633" lon="2.4174">
        <ele>57.200000762939</ele>
        <time>2016-02-29T20:44:01.000Z</time>
      </trkpt>
      <trkpt lat="48.8463" lon="2.41743">
        <ele>57.200000762939</ele>
        <time>2016-02-29T20:44:02.000Z</time>
      </trkpt>
      <trkpt lat="48.8461" lon="2.41749">
        <ele>57.799999237061</ele>
        <time>2016-02-29T20:44:06.000Z</time>
      </trkpt>
      <trkpt lat="48.84591" lon="2.41752">
        <ele>58</ele>
        <time>2016-02-29T20:44:12.000Z</time>
      </trkpt>
      <trkpt lat="48.84569" lon="2.41752">
        <ele>58</ele>
        <time>2016-02-29T20:44:17.000Z</time>
      </trkpt>
      <trkpt lat="48.84548" lon="2.41749">
        <ele>58</ele>
        <time>2016-02-29T20:44:21.000Z</time>
      </trkpt>
      <trkpt lat="48.8453" lon="2.41748">
        <ele>58</ele>
        <time>2016-02-29T20:44:25.000Z</time>
      </trkpt>
      <trkpt lat="48.84507" lon="2.41751">
        <ele>57.400001525879</ele>
        <time>2016-02-29T20:44:29.000Z</time>
      </trkpt>
      <trkpt lat="48.84489" lon="2.41756">
        <ele>56.599998474121</ele>
        <time>2016-02-29T20:44:32.000Z</time>
      </trkpt>
      <trkpt lat="48.84471" lon="2.4176">
        <ele>55.799999237061</ele>
        <time>2016-02-29T20:44:35.000Z</time>
      </trkpt>
      <trkpt lat="48.84465" lon="2.4176">
        <ele>55.599998474121</ele>
        <time>2016-02-29T20:44:36.000Z</time>
      </trkpt>
      <trkpt lat="48.84445" lon="2.41759">
        <ele>54.599998474121</ele>
        <time>2016-02-29T20:44:39.000Z</time>
      </trkpt>
      <trkpt lat="48.84427" lon="2.4176">
        <ele>53.799999237061</ele>
        <time>2016-02-29T20:44:42.000Z</time>
      </trkpt>
      <trkpt lat="48.84405" lon="2.41763">
        <ele>53.200000762939</ele>
        <time>2016-02-29T20:44:46.000Z</time>
      </trkpt>
      <trkpt lat="48.84386" lon="2.41763">
        <ele>52.400001525879</ele>
        <time>2016-02-29T20:44:51.000Z</time>
      </trkpt>
      <trkpt lat="48.84368" lon="2.41769">
        <ele>52</ele>
        <time>2016-02-29T20:44:59.000Z</time>
      </trkpt>
      <trkpt lat="48.84365" lon="2.41769">
        <ele>51.799999237061</ele>
        <time>2016-02-29T20:45:00.000Z</time>
      </trkpt>
      <trkpt lat="48.8436" lon="2.4177">
        <ele>51.599998474121</ele>
        <time>2016-02-29T20:45:02.000Z</time>
      </trkpt>
      <trkpt lat="48.84351" lon="2.4177">
        <ele>51.599998474121</ele>
        <time>2016-02-29T20:45:06.000Z</time>
      </trkpt>
      <trkpt lat="48.84344" lon="2.4177">
        <ele>51.599998474121</ele>
        <time>2016-02-29T20:45:08.000Z</time>
      </trkpt>
      <trkpt lat="48.84321" lon="2.41768">
        <ele>51.799999237061</ele>
        <time>2016-02-29T20:45:13.000Z</time>
      </trkpt>
      <trkpt lat="48.84315" lon="2.41766">
        <ele>52</ele>
        <time>2016-02-29T20:45:14.000Z</time>
      </trkpt>
      <trkpt lat="48.84292" lon="2.41766">
        <ele>52.200000762939</ele>
        <time>2016-02-29T20:45:18.000Z</time>
      </trkpt>
      <trkpt lat="48.84267" lon="2.41765">
        <ele>52</ele>
        <time>2016-02-29T20:45:21.000Z</time>
      </trkpt>
      <trkpt lat="48.84246" lon="2.41764">
        <ele>51.599998474121</ele>
        <time>2016-02-29T20:45:24.000Z</time>
      </trkpt>
      <trkpt lat="48.84223" lon="2.41764">
        <ele>51</ele>
        <time>2016-02-29T20:45:27.000Z</time>
      </trkpt>
      <trkpt lat="48.84204" lon="2.41766">
        <ele>50.599998474121</ele>
        <time>2016-02-29T20:45:30.000Z</time>
      </trkpt>
      <trkpt lat="48.84184" lon="2.41766">
        <ele>50.200000762939</ele>
        <time>2016-02-29T20:45:33.000Z</time>
      </trkpt>
      <trkpt lat="48.84163" lon="2.41767">
        <ele>51.200000762939</ele>
        <time>2016-02-29T20:45:36.000Z</time>
      </trkpt>
      <trkpt lat="48.84144" lon="2.41763">
        <ele>52.200000762939</ele>
        <time>2016-02-29T20:45:39.000Z</time>
      </trkpt>
      <trkpt lat="48.84124" lon="2.41761">
        <ele>53.200000762939</ele>
        <time>2016-02-29T20:45:42.000Z</time>
      </trkpt>
      <trkpt lat="48.84103" lon="2.4176">
        <ele>53.799999237061</ele>
        <time>2016-02-29T20:45:45.000Z</time>
      </trkpt>
      <trkpt lat="48.84084" lon="2.4176">
        <ele>53.799999237061</ele>
        <time>2016-02-29T20:45:48.000Z</time>
      </trkpt>
      <trkpt lat="48.84066" lon="2.4176">
        <ele>53.799999237061</ele>
        <time>2016-02-29T20:45:51.000Z</time>
      </trkpt>
      <trkpt lat="48.84042" lon="2.41756">
        <ele>54</ele>
        <time>2016-02-29T20:45:55.000Z</time>
      </trkpt>
      <trkpt lat="48.84023" lon="2.41755">
        <ele>54</ele>
        <time>2016-02-29T20:45:58.000Z</time>
      </trkpt>
      <trkpt lat="48.84001" lon="2.41755">
        <ele>54.400001525879</ele>
        <time>2016-02-29T20:46:02.000Z</time>
      </trkpt>
      <trkpt lat="48.83982" lon="2.41759">
        <ele>54.599998474121</ele>
        <time>2016-02-29T20:46:05.000Z</time>
      </trkpt>
      <trkpt lat="48.83963" lon="2.4176">
        <ele>54.799999237061</ele>
        <time>2016-02-29T20:46:08.000Z</time>
      </trkpt>
      <trkpt lat="48.83943" lon="2.41759">
        <ele>55</ele>
        <time>2016-02-29T20:46:12.000Z</time>
      </trkpt>
      <trkpt lat="48.8392" lon="2.41756">
        <ele>55.400001525879</ele>
        <time>2016-02-29T20:46:15.000Z</time>
      </trkpt>
      <trkpt lat="48.83901" lon="2.41753">
        <ele>56</ele>
        <time>2016-02-29T20:46:18.000Z</time>
      </trkpt>
      <trkpt lat="48.83884" lon="2.41752">
        <ele>56.400001525879</ele>
        <time>2016-02-29T20:46:21.000Z</time>
      </trkpt>
      <trkpt lat="48.83864" lon="2.4176">
        <ele>56.799999237061</ele>
        <time>2016-02-29T20:46:25.000Z</time>
      </trkpt>
      <trkpt lat="48.83858" lon="2.41762">
        <ele>57</ele>
        <time>2016-02-29T20:46:26.000Z</time>
      </trkpt>
      <trkpt lat="48.8384" lon="2.41767">
        <ele>56.799999237061</ele>
        <time>2016-02-29T20:46:29.000Z</time>
      </trkpt>
      <trkpt lat="48.83816" lon="2.41774">
        <ele>56.599998474121</ele>
        <time>2016-02-29T20:46:33.000Z</time>
      </trkpt>
      <trkpt lat="48.83802" lon="2.41778">
        <ele>56.400001525879</ele>
        <time>2016-02-29T20:46:36.000Z</time>
      </trkpt>
      <trkpt lat="48.83793" lon="2.41782">
        <ele>56.400001525879</ele>
        <time>2016-02-29T20:46:38.000Z</time>
      </trkpt>
      <trkpt lat="48.83779" lon="2.41788">
        <ele>56.400001525879</ele>
        <time>2016-02-29T20:46:41.000Z</time>
      </trkpt>
      <trkpt lat="48.83758" lon="2.41797">
        <ele>56.599998474121</ele>
        <time>2016-02-29T20:46:46.000Z</time>
      </trkpt>
      <trkpt lat="48.8375" lon="2.41801">
        <ele>56.599998474121</ele>
        <time>2016-02-29T20:46:48.000Z</time>
      </trkpt>
      <trkpt lat="48.83734" lon="2.41812">
        <ele>57</ele>
        <time>2016-02-29T20:46:54.000Z</time>
      </trkpt>
      <trkpt lat="48.83723" lon="2.41817">
        <ele>57.200000762939</ele>
        <time>2016-02-29T20:46:58.000Z</time>
      </trkpt>
      <trkpt lat="48.83697" lon="2.41833">
        <ele>58</ele>
        <time>2016-02-29T20:47:03.000Z</time>
      </trkpt>
      <trkpt lat="48.83676" lon="2.41846">
        <ele>57.799999237061</ele>
        <time>2016-02-29T20:47:07.000Z</time>
      </trkpt>
      <trkpt lat="48.83655" lon="2.41857">
        <ele>57.599998474121</ele>
        <time>2016-02-29T20:47:09.000Z</time>
      </trkpt>
      <trkpt lat="48.83636" lon="2.41873">
        <ele>57.400001525879</ele>
        <time>2016-02-29T20:47:12.000Z</time>
      </trkpt>
      <trkpt lat="48.8361" lon="2.41895">
        <ele>57</ele>
        <time>2016-02-29T20:47:17.000Z</time>
      </trkpt>
      <trkpt lat="48.83587" lon="2.41909">
        <ele>56.200000762939</ele>
        <time>2016-02-29T20:47:21.000Z</time>
      </trkpt>
      <trkpt lat="48.83568" lon="2.41918">
        <ele>55.599998474121</ele>
        <time>2016-02-29T20:47:23.000Z</time>
      </trkpt>
      <trkpt lat="48.8355" lon="2.41932">
        <ele>55</ele>
        <time>2016-02-29T20:47:26.000Z</time>
      </trkpt>
      <trkpt lat="48.83532" lon="2.41946">
        <ele>54.599998474121</ele>
        <time>2016-02-29T20:47:28.000Z</time>
      </trkpt>
      <trkpt lat="48.83513" lon="2.41958">
        <ele>54.599998474121</ele>
        <time>2016-02-29T20:47:33.000Z</time>
      </trkpt>
      <trkpt lat="48.83505" lon="2.41962">
        <ele>54.599998474121</ele>
        <time>2016-02-29T20:47:36.000Z</time>
      </trkpt>
      <trkpt lat="48.835" lon="2.41959">
        <ele>54.599998474121</ele>
        <time>2016-02-29T20:47:40.000Z</time>
      </trkpt>
      <trkpt lat="48.83513" lon="2.41955">
        <ele>54.400001525879</ele>
        <time>2016-02-29T20:48:08.000Z</time>
      </trkpt>
      <trkpt lat="48.83504" lon="2.41971">
        <ele>54.599998474121</ele>
        <time>2016-02-29T20:48:33.000Z</time>
      </trkpt>
      <trkpt lat="48.83489" lon="2.41987">
        <ele>54.799999237061</ele>
        <time>2016-02-29T20:48:42.000Z</time>
      </trkpt>
      <trkpt lat="48.83477" lon="2.41999">
        <ele>55</ele>
        <time>2016-02-29T20:48:46.000Z</time>
      </trkpt>
      <trkpt lat="48.83456" lon="2.42014">
        <ele>54.799999237061</ele>
        <time>2016-02-29T20:48:51.000Z</time>
      </trkpt>
      <trkpt lat="48.83442" lon="2.42024">
        <ele>54.200000762939</ele>
        <time>2016-02-29T20:48:54.000Z</time>
      </trkpt>
      <trkpt lat="48.83424" lon="2.42034">
        <ele>53.599998474121</ele>
        <time>2016-02-29T20:48:58.000Z</time>
      </trkpt>
      <trkpt lat="48.83405" lon="2.42039">
        <ele>53.200000762939</ele>
        <time>2016-02-29T20:49:02.000Z</time>
      </trkpt>
      <trkpt lat="48.83382" lon="2.4204">
        <ele>53.200000762939</ele>
        <time>2016-02-29T20:49:06.000Z</time>
      </trkpt>
      <trkpt lat="48.8336" lon="2.42039">
        <ele>53.400001525879</ele>
        <time>2016-02-29T20:49:10.000Z</time>
      </trkpt>
      <trkpt lat="48.83337" lon="2.42038">
        <ele>53</ele>
        <time>2016-02-29T20:49:14.000Z</time>
      </trkpt>
      <trkpt lat="48.83317" lon="2.42038">
        <ele>52.599998474121</ele>
        <time>2016-02-29T20:49:17.000Z</time>
      </trkpt>
      <trkpt lat="48.83297" lon="2.42036">
        <ele>52.200000762939</ele>
        <time>2016-02-29T20:49:20.000Z</time>
      </trkpt>
      <trkpt lat="48.83276" lon="2.42037">
        <ele>52</ele>
        <time>2016-02-29T20:49:23.000Z</time>
      </trkpt>
      <trkpt lat="48.83256" lon="2.42041">
        <ele>52.200000762939</ele>
        <time>2016-02-29T20:49:26.000Z</time>
      </trkpt>
      <trkpt lat="48.83235" lon="2.42043">
        <ele>52.400001525879</ele>
        <time>2016-02-29T20:49:28.000Z</time>
      </trkpt>
      <trkpt lat="48.83212" lon="2.42047">
        <ele>53.599998474121</ele>
        <time>2016-02-29T20:49:32.000Z</time>
      </trkpt>
      <trkpt lat="48.8319" lon="2.42051">
        <ele>54.799999237061</ele>
        <time>2016-02-29T20:49:35.000Z</time>
      </trkpt>
      <trkpt lat="48.83166" lon="2.42055">
        <ele>55</ele>
        <time>2016-02-29T20:49:38.000Z</time>
      </trkpt>
      <trkpt lat="48.83141" lon="2.42056">
        <ele>54.799999237061</ele>
        <time>2016-02-29T20:49:41.000Z</time>
      </trkpt>
      <trkpt lat="48.83116" lon="2.42057">
        <ele>54.599998474121</ele>
        <time>2016-02-29T20:49:44.000Z</time>
      </trkpt>
      <trkpt lat="48.83091" lon="2.42056">
        <ele>54.400001525879</ele>
        <time>2016-02-29T20:49:47.000Z</time>
      </trkpt>
      <trkpt lat="48.83065" lon="2.42053">
        <ele>54.200000762939</ele>
        <time>2016-02-29T20:49:50.000Z</time>
      </trkpt>
      <trkpt lat="48.83047" lon="2.4205">
        <ele>54</ele>
        <time>2016-02-29T20:49:52.000Z</time>
      </trkpt>
      <trkpt lat="48.83021" lon="2.42042">
        <ele>53.599998474121</ele>
        <time>2016-02-29T20:49:55.000Z</time>
      </trkpt>
      <trkpt lat="48.82996" lon="2.42034">
        <ele>53.400001525879</ele>
        <time>2016-02-29T20:49:58.000Z</time>
      </trkpt>
      <trkpt lat="48.82971" lon="2.42024">
        <ele>53.400001525879</ele>
        <time>2016-02-29T20:50:01.000Z</time>
      </trkpt>
      <trkpt lat="48.82948" lon="2.42011">
        <ele>53.200000762939</ele>
        <time>2016-02-29T20:50:04.000Z</time>
      </trkpt>
      <trkpt lat="48.82926" lon="2.41997">
        <ele>53.200000762939</ele>
        <time>2016-02-29T20:50:07.000Z</time>
      </trkpt>
      <trkpt lat="48.82906" lon="2.41983">
        <ele>53</ele>
        <time>2016-02-29T20:50:10.000Z</time>
      </trkpt>
      <trkpt lat="48.82888" lon="2.41971">
        <ele>53</ele>
        <time>2016-02-29T20:50:13.000Z</time>
      </trkpt>
      <trkpt lat="48.82872" lon="2.41956">
        <ele>52.799999237061</ele>
        <time>2016-02-29T20:50:17.000Z</time>
      </trkpt>
      <trkpt lat="48.82868" lon="2.41929">
        <ele>52.200000762939</ele>
        <time>2016-02-29T20:50:23.000Z</time>
      </trkpt>
      <trkpt lat="48.82872" lon="2.41923">
        <ele>52</ele>
        <time>2016-02-29T20:50:27.000Z</time>
      </trkpt>
      <trkpt lat="48.82872" lon="2.41922">
        <ele>52</ele>
        <time>2016-02-29T20:50:28.000Z</time>
      </trkpt>
      <trkpt lat="48.8287" lon="2.41921">
        <ele>52</ele>
        <time>2016-02-29T20:50:50.000Z</time>
      </trkpt>
      <trkpt lat="48.82857" lon="2.4192">
        <ele>52</ele>
        <time>2016-02-29T20:50:55.000Z</time>
      </trkpt>
      <trkpt lat="48.82838" lon="2.41921">
        <ele>52.400001525879</ele>
        <time>2016-02-29T20:51:02.000Z</time>
      </trkpt>
      <trkpt lat="48.82816" lon="2.41924">
        <ele>52.599998474121</ele>
        <time>2016-02-29T20:51:08.000Z</time>
      </trkpt>
      <trkpt lat="48.82793" lon="2.41926">
        <ele>53</ele>
        <time>2016-02-29T20:51:13.000Z</time>
      </trkpt>
      <trkpt lat="48.82772" lon="2.41928">
        <ele>53.400001525879</ele>
        <time>2016-02-29T20:51:17.000Z</time>
      </trkpt>
      <trkpt lat="48.8275" lon="2.41932">
        <ele>52.599998474121</ele>
        <time>2016-02-29T20:51:21.000Z</time>
      </trkpt>
      <trkpt lat="48.82726" lon="2.41941">
        <ele>52</ele>
        <time>2016-02-29T20:51:25.000Z</time>
      </trkpt>
      <trkpt lat="48.82708" lon="2.41948">
        <ele>51.400001525879</ele>
        <time>2016-02-29T20:51:28.000Z</time>
      </trkpt>
      <trkpt lat="48.82688" lon="2.41957">
        <ele>51</ele>
        <time>2016-02-29T20:51:31.000Z</time>
      </trkpt>
      <trkpt lat="48.82668" lon="2.41965">
        <ele>51.599998474121</ele>
        <time>2016-02-29T20:51:34.000Z</time>
      </trkpt>
      <trkpt lat="48.82646" lon="2.4197">
        <ele>52.200000762939</ele>
        <time>2016-02-29T20:51:37.000Z</time>
      </trkpt>
      <trkpt lat="48.82625" lon="2.41975">
        <ele>52.400001525879</ele>
        <time>2016-02-29T20:51:40.000Z</time>
      </trkpt>
      <trkpt lat="48.82602" lon="2.41981">
        <ele>53</ele>
        <time>2016-02-29T20:51:43.000Z</time>
      </trkpt>
      <trkpt lat="48.82578" lon="2.41983">
        <ele>53.599998474121</ele>
        <time>2016-02-29T20:51:46.000Z</time>
      </trkpt>
      <trkpt lat="48.82553" lon="2.41986">
        <ele>53.799999237061</ele>
        <time>2016-02-29T20:51:49.000Z</time>
      </trkpt>
      <trkpt lat="48.8253" lon="2.4199">
        <ele>54</ele>
        <time>2016-02-29T20:51:52.000Z</time>
      </trkpt>
      <trkpt lat="48.82509" lon="2.41991">
        <ele>54.400001525879</ele>
        <time>2016-02-29T20:51:55.000Z</time>
      </trkpt>
      <trkpt lat="48.82488" lon="2.41992">
        <ele>54.799999237061</ele>
        <time>2016-02-29T20:51:58.000Z</time>
      </trkpt>
      <trkpt lat="48.82467" lon="2.41992">
        <ele>55.400001525879</ele>
        <time>2016-02-29T20:52:01.000Z</time>
      </trkpt>
      <trkpt lat="48.82449" lon="2.41991">
        <ele>55.799999237061</ele>
        <time>2016-02-29T20:52:04.000Z</time>
      </trkpt>
      <trkpt lat="48.82427" lon="2.41987">
        <ele>56.400001525879</ele>
        <time>2016-02-29T20:52:08.000Z</time>
      </trkpt>
      <trkpt lat="48.82422" lon="2.41986">
        <ele>56.400001525879</ele>
        <time>2016-02-29T20:52:09.000Z</time>
      </trkpt>
      <trkpt lat="48.82409" lon="2.41979">
        <ele>56.799999237061</ele>
        <time>2016-02-29T20:52:14.000Z</time>
      </trkpt>
      <trkpt lat="48.82399" lon="2.41985">
        <ele>57.200000762939</ele>
        <time>2016-02-29T20:52:40.000Z</time>
      </trkpt>
      <trkpt lat="48.82378" lon="2.41987">
        <ele>58</ele>
        <time>2016-02-29T20:52:45.000Z</time>
      </trkpt>
      <trkpt lat="48.82357" lon="2.41987">
        <ele>58.799999237061</ele>
        <time>2016-02-29T20:52:49.000Z</time>
      </trkpt>
      <trkpt lat="48.82333" lon="2.41987">
        <ele>58.599998474121</ele>
        <time>2016-02-29T20:52:53.000Z</time>
      </trkpt>
      <trkpt lat="48.82311" lon="2.41986">
        <ele>58.400001525879</ele>
        <time>2016-02-29T20:52:57.000Z</time>
      </trkpt>
      <trkpt lat="48.82288" lon="2.41983">
        <ele>58</ele>
        <time>2016-02-29T20:53:01.000Z</time>
      </trkpt>
      <trkpt lat="48.82268" lon="2.41979">
        <ele>57.799999237061</ele>
        <time>2016-02-29T20:53:05.000Z</time>
      </trkpt>
      <trkpt lat="48.82257" lon="2.41978">
        <ele>57.599998474121</ele>
        <time>2016-02-29T20:53:07.000Z</time>
      </trkpt>
      <trkpt lat="48.82236" lon="2.41977">
        <ele>57.200000762939</ele>
        <time>2016-02-29T20:53:11.000Z</time>
      </trkpt>
      <trkpt lat="48.82215" lon="2.41972">
        <ele>56.599998474121</ele>
        <time>2016-02-29T20:53:15.000Z</time>
      </trkpt>
      <trkpt lat="48.82189" lon="2.41968">
        <ele>56</ele>
        <time>2016-02-29T20:53:19.000Z</time>
      </trkpt>
      <trkpt lat="48.8217" lon="2.41969">
        <ele>56</ele>
        <time>2016-02-29T20:53:24.000Z</time>
      </trkpt>
      <trkpt lat="48.82147" lon="2.41968">
        <ele>55.799999237061</ele>
        <time>2016-02-29T20:53:28.000Z</time>
      </trkpt>
      <trkpt lat="48.82126" lon="2.41962">
        <ele>55.599998474121</ele>
        <time>2016-02-29T20:53:32.000Z</time>
      </trkpt>
      <trkpt lat="48.82107" lon="2.41957">
        <ele>55.599998474121</ele>
        <time>2016-02-29T20:53:38.000Z</time>
      </trkpt>
      <trkpt lat="48.82101" lon="2.41957">
        <ele>55.400001525879</ele>
        <time>2016-02-29T20:53:40.000Z</time>
      </trkpt>
      <trkpt lat="48.82079" lon="2.41957">
        <ele>55.400001525879</ele>
        <time>2016-02-29T20:53:47.000Z</time>
      </trkpt>
      <trkpt lat="48.82072" lon="2.41956">
        <ele>55.599998474121</ele>
        <time>2016-02-29T20:53:50.000Z</time>
      </trkpt>
      <trkpt lat="48.82053" lon="2.41959">
        <ele>55.400001525879</ele>
        <time>2016-02-29T20:53:56.000Z</time>
      </trkpt>
      <trkpt lat="48.82031" lon="2.41954">
        <ele>55.599998474121</ele>
        <time>2016-02-29T20:54:00.000Z</time>
      </trkpt>
      <trkpt lat="48.82014" lon="2.41946">
        <ele>55.200000762939</ele>
        <time>2016-02-29T20:54:04.000Z</time>
      </trkpt>
      <trkpt lat="48.82004" lon="2.41923">
        <ele>55</ele>
        <time>2016-02-29T20:54:08.000Z</time>
      </trkpt>
      <trkpt lat="48.82004" lon="2.41895">
        <ele>55.599998474121</ele>
        <time>2016-02-29T20:54:12.000Z</time>
      </trkpt>
      <trkpt lat="48.82005" lon="2.41862">
        <ele>55.200000762939</ele>
        <time>2016-02-29T20:54:16.000Z</time>
      </trkpt>
      <trkpt lat="48.82004" lon="2.41848">
        <ele>55</ele>
        <time>2016-02-29T20:54:18.000Z</time>
      </trkpt>
      <trkpt lat="48.82002" lon="2.4182">
        <ele>54.799999237061</ele>
        <time>2016-02-29T20:54:22.000Z</time>
      </trkpt>
      <trkpt lat="48.81995" lon="2.4179">
        <ele>55</ele>
        <time>2016-02-29T20:54:26.000Z</time>
      </trkpt>
      <trkpt lat="48.81984" lon="2.4177">
        <ele>55.200000762939</ele>
        <time>2016-02-29T20:54:30.000Z</time>
      </trkpt>
      <trkpt lat="48.81974" lon="2.41746">
        <ele>55.200000762939</ele>
        <time>2016-02-29T20:54:36.000Z</time>
      </trkpt>
      <trkpt lat="48.81966" lon="2.41717">
        <ele>54.599998474121</ele>
        <time>2016-02-29T20:54:41.000Z</time>
      </trkpt>
      <trkpt lat="48.81956" lon="2.41691">
        <ele>54</ele>
        <time>2016-02-29T20:54:44.000Z</time>
      </trkpt>
      <trkpt lat="48.8195" lon="2.4166">
        <ele>53.200000762939</ele>
        <time>2016-02-29T20:54:49.000Z</time>
      </trkpt>
      <trkpt lat="48.81943" lon="2.41641">
        <ele>52.599998474121</ele>
        <time>2016-02-29T20:54:53.000Z</time>
      </trkpt>
      <trkpt lat="48.81937" lon="2.41628">
        <ele>52</ele>
        <time>2016-02-29T20:54:57.000Z</time>
      </trkpt>
      <trkpt lat="48.81933" lon="2.41632">
        <ele>51.599998474121</ele>
        <time>2016-02-29T20:55:05.000Z</time>
      </trkpt>
      <trkpt lat="48.81936" lon="2.41616">
        <ele>51.599998474121</ele>
        <time>2016-02-29T20:55:45.000Z</time>
      </trkpt>
      <trkpt lat="48.81928" lon="2.41603">
        <ele>50.400001525879</ele>
        <time>2016-02-29T20:55:59.000Z</time>
      </trkpt>
      <trkpt lat="48.8193" lon="2.41588">
        <ele>50.200000762939</ele>
        <time>2016-02-29T20:56:35.000Z</time>
      </trkpt>
      <trkpt lat="48.81926" lon="2.41559">
        <ele>48.799999237061</ele>
        <time>2016-02-29T20:56:44.000Z</time>
      </trkpt>
      <trkpt lat="48.81925" lon="2.41535">
        <ele>48</ele>
        <time>2016-02-29T20:56:52.000Z</time>
      </trkpt>
      <trkpt lat="48.81915" lon="2.41528">
        <ele>46.599998474121</ele>
        <time>2016-02-29T20:57:04.000Z</time>
      </trkpt>
      <trkpt lat="48.81911" lon="2.41526">
        <ele>46</ele>
        <time>2016-02-29T20:57:08.000Z</time>
      </trkpt>
      <trkpt lat="48.81908" lon="2.41527">
        <ele>45.599998474121</ele>
        <time>2016-02-29T20:57:13.000Z</time>
      </trkpt>
      <trkpt lat="48.81904" lon="2.41528">
        <ele>45</ele>
        <time>2016-02-29T20:57:21.000Z</time>
      </trkpt>
      <trkpt lat="48.81899" lon="2.41518">
        <ele>44.200000762939</ele>
        <time>2016-02-29T20:58:06.000Z</time>
      </trkpt>
      <trkpt lat="48.8189" lon="2.41524">
        <ele>43.200000762939</ele>
        <time>2016-02-29T20:58:22.000Z</time>
      </trkpt>
      <trkpt lat="48.81878" lon="2.41532">
        <ele>42</ele>
        <time>2016-02-29T20:59:49.000Z</time>
      </trkpt>
      <trkpt lat="48.81878" lon="2.4153">
        <ele>42</ele>
        <time>2016-02-29T21:00:44.000Z</time>
      </trkpt>
      <trkpt lat="48.81879" lon="2.41519">
        <ele>41.599998474121</ele>
        <time>2016-02-29T21:01:50.000Z</time>
      </trkpt>
      <trkpt lat="48.81869" lon="2.41506">
        <ele>40</ele>
        <time>2016-02-29T21:02:29.000Z</time>
      </trkpt>
      <trkpt lat="48.81869" lon="2.41513">
        <ele>40.200000762939</ele>
        <time>2016-02-29T21:03:07.000Z</time>
      </trkpt>
      <trkpt lat="48.81848" lon="2.41517">
        <ele>38.599998474121</ele>
        <time>2016-02-29T21:03:16.000Z</time>
      </trkpt>
      <trkpt lat="48.81833" lon="2.41518">
        <ele>38.400001525879</ele>
        <time>2016-02-29T21:03:22.000Z</time>
      </trkpt>
      <trkpt lat="48.81828" lon="2.41526">
        <ele>38.599998474121</ele>
        <time>2016-02-29T21:03:28.000Z</time>
      </trkpt>
      <trkpt lat="48.81827" lon="2.41527">
        <ele>38.599998474121</ele>
        <time>2016-02-29T21:03:30.000Z</time>
      </trkpt>
      <trkpt lat="48.81832" lon="2.41514">
        <ele>38.200000762939</ele>
        <time>2016-02-29T21:03:42.000Z</time>
      </trkpt>
      <trkpt lat="48.81831" lon="2.41516">
        <ele>38.200000762939</ele>
        <time>2016-02-29T21:04:51.000Z</time>
      </trkpt>
      <trkpt lat="48.81815" lon="2.41525">
        <ele>38.400001525879</ele>
        <time>2016-02-29T21:05:14.000Z</time>
      </trkpt>
      <trkpt lat="48.81803" lon="2.41518">
        <ele>37.599998474121</ele>
        <time>2016-02-29T21:05:25.000Z</time>
      </trkpt>
      <trkpt lat="48.81799" lon="2.41502">
        <ele>36.799999237061</ele>
        <time>2016-02-29T21:05:29.000Z</time>
      </trkpt>
      <trkpt lat="48.81797" lon="2.41457">
        <ele>35.599998474121</ele>
        <time>2016-02-29T21:05:37.000Z</time>
      </trkpt>
      <trkpt lat="48.81797" lon="2.41429">
        <ele>35.200000762939</ele>
        <time>2016-02-29T21:05:42.000Z</time>
      </trkpt>
      <trkpt lat="48.81804" lon="2.414">
        <ele>35.400001525879</ele>
        <time>2016-02-29T21:05:50.000Z</time>
      </trkpt>
      <trkpt lat="48.81806" lon="2.41373">
        <ele>35.200000762939</ele>
        <time>2016-02-29T21:05:54.000Z</time>
      </trkpt>
      <trkpt lat="48.81808" lon="2.41353">
        <ele>34.799999237061</ele>
        <time>2016-02-29T21:05:57.000Z</time>
      </trkpt>
      <trkpt lat="48.81813" lon="2.41319">
        <ele>34.400001525879</ele>
        <time>2016-02-29T21:06:01.000Z</time>
      </trkpt>
      <trkpt lat="48.81817" lon="2.41285">
        <ele>34</ele>
        <time>2016-02-29T21:06:07.000Z</time>
      </trkpt>
      <trkpt lat="48.8182" lon="2.41252">
        <ele>33.799999237061</ele>
        <time>2016-02-29T21:06:12.000Z</time>
      </trkpt>
      <trkpt lat="48.81824" lon="2.4122">
        <ele>35.599998474121</ele>
        <time>2016-02-29T21:06:16.000Z</time>
      </trkpt>
      <trkpt lat="48.81827" lon="2.4119">
        <ele>35.599998474121</ele>
        <time>2016-02-29T21:06:20.000Z</time>
      </trkpt>
      <trkpt lat="48.81828" lon="2.41178">
        <ele>35.599998474121</ele>
        <time>2016-02-29T21:06:22.000Z</time>
      </trkpt>
      <trkpt lat="48.8183" lon="2.41162">
        <ele>35.599998474121</ele>
        <time>2016-02-29T21:06:25.000Z</time>
      </trkpt>
      <trkpt lat="48.8183" lon="2.41156">
        <ele>35.200000762939</ele>
        <time>2016-02-29T21:06:27.000Z</time>
      </trkpt>
      <trkpt lat="48.81824" lon="2.4117">
        <ele>35.799999237061</ele>
        <time>2016-02-29T21:06:36.000Z</time>
      </trkpt>
      <trkpt lat="48.8182" lon="2.41199">
        <ele>35.799999237061</ele>
        <time>2016-02-29T21:06:42.000Z</time>
      </trkpt>
      <trkpt lat="48.81814" lon="2.41228">
        <ele>34.799999237061</ele>
        <time>2016-02-29T21:06:48.000Z</time>
      </trkpt>
      <trkpt lat="48.81803" lon="2.41241">
        <ele>33.599998474121</ele>
        <time>2016-02-29T21:06:56.000Z</time>
      </trkpt>
      <trkpt lat="48.81785" lon="2.41237">
        <ele>33.200000762939</ele>
        <time>2016-02-29T21:07:19.000Z</time>
      </trkpt>
      <trkpt lat="48.81769" lon="2.41224">
        <ele>33.200000762939</ele>
        <time>2016-02-29T21:07:27.000Z</time>
      </trkpt>
      <trkpt lat="48.81768" lon="2.41195">
        <ele>35</ele>
        <time>2016-02-29T21:07:34.000Z</time>
      </trkpt>
      <trkpt lat="48.81773" lon="2.41169">
        <ele>36.799999237061</ele>
        <time>2016-02-29T21:07:39.000Z</time>
      </trkpt>
      <trkpt lat="48.81781" lon="2.41137">
        <ele>35.799999237061</ele>
        <time>2016-02-29T21:07:44.000Z</time>
      </trkpt>
      <trkpt lat="48.81787" lon="2.4111">
        <ele>34.599998474121</ele>
        <time>2016-02-29T21:07:48.000Z</time>
      </trkpt>
      <trkpt lat="48.81792" lon="2.41084">
        <ele>34.200000762939</ele>
        <time>2016-02-29T21:07:52.000Z</time>
      </trkpt>
      <trkpt lat="48.81798" lon="2.41056">
        <ele>33</ele>
        <time>2016-02-29T21:07:56.000Z</time>
      </trkpt>
      <trkpt lat="48.81805" lon="2.41026">
        <ele>32</ele>
        <time>2016-02-29T21:08:00.000Z</time>
      </trkpt>
      <trkpt lat="48.81811" lon="2.40997">
        <ele>32.799999237061</ele>
        <time>2016-02-29T21:08:04.000Z</time>
      </trkpt>
      <trkpt lat="48.81817" lon="2.40976">
        <ele>32.400001525879</ele>
        <time>2016-02-29T21:08:07.000Z</time>
      </trkpt>
      <trkpt lat="48.81823" lon="2.40948">
        <ele>32</ele>
        <time>2016-02-29T21:08:11.000Z</time>
      </trkpt>
      <trkpt lat="48.81828" lon="2.40923">
        <ele>31.39999961853</ele>
        <time>2016-02-29T21:08:15.000Z</time>
      </trkpt>
      <trkpt lat="48.81834" lon="2.40893">
        <ele>32.200000762939</ele>
        <time>2016-02-29T21:08:20.000Z</time>
      </trkpt>
      <trkpt lat="48.81836" lon="2.40888">
        <ele>32.200000762939</ele>
        <time>2016-02-29T21:08:21.000Z</time>
      </trkpt>
      <trkpt lat="48.8184" lon="2.40861">
        <ele>31.60000038147</ele>
        <time>2016-02-29T21:08:26.000Z</time>
      </trkpt>
      <trkpt lat="48.81848" lon="2.40836">
        <ele>31</ele>
        <time>2016-02-29T21:08:31.000Z</time>
      </trkpt>
      <trkpt lat="48.81849" lon="2.40827">
        <ele>31</ele>
        <time>2016-02-29T21:08:33.000Z</time>
      </trkpt>
      <trkpt lat="48.81849" lon="2.40823">
        <ele>31</ele>
        <time>2016-02-29T21:08:34.000Z</time>
      </trkpt>
      <trkpt lat="48.81854" lon="2.40792">
        <ele>32.400001525879</ele>
        <time>2016-02-29T21:08:40.000Z</time>
      </trkpt>
      <trkpt lat="48.81859" lon="2.40761">
        <ele>34</ele>
        <time>2016-02-29T21:08:45.000Z</time>
      </trkpt>
      <trkpt lat="48.81865" lon="2.4073">
        <ele>33.799999237061</ele>
        <time>2016-02-29T21:08:50.000Z</time>
      </trkpt>
      <trkpt lat="48.81874" lon="2.40705">
        <ele>33.200000762939</ele>
        <time>2016-02-29T21:08:54.000Z</time>
      </trkpt>
      <trkpt lat="48.81882" lon="2.4068">
        <ele>32.400001525879</ele>
        <time>2016-02-29T21:08:58.000Z</time>
      </trkpt>
      <trkpt lat="48.8189" lon="2.4065">
        <ele>31.60000038147</ele>
        <time>2016-02-29T21:09:03.000Z</time>
      </trkpt>
      <trkpt lat="48.81897" lon="2.40621">
        <ele>31.799999237061</ele>
        <time>2016-02-29T21:09:08.000Z</time>
      </trkpt>
      <trkpt lat="48.81898" lon="2.40615">
        <ele>31.39999961853</ele>
        <time>2016-02-29T21:09:09.000Z</time>
      </trkpt>
      <trkpt lat="48.81906" lon="2.40587">
        <ele>29.799999237061</ele>
        <time>2016-02-29T21:09:14.000Z</time>
      </trkpt>
      <trkpt lat="48.81915" lon="2.40561">
        <ele>29.200000762939</ele>
        <time>2016-02-29T21:09:19.000Z</time>
      </trkpt>
      <trkpt lat="48.81923" lon="2.40533">
        <ele>29.200000762939</ele>
        <time>2016-02-29T21:09:24.000Z</time>
      </trkpt>
      <trkpt lat="48.81925" lon="2.40524">
        <ele>29.200000762939</ele>
        <time>2016-02-29T21:09:26.000Z</time>
      </trkpt>
      <trkpt lat="48.81927" lon="2.40514">
        <ele>29.200000762939</ele>
        <time>2016-02-29T21:09:28.000Z</time>
      </trkpt>
      <trkpt lat="48.81933" lon="2.40487">
        <ele>29.39999961853</ele>
        <time>2016-02-29T21:09:34.000Z</time>
      </trkpt>
      <trkpt lat="48.8194" lon="2.40459">
        <ele>30.200000762939</ele>
        <time>2016-02-29T21:09:40.000Z</time>
      </trkpt>
      <trkpt lat="48.81941" lon="2.40436">
        <ele>30.799999237061</ele>
        <time>2016-02-29T21:09:46.000Z</time>
      </trkpt>
      <trkpt lat="48.81947" lon="2.40406">
        <ele>32.200000762939</ele>
        <time>2016-02-29T21:09:53.000Z</time>
      </trkpt>
      <trkpt lat="48.81954" lon="2.40381">
        <ele>34.200000762939</ele>
        <time>2016-02-29T21:09:58.000Z</time>
      </trkpt>
      <trkpt lat="48.81961" lon="2.40355">
        <ele>36.200000762939</ele>
        <time>2016-02-29T21:10:02.000Z</time>
      </trkpt>
      <trkpt lat="48.81967" lon="2.40329">
        <ele>35.599998474121</ele>
        <time>2016-02-29T21:10:06.000Z</time>
      </trkpt>
      <trkpt lat="48.81976" lon="2.40302">
        <ele>34.799999237061</ele>
        <time>2016-02-29T21:10:10.000Z</time>
      </trkpt>
      <trkpt lat="48.81984" lon="2.40276">
        <ele>34.200000762939</ele>
        <time>2016-02-29T21:10:14.000Z</time>
      </trkpt>
      <trkpt lat="48.81992" lon="2.40248">
        <ele>33.400001525879</ele>
        <time>2016-02-29T21:10:18.000Z</time>
      </trkpt>
      <trkpt lat="48.81999" lon="2.40221">
        <ele>32.200000762939</ele>
        <time>2016-02-29T21:10:22.000Z</time>
      </trkpt>
      <trkpt lat="48.82007" lon="2.40195">
        <ele>32.400001525879</ele>
        <time>2016-02-29T21:10:26.000Z</time>
      </trkpt>
      <trkpt lat="48.82015" lon="2.40168">
        <ele>32.799999237061</ele>
        <time>2016-02-29T21:10:30.000Z</time>
      </trkpt>
      <trkpt lat="48.82024" lon="2.40139">
        <ele>32.799999237061</ele>
        <time>2016-02-29T21:10:35.000Z</time>
      </trkpt>
      <trkpt lat="48.82034" lon="2.40113">
        <ele>32.799999237061</ele>
        <time>2016-02-29T21:10:40.000Z</time>
      </trkpt>
      <trkpt lat="48.82047" lon="2.40088">
        <ele>32.200000762939</ele>
        <time>2016-02-29T21:10:46.000Z</time>
      </trkpt>
      <trkpt lat="48.82057" lon="2.40064">
        <ele>31.60000038147</ele>
        <time>2016-02-29T21:10:51.000Z</time>
      </trkpt>
      <trkpt lat="48.82062" lon="2.40048">
        <ele>31.200000762939</ele>
        <time>2016-02-29T21:10:54.000Z</time>
      </trkpt>
      <trkpt lat="48.8207" lon="2.40022">
        <ele>30.200000762939</ele>
        <time>2016-02-29T21:10:59.000Z</time>
      </trkpt>
      <trkpt lat="48.82077" lon="2.40001">
        <ele>29.39999961853</ele>
        <time>2016-02-29T21:11:03.000Z</time>
      </trkpt>
      <trkpt lat="48.82087" lon="2.3997">
        <ele>27.60000038147</ele>
        <time>2016-02-29T21:11:08.000Z</time>
      </trkpt>
      <trkpt lat="48.82097" lon="2.39946">
        <ele>27.39999961853</ele>
        <time>2016-02-29T21:11:12.000Z</time>
      </trkpt>
      <trkpt lat="48.82108" lon="2.39918">
        <ele>27.200000762939</ele>
        <time>2016-02-29T21:11:17.000Z</time>
      </trkpt>
      <trkpt lat="48.82116" lon="2.3989">
        <ele>26</ele>
        <time>2016-02-29T21:11:22.000Z</time>
      </trkpt>
      <trkpt lat="48.82124" lon="2.39864">
        <ele>25</ele>
        <time>2016-02-29T21:11:26.000Z</time>
      </trkpt>
      <trkpt lat="48.82135" lon="2.39839">
        <ele>24.39999961853</ele>
        <time>2016-02-29T21:11:30.000Z</time>
      </trkpt>
      <trkpt lat="48.82145" lon="2.39814">
        <ele>25</ele>
        <time>2016-02-29T21:11:34.000Z</time>
      </trkpt>
      <trkpt lat="48.82156" lon="2.3979">
        <ele>26</ele>
        <time>2016-02-29T21:11:38.000Z</time>
      </trkpt>
      <trkpt lat="48.82168" lon="2.39768">
        <ele>26</ele>
        <time>2016-02-29T21:11:42.000Z</time>
      </trkpt>
      <trkpt lat="48.8218" lon="2.39747">
        <ele>26</ele>
        <time>2016-02-29T21:11:46.000Z</time>
      </trkpt>
      <trkpt lat="48.82194" lon="2.39722">
        <ele>26.60000038147</ele>
        <time>2016-02-29T21:11:51.000Z</time>
      </trkpt>
      <trkpt lat="48.82209" lon="2.39697">
        <ele>27.60000038147</ele>
        <time>2016-02-29T21:11:56.000Z</time>
      </trkpt>
      <trkpt lat="48.82221" lon="2.39678">
        <ele>27.60000038147</ele>
        <time>2016-02-29T21:12:00.000Z</time>
      </trkpt>
      <trkpt lat="48.82236" lon="2.39653">
        <ele>27.799999237061</ele>
        <time>2016-02-29T21:12:05.000Z</time>
      </trkpt>
      <trkpt lat="48.82247" lon="2.39632">
        <ele>28</ele>
        <time>2016-02-29T21:12:09.000Z</time>
      </trkpt>
      <trkpt lat="48.82261" lon="2.3961">
        <ele>27.39999961853</ele>
        <time>2016-02-29T21:12:13.000Z</time>
      </trkpt>
      <trkpt lat="48.82274" lon="2.39589">
        <ele>27.200000762939</ele>
        <time>2016-02-29T21:12:17.000Z</time>
      </trkpt>
      <trkpt lat="48.82288" lon="2.39568">
        <ele>28.39999961853</ele>
        <time>2016-02-29T21:12:21.000Z</time>
      </trkpt>
      <trkpt lat="48.823" lon="2.39548">
        <ele>29.60000038147</ele>
        <time>2016-02-29T21:12:25.000Z</time>
      </trkpt>
      <trkpt lat="48.82313" lon="2.39527">
        <ele>30.39999961853</ele>
        <time>2016-02-29T21:12:29.000Z</time>
      </trkpt>
      <trkpt lat="48.82328" lon="2.39507">
        <ele>30.200000762939</ele>
        <time>2016-02-29T21:12:33.000Z</time>
      </trkpt>
      <trkpt lat="48.82342" lon="2.39487">
        <ele>30.799999237061</ele>
        <time>2016-02-29T21:12:37.000Z</time>
      </trkpt>
      <trkpt lat="48.82357" lon="2.39466">
        <ele>30.60000038147</ele>
        <time>2016-02-29T21:12:41.000Z</time>
      </trkpt>
      <trkpt lat="48.82365" lon="2.39455">
        <ele>31.799999237061</ele>
        <time>2016-02-29T21:12:43.000Z</time>
      </trkpt>
      <trkpt lat="48.8238" lon="2.39432">
        <ele>33.200000762939</ele>
        <time>2016-02-29T21:12:47.000Z</time>
      </trkpt>
      <trkpt lat="48.82396" lon="2.39407">
        <ele>32.599998474121</ele>
        <time>2016-02-29T21:12:51.000Z</time>
      </trkpt>
      <trkpt lat="48.824" lon="2.39401">
        <ele>33</ele>
        <time>2016-02-29T21:12:52.000Z</time>
      </trkpt>
      <trkpt lat="48.82416" lon="2.39378">
        <ele>33.200000762939</ele>
        <time>2016-02-29T21:12:56.000Z</time>
      </trkpt>
      <trkpt lat="48.8243" lon="2.39357">
        <ele>31.200000762939</ele>
        <time>2016-02-29T21:13:00.000Z</time>
      </trkpt>
      <trkpt lat="48.82444" lon="2.39338">
        <ele>29.799999237061</ele>
        <time>2016-02-29T21:13:04.000Z</time>
      </trkpt>
      <trkpt lat="48.8246" lon="2.39315">
        <ele>30.200000762939</ele>
        <time>2016-02-29T21:13:09.000Z</time>
      </trkpt>
      <trkpt lat="48.82476" lon="2.39293">
        <ele>30.799999237061</ele>
        <time>2016-02-29T21:13:14.000Z</time>
      </trkpt>
      <trkpt lat="48.8249" lon="2.39268">
        <ele>28.39999961853</ele>
        <time>2016-02-29T21:13:19.000Z</time>
      </trkpt>
      <trkpt lat="48.82493" lon="2.39262">
        <ele>27.60000038147</ele>
        <time>2016-02-29T21:13:20.000Z</time>
      </trkpt>
      <trkpt lat="48.82505" lon="2.39241">
        <ele>26</ele>
        <time>2016-02-29T21:13:24.000Z</time>
      </trkpt>
      <trkpt lat="48.82516" lon="2.39226">
        <ele>25.60000038147</ele>
        <time>2016-02-29T21:13:27.000Z</time>
      </trkpt>
      <trkpt lat="48.82529" lon="2.39206">
        <ele>25.39999961853</ele>
        <time>2016-02-29T21:13:31.000Z</time>
      </trkpt>
      <trkpt lat="48.82544" lon="2.39183">
        <ele>25.39999961853</ele>
        <time>2016-02-29T21:13:36.000Z</time>
      </trkpt>
      <trkpt lat="48.82558" lon="2.39164">
        <ele>24.39999961853</ele>
        <time>2016-02-29T21:13:41.000Z</time>
      </trkpt>
      <trkpt lat="48.82564" lon="2.39155">
        <ele>24.799999237061</ele>
        <time>2016-02-29T21:13:44.000Z</time>
      </trkpt>
      <trkpt lat="48.8257" lon="2.39146">
        <ele>25.200000762939</ele>
        <time>2016-02-29T21:13:48.000Z</time>
      </trkpt>
      <trkpt lat="48.82584" lon="2.39122">
        <ele>26.60000038147</ele>
        <time>2016-02-29T21:13:56.000Z</time>
      </trkpt>
      <trkpt lat="48.82586" lon="2.39119">
        <ele>26.799999237061</ele>
        <time>2016-02-29T21:13:57.000Z</time>
      </trkpt>
      <trkpt lat="48.82602" lon="2.391">
        <ele>28</ele>
        <time>2016-02-29T21:14:04.000Z</time>
      </trkpt>
      <trkpt lat="48.82609" lon="2.39091">
        <ele>28.799999237061</ele>
        <time>2016-02-29T21:14:07.000Z</time>
      </trkpt>
      <trkpt lat="48.82623" lon="2.39072">
        <ele>28.39999961853</ele>
        <time>2016-02-29T21:14:14.000Z</time>
      </trkpt>
      <trkpt lat="48.82638" lon="2.39052">
        <ele>26.200000762939</ele>
        <time>2016-02-29T21:14:21.000Z</time>
      </trkpt>
      <trkpt lat="48.82653" lon="2.3903">
        <ele>26</ele>
        <time>2016-02-29T21:14:28.000Z</time>
      </trkpt>
      <trkpt lat="48.82668" lon="2.3901">
        <ele>28.60000038147</ele>
        <time>2016-02-29T21:14:33.000Z</time>
      </trkpt>
      <trkpt lat="48.82683" lon="2.3899">
        <ele>31.39999961853</ele>
        <time>2016-02-29T21:14:38.000Z</time>
      </trkpt>
      <trkpt lat="48.827" lon="2.38975">
        <ele>31</ele>
        <time>2016-02-29T21:14:42.000Z</time>
      </trkpt>
      <trkpt lat="48.82716" lon="2.38955">
        <ele>29.799999237061</ele>
        <time>2016-02-29T21:14:47.000Z</time>
      </trkpt>
      <trkpt lat="48.82731" lon="2.38935">
        <ele>29.200000762939</ele>
        <time>2016-02-29T21:14:52.000Z</time>
      </trkpt>
      <trkpt lat="48.82745" lon="2.38912">
        <ele>28.799999237061</ele>
        <time>2016-02-29T21:14:58.000Z</time>
      </trkpt>
      <trkpt lat="48.8276" lon="2.38892">
        <ele>28.60000038147</ele>
        <time>2016-02-29T21:15:05.000Z</time>
      </trkpt>
      <trkpt lat="48.82775" lon="2.38873">
        <ele>31.200000762939</ele>
        <time>2016-02-29T21:15:11.000Z</time>
      </trkpt>
      <trkpt lat="48.82792" lon="2.38853">
        <ele>33</ele>
        <time>2016-02-29T21:15:16.000Z</time>
      </trkpt>
      <trkpt lat="48.82805" lon="2.38829">
        <ele>32.200000762939</ele>
        <time>2016-02-29T21:15:21.000Z</time>
      </trkpt>
      <trkpt lat="48.82819" lon="2.38806">
        <ele>30.60000038147</ele>
        <time>2016-02-29T21:15:26.000Z</time>
      </trkpt>
      <trkpt lat="48.82837" lon="2.38786">
        <ele>29.60000038147</ele>
        <time>2016-02-29T21:15:30.000Z</time>
      </trkpt>
      <trkpt lat="48.82855" lon="2.38768">
        <ele>29.200000762939</ele>
        <time>2016-02-29T21:15:34.000Z</time>
      </trkpt>
      <trkpt lat="48.82873" lon="2.38753">
        <ele>30.200000762939</ele>
        <time>2016-02-29T21:15:39.000Z</time>
      </trkpt>
      <trkpt lat="48.8289" lon="2.38739">
        <ele>31.200000762939</ele>
        <time>2016-02-29T21:15:44.000Z</time>
      </trkpt>
      <trkpt lat="48.82905" lon="2.38724">
        <ele>31.799999237061</ele>
        <time>2016-02-29T21:15:49.000Z</time>
      </trkpt>
      <trkpt lat="48.82912" lon="2.38719">
        <ele>32</ele>
        <time>2016-02-29T21:15:51.000Z</time>
      </trkpt>
      <trkpt lat="48.82931" lon="2.38711">
        <ele>32.799999237061</ele>
        <time>2016-02-29T21:15:56.000Z</time>
      </trkpt>
      <trkpt lat="48.82947" lon="2.38698">
        <ele>33.400001525879</ele>
        <time>2016-02-29T21:16:01.000Z</time>
      </trkpt>
      <trkpt lat="48.82966" lon="2.38683">
        <ele>34.200000762939</ele>
        <time>2016-02-29T21:16:06.000Z</time>
      </trkpt>
      <trkpt lat="48.82982" lon="2.38668">
        <ele>34.799999237061</ele>
        <time>2016-02-29T21:16:11.000Z</time>
      </trkpt>
      <trkpt lat="48.82998" lon="2.3865">
        <ele>37.200000762939</ele>
        <time>2016-02-29T21:16:17.000Z</time>
      </trkpt>
      <trkpt lat="48.83012" lon="2.38632">
        <ele>39.400001525879</ele>
        <time>2016-02-29T21:16:24.000Z</time>
      </trkpt>
      <trkpt lat="48.83027" lon="2.38611">
        <ele>41.599998474121</ele>
        <time>2016-02-29T21:16:32.000Z</time>
      </trkpt>
      <trkpt lat="48.83039" lon="2.386">
        <ele>43.400001525879</ele>
        <time>2016-02-29T21:16:42.000Z</time>
      </trkpt>
      <trkpt lat="48.83055" lon="2.38582">
        <ele>39.200000762939</ele>
        <time>2016-02-29T21:17:09.000Z</time>
      </trkpt>
      <trkpt lat="48.83071" lon="2.38563">
        <ele>37</ele>
        <time>2016-02-29T21:17:18.000Z</time>
      </trkpt>
      <trkpt lat="48.83085" lon="2.38545">
        <ele>34.400001525879</ele>
        <time>2016-02-29T21:17:23.000Z</time>
      </trkpt>
      <trkpt lat="48.83098" lon="2.38522">
        <ele>30.60000038147</ele>
        <time>2016-02-29T21:17:29.000Z</time>
      </trkpt>
      <trkpt lat="48.83115" lon="2.38503">
        <ele>28.60000038147</ele>
        <time>2016-02-29T21:17:35.000Z</time>
      </trkpt>
      <trkpt lat="48.83129" lon="2.38486">
        <ele>30.799999237061</ele>
        <time>2016-02-29T21:17:40.000Z</time>
      </trkpt>
      <trkpt lat="48.83144" lon="2.38467">
        <ele>34</ele>
        <time>2016-02-29T21:17:44.000Z</time>
      </trkpt>
      <trkpt lat="48.83161" lon="2.38448">
        <ele>33.599998474121</ele>
        <time>2016-02-29T21:17:49.000Z</time>
      </trkpt>
      <trkpt lat="48.83175" lon="2.38429">
        <ele>31.200000762939</ele>
        <time>2016-02-29T21:17:53.000Z</time>
      </trkpt>
      <trkpt lat="48.83189" lon="2.38411">
        <ele>28.799999237061</ele>
        <time>2016-02-29T21:17:57.000Z</time>
      </trkpt>
      <trkpt lat="48.83206" lon="2.38391">
        <ele>28.799999237061</ele>
        <time>2016-02-29T21:18:02.000Z</time>
      </trkpt>
      <trkpt lat="48.8322" lon="2.38374">
        <ele>28.60000038147</ele>
        <time>2016-02-29T21:18:06.000Z</time>
      </trkpt>
      <trkpt lat="48.83236" lon="2.38352">
        <ele>29</ele>
        <time>2016-02-29T21:18:11.000Z</time>
      </trkpt>
      <trkpt lat="48.83251" lon="2.3833">
        <ele>29.799999237061</ele>
        <time>2016-02-29T21:18:16.000Z</time>
      </trkpt>
      <trkpt lat="48.83256" lon="2.38323">
        <ele>30.200000762939</ele>
        <time>2016-02-29T21:18:18.000Z</time>
      </trkpt>
      <trkpt lat="48.83271" lon="2.38302">
        <ele>32.599998474121</ele>
        <time>2016-02-29T21:18:23.000Z</time>
      </trkpt>
      <trkpt lat="48.83279" lon="2.38289">
        <ele>33.599998474121</ele>
        <time>2016-02-29T21:18:26.000Z</time>
      </trkpt>
      <trkpt lat="48.83294" lon="2.38272">
        <ele>34.799999237061</ele>
        <time>2016-02-29T21:18:31.000Z</time>
      </trkpt>
      <trkpt lat="48.833" lon="2.38265">
        <ele>34.599998474121</ele>
        <time>2016-02-29T21:18:33.000Z</time>
      </trkpt>
      <trkpt lat="48.83314" lon="2.38246">
        <ele>33.599998474121</ele>
        <time>2016-02-29T21:18:39.000Z</time>
      </trkpt>
      <trkpt lat="48.83331" lon="2.38228">
        <ele>33</ele>
        <time>2016-02-29T21:18:46.000Z</time>
      </trkpt>
      <trkpt lat="48.83346" lon="2.38213">
        <ele>31</ele>
        <time>2016-02-29T21:18:58.000Z</time>
      </trkpt>
      <trkpt lat="48.8336" lon="2.38194">
        <ele>29.39999961853</ele>
        <time>2016-02-29T21:19:06.000Z</time>
      </trkpt>
      <trkpt lat="48.83376" lon="2.38175">
        <ele>30</ele>
        <time>2016-02-29T21:19:12.000Z</time>
      </trkpt>
      <trkpt lat="48.83391" lon="2.38158">
        <ele>30.60000038147</ele>
        <time>2016-02-29T21:19:17.000Z</time>
      </trkpt>
      <trkpt lat="48.83405" lon="2.38138">
        <ele>31.60000038147</ele>
        <time>2016-02-29T21:19:22.000Z</time>
      </trkpt>
      <trkpt lat="48.83418" lon="2.3812">
        <ele>31.39999961853</ele>
        <time>2016-02-29T21:19:27.000Z</time>
      </trkpt>
      <trkpt lat="48.83434" lon="2.38098">
        <ele>30.60000038147</ele>
        <time>2016-02-29T21:19:33.000Z</time>
      </trkpt>
      <trkpt lat="48.8345" lon="2.38077">
        <ele>32.400001525879</ele>
        <time>2016-02-29T21:19:39.000Z</time>
      </trkpt>
      <trkpt lat="48.83465" lon="2.3806">
        <ele>37.400001525879</ele>
        <time>2016-02-29T21:19:45.000Z</time>
      </trkpt>
      <trkpt lat="48.83481" lon="2.38041">
        <ele>43</ele>
        <time>2016-02-29T21:19:51.000Z</time>
      </trkpt>
      <trkpt lat="48.83497" lon="2.38019">
        <ele>44.400001525879</ele>
        <time>2016-02-29T21:19:57.000Z</time>
      </trkpt>
      <trkpt lat="48.83512" lon="2.37998">
        <ele>45.799999237061</ele>
        <time>2016-02-29T21:20:03.000Z</time>
      </trkpt>
      <trkpt lat="48.83526" lon="2.37979">
        <ele>46</ele>
        <time>2016-02-29T21:20:09.000Z</time>
      </trkpt>
      <trkpt lat="48.8354" lon="2.37962">
        <ele>45.599998474121</ele>
        <time>2016-02-29T21:20:14.000Z</time>
      </trkpt>
      <trkpt lat="48.83556" lon="2.37942">
        <ele>45.200000762939</ele>
        <time>2016-02-29T21:20:20.000Z</time>
      </trkpt>
      <trkpt lat="48.83571" lon="2.37926">
        <ele>45.200000762939</ele>
        <time>2016-02-29T21:20:25.000Z</time>
      </trkpt>
      <trkpt lat="48.83586" lon="2.37909">
        <ele>44.799999237061</ele>
        <time>2016-02-29T21:20:31.000Z</time>
      </trkpt>
      <trkpt lat="48.836" lon="2.3789">
        <ele>42.200000762939</ele>
        <time>2016-02-29T21:20:37.000Z</time>
      </trkpt>
      <trkpt lat="48.83616" lon="2.37872">
        <ele>39.400001525879</ele>
        <time>2016-02-29T21:20:43.000Z</time>
      </trkpt>
      <trkpt lat="48.83631" lon="2.37852">
        <ele>36.799999237061</ele>
        <time>2016-02-29T21:20:49.000Z</time>
      </trkpt>
      <trkpt lat="48.83645" lon="2.37835">
        <ele>36.599998474121</ele>
        <time>2016-02-29T21:20:55.000Z</time>
      </trkpt>
      <trkpt lat="48.83662" lon="2.37815">
        <ele>37.200000762939</ele>
        <time>2016-02-29T21:21:01.000Z</time>
      </trkpt>
      <trkpt lat="48.83677" lon="2.37799">
        <ele>37.200000762939</ele>
        <time>2016-02-29T21:21:06.000Z</time>
      </trkpt>
      <trkpt lat="48.83692" lon="2.3778">
        <ele>36.400001525879</ele>
        <time>2016-02-29T21:21:12.000Z</time>
      </trkpt>
      <trkpt lat="48.83707" lon="2.37762">
        <ele>35.400001525879</ele>
        <time>2016-02-29T21:21:18.000Z</time>
      </trkpt>
      <trkpt lat="48.83722" lon="2.37744">
        <ele>37.599998474121</ele>
        <time>2016-02-29T21:21:23.000Z</time>
      </trkpt>
      <trkpt lat="48.83739" lon="2.37723">
        <ele>39.599998474121</ele>
        <time>2016-02-29T21:21:28.000Z</time>
      </trkpt>
      <trkpt lat="48.83752" lon="2.37703">
        <ele>38.400001525879</ele>
        <time>2016-02-29T21:21:31.000Z</time>
      </trkpt>
      <trkpt lat="48.83767" lon="2.37683">
        <ele>36.400001525879</ele>
        <time>2016-02-29T21:21:35.000Z</time>
      </trkpt>
      <trkpt lat="48.83784" lon="2.37663">
        <ele>35.599998474121</ele>
        <time>2016-02-29T21:21:40.000Z</time>
      </trkpt>
      <trkpt lat="48.83799" lon="2.37643">
        <ele>36</ele>
        <time>2016-02-29T21:21:45.000Z</time>
      </trkpt>
      <trkpt lat="48.83814" lon="2.37625">
        <ele>36.599998474121</ele>
        <time>2016-02-29T21:21:50.000Z</time>
      </trkpt>
      <trkpt lat="48.83829" lon="2.37605">
        <ele>36.200000762939</ele>
        <time>2016-02-29T21:21:57.000Z</time>
      </trkpt>
      <trkpt lat="48.83839" lon="2.37594">
        <ele>36</ele>
        <time>2016-02-29T21:22:06.000Z</time>
      </trkpt>
      <trkpt lat="48.83839" lon="2.37588">
        <ele>35.799999237061</ele>
        <time>2016-02-29T21:22:10.000Z</time>
      </trkpt>
      <trkpt lat="48.83855" lon="2.37579">
        <ele>36</ele>
        <time>2016-02-29T21:22:37.000Z</time>
      </trkpt>
      <trkpt lat="48.83856" lon="2.37573">
        <ele>36.200000762939</ele>
        <time>2016-02-29T21:22:40.000Z</time>
      </trkpt>
      <trkpt lat="48.83858" lon="2.37566">
        <ele>36.400001525879</ele>
        <time>2016-02-29T21:22:47.000Z</time>
      </trkpt>
      <trkpt lat="48.83865" lon="2.37565">
        <ele>36.799999237061</ele>
        <time>2016-02-29T21:22:57.000Z</time>
      </trkpt>
      <trkpt lat="48.83882" lon="2.37582">
        <ele>37.599998474121</ele>
        <time>2016-02-29T21:23:05.000Z</time>
      </trkpt>
      <trkpt lat="48.839" lon="2.37592">
        <ele>39</ele>
        <time>2016-02-29T21:23:12.000Z</time>
      </trkpt>
      <trkpt lat="48.83902" lon="2.3759">
        <ele>39</ele>
        <time>2016-02-29T21:23:13.000Z</time>
      </trkpt>
      <trkpt lat="48.83917" lon="2.37573">
        <ele>39.799999237061</ele>
        <time>2016-02-29T21:23:17.000Z</time>
      </trkpt>
      <trkpt lat="48.83933" lon="2.37555">
        <ele>38.400001525879</ele>
        <time>2016-02-29T21:23:21.000Z</time>
      </trkpt>
      <trkpt lat="48.8395" lon="2.37537">
        <ele>35.400001525879</ele>
        <time>2016-02-29T21:23:25.000Z</time>
      </trkpt>
      <trkpt lat="48.83969" lon="2.37516">
        <ele>33.599998474121</ele>
        <time>2016-02-29T21:23:29.000Z</time>
      </trkpt>
      <trkpt lat="48.83987" lon="2.37496">
        <ele>35</ele>
        <time>2016-02-29T21:23:33.000Z</time>
      </trkpt>
      <trkpt lat="48.84006" lon="2.37474">
        <ele>35.799999237061</ele>
        <time>2016-02-29T21:23:37.000Z</time>
      </trkpt>
      <trkpt lat="48.84011" lon="2.37469">
        <ele>36</ele>
        <time>2016-02-29T21:23:38.000Z</time>
      </trkpt>
      <trkpt lat="48.84027" lon="2.37456">
        <ele>36.200000762939</ele>
        <time>2016-02-29T21:23:41.000Z</time>
      </trkpt>
      <trkpt lat="48.84039" lon="2.37442">
        <ele>36.599998474121</ele>
        <time>2016-02-29T21:23:44.000Z</time>
      </trkpt>
      <trkpt lat="48.84054" lon="2.37425">
        <ele>36.200000762939</ele>
        <time>2016-02-29T21:23:48.000Z</time>
      </trkpt>
      <trkpt lat="48.84057" lon="2.37421">
        <ele>36.200000762939</ele>
        <time>2016-02-29T21:23:49.000Z</time>
      </trkpt>
      <trkpt lat="48.84064" lon="2.37412">
        <ele>36</ele>
        <time>2016-02-29T21:23:51.000Z</time>
      </trkpt>
      <trkpt lat="48.84078" lon="2.37403">
        <ele>36.200000762939</ele>
        <time>2016-02-29T21:23:55.000Z</time>
      </trkpt>
      <trkpt lat="48.84095" lon="2.37386">
        <ele>36.200000762939</ele>
        <time>2016-02-29T21:23:59.000Z</time>
      </trkpt>
      <trkpt lat="48.84113" lon="2.37366">
        <ele>35.799999237061</ele>
        <time>2016-02-29T21:24:03.000Z</time>
      </trkpt>
      <trkpt lat="48.84128" lon="2.37349">
        <ele>35.200000762939</ele>
        <time>2016-02-29T21:24:06.000Z</time>
      </trkpt>
      <trkpt lat="48.84144" lon="2.37332">
        <ele>35.799999237061</ele>
        <time>2016-02-29T21:24:09.000Z</time>
      </trkpt>
      <trkpt lat="48.8416" lon="2.37314">
        <ele>35.599998474121</ele>
        <time>2016-02-29T21:24:12.000Z</time>
      </trkpt>
      <trkpt lat="48.84175" lon="2.37295">
        <ele>35.400001525879</ele>
        <time>2016-02-29T21:24:15.000Z</time>
      </trkpt>
      <trkpt lat="48.84191" lon="2.37276">
        <ele>35.400001525879</ele>
        <time>2016-02-29T21:24:18.000Z</time>
      </trkpt>
      <trkpt lat="48.84195" lon="2.3727">
        <ele>35.400001525879</ele>
        <time>2016-02-29T21:24:19.000Z</time>
      </trkpt>
      <trkpt lat="48.8421" lon="2.37248">
        <ele>36.200000762939</ele>
        <time>2016-02-29T21:24:23.000Z</time>
      </trkpt>
      <trkpt lat="48.84226" lon="2.37222">
        <ele>37</ele>
        <time>2016-02-29T21:24:27.000Z</time>
      </trkpt>
      <trkpt lat="48.84242" lon="2.37203">
        <ele>38.200000762939</ele>
        <time>2016-02-29T21:24:31.000Z</time>
      </trkpt>
      <trkpt lat="48.84259" lon="2.37188">
        <ele>39.400001525879</ele>
        <time>2016-02-29T21:24:34.000Z</time>
      </trkpt>
      <trkpt lat="48.84274" lon="2.3717">
        <ele>40.200000762939</ele>
        <time>2016-02-29T21:24:38.000Z</time>
      </trkpt>
      <trkpt lat="48.84286" lon="2.37161">
        <ele>40</ele>
        <time>2016-02-29T21:24:41.000Z</time>
      </trkpt>
      <trkpt lat="48.84301" lon="2.37146">
        <ele>38.799999237061</ele>
        <time>2016-02-29T21:24:46.000Z</time>
      </trkpt>
      <trkpt lat="48.84308" lon="2.37132">
        <ele>37.400001525879</ele>
        <time>2016-02-29T21:24:50.000Z</time>
      </trkpt>
      <trkpt lat="48.84323" lon="2.37113">
        <ele>37.200000762939</ele>
        <time>2016-02-29T21:24:55.000Z</time>
      </trkpt>
      <trkpt lat="48.84331" lon="2.37105">
        <ele>38</ele>
        <time>2016-02-29T21:24:59.000Z</time>
      </trkpt>
      <trkpt lat="48.84333" lon="2.37103">
        <ele>38</ele>
        <time>2016-02-29T21:25:00.000Z</time>
      </trkpt>
      <trkpt lat="48.84347" lon="2.37085">
        <ele>39</ele>
        <time>2016-02-29T21:25:44.000Z</time>
      </trkpt>
      <trkpt lat="48.84357" lon="2.37069">
        <ele>39.400001525879</ele>
        <time>2016-02-29T21:25:49.000Z</time>
      </trkpt>
      <trkpt lat="48.84375" lon="2.37061">
        <ele>38.400001525879</ele>
        <time>2016-02-29T21:25:54.000Z</time>
      </trkpt>
      <trkpt lat="48.84391" lon="2.37041">
        <ele>36.799999237061</ele>
        <time>2016-02-29T21:26:00.000Z</time>
      </trkpt>
      <trkpt lat="48.84409" lon="2.37029">
        <ele>36</ele>
        <time>2016-02-29T21:26:05.000Z</time>
      </trkpt>
      <trkpt lat="48.84427" lon="2.37012">
        <ele>35.400001525879</ele>
        <time>2016-02-29T21:26:10.000Z</time>
      </trkpt>
      <trkpt lat="48.84442" lon="2.3699">
        <ele>35</ele>
        <time>2016-02-29T21:26:15.000Z</time>
      </trkpt>
      <trkpt lat="48.84453" lon="2.36967">
        <ele>35.200000762939</ele>
        <time>2016-02-29T21:26:19.000Z</time>
      </trkpt>
      <trkpt lat="48.84461" lon="2.36938">
        <ele>35</ele>
        <time>2016-02-29T21:26:23.000Z</time>
      </trkpt>
      <trkpt lat="48.84472" lon="2.36915">
        <ele>36.400001525879</ele>
        <time>2016-02-29T21:26:26.000Z</time>
      </trkpt>
      <trkpt lat="48.84488" lon="2.36894">
        <ele>36.799999237061</ele>
        <time>2016-02-29T21:26:29.000Z</time>
      </trkpt>
      <trkpt lat="48.84499" lon="2.36879">
        <ele>38</ele>
        <time>2016-02-29T21:26:32.000Z</time>
      </trkpt>
      <trkpt lat="48.84511" lon="2.36876">
        <ele>40</ele>
        <time>2016-02-29T21:26:35.000Z</time>
      </trkpt>
      <trkpt lat="48.84515" lon="2.3687">
        <ele>41</ele>
        <time>2016-02-29T21:26:37.000Z</time>
      </trkpt>
      <trkpt lat="48.84528" lon="2.3685">
        <ele>43.200000762939</ele>
        <time>2016-02-29T21:26:41.000Z</time>
      </trkpt>
      <trkpt lat="48.8453" lon="2.36845">
        <ele>43.599998474121</ele>
        <time>2016-02-29T21:26:42.000Z</time>
      </trkpt>
      <trkpt lat="48.84544" lon="2.36826">
        <ele>44.200000762939</ele>
        <time>2016-02-29T21:26:46.000Z</time>
      </trkpt>
      <trkpt lat="48.84557" lon="2.36807">
        <ele>43.400001525879</ele>
        <time>2016-02-29T21:26:50.000Z</time>
      </trkpt>
      <trkpt lat="48.84571" lon="2.36785">
        <ele>43</ele>
        <time>2016-02-29T21:26:56.000Z</time>
      </trkpt>
      <trkpt lat="48.84577" lon="2.36781">
        <ele>43.400001525879</ele>
        <time>2016-02-29T21:26:58.000Z</time>
      </trkpt>
      <trkpt lat="48.84585" lon="2.36772">
        <ele>43.799999237061</ele>
        <time>2016-02-29T21:27:01.000Z</time>
      </trkpt>
      <trkpt lat="48.84601" lon="2.36751">
        <ele>44.799999237061</ele>
        <time>2016-02-29T21:27:06.000Z</time>
      </trkpt>
      <trkpt lat="48.84616" lon="2.36733">
        <ele>43.200000762939</ele>
        <time>2016-02-29T21:27:10.000Z</time>
      </trkpt>
      <trkpt lat="48.84629" lon="2.36717">
        <ele>41.200000762939</ele>
        <time>2016-02-29T21:27:14.000Z</time>
      </trkpt>
      <trkpt lat="48.84639" lon="2.36709">
        <ele>40</ele>
        <time>2016-02-29T21:27:17.000Z</time>
      </trkpt>
      <trkpt lat="48.84654" lon="2.36692">
        <ele>38.799999237061</ele>
        <time>2016-02-29T21:27:22.000Z</time>
      </trkpt>
      <trkpt lat="48.84669" lon="2.36674">
        <ele>38</ele>
        <time>2016-02-29T21:27:27.000Z</time>
      </trkpt>
      <trkpt lat="48.84683" lon="2.36655">
        <ele>37.200000762939</ele>
        <time>2016-02-29T21:27:32.000Z</time>
      </trkpt>
      <trkpt lat="48.84699" lon="2.36633">
        <ele>34.799999237061</ele>
        <time>2016-02-29T21:27:37.000Z</time>
      </trkpt>
      <trkpt lat="48.84714" lon="2.36609">
        <ele>31</ele>
        <time>2016-02-29T21:27:41.000Z</time>
      </trkpt>
      <trkpt lat="48.84729" lon="2.36586">
        <ele>31.39999961853</ele>
        <time>2016-02-29T21:27:46.000Z</time>
      </trkpt>
      <trkpt lat="48.84741" lon="2.36568">
        <ele>31.200000762939</ele>
        <time>2016-02-29T21:27:52.000Z</time>
      </trkpt>
      <trkpt lat="48.8475" lon="2.36554">
        <ele>31.60000038147</ele>
        <time>2016-02-29T21:28:19.000Z</time>
      </trkpt>
      <trkpt lat="48.84766" lon="2.36532">
        <ele>36</ele>
        <time>2016-02-29T21:28:24.000Z</time>
      </trkpt>
      <trkpt lat="48.84783" lon="2.36517">
        <ele>40.200000762939</ele>
        <time>2016-02-29T21:28:29.000Z</time>
      </trkpt>
      <trkpt lat="48.848" lon="2.36504">
        <ele>41.599998474121</ele>
        <time>2016-02-29T21:28:34.000Z</time>
      </trkpt>
      <trkpt lat="48.84818" lon="2.36506">
        <ele>42</ele>
        <time>2016-02-29T21:28:38.000Z</time>
      </trkpt>
      <trkpt lat="48.8484" lon="2.36501">
        <ele>42.599998474121</ele>
        <time>2016-02-29T21:28:43.000Z</time>
      </trkpt>
      <trkpt lat="48.84862" lon="2.36494">
        <ele>42.799999237061</ele>
        <time>2016-02-29T21:28:47.000Z</time>
      </trkpt>
      <trkpt lat="48.84873" lon="2.36486">
        <ele>42.599998474121</ele>
        <time>2016-02-29T21:28:49.000Z</time>
      </trkpt>
      <trkpt lat="48.84891" lon="2.36466">
        <ele>41.799999237061</ele>
        <time>2016-02-29T21:28:52.000Z</time>
      </trkpt>
      <trkpt lat="48.84907" lon="2.36448">
        <ele>41.200000762939</ele>
        <time>2016-02-29T21:28:55.000Z</time>
      </trkpt>
      <trkpt lat="48.84925" lon="2.36434">
        <ele>40.599998474121</ele>
        <time>2016-02-29T21:28:58.000Z</time>
      </trkpt>
      <trkpt lat="48.84946" lon="2.36418">
        <ele>40</ele>
        <time>2016-02-29T21:29:01.000Z</time>
      </trkpt>
      <trkpt lat="48.84965" lon="2.36396">
        <ele>39.599998474121</ele>
        <time>2016-02-29T21:29:04.000Z</time>
      </trkpt>
      <trkpt lat="48.84981" lon="2.36377">
        <ele>39.400001525879</ele>
        <time>2016-02-29T21:29:07.000Z</time>
      </trkpt>
      <trkpt lat="48.84995" lon="2.36358">
        <ele>38</ele>
        <time>2016-02-29T21:29:09.000Z</time>
      </trkpt>
      <trkpt lat="48.85011" lon="2.36337">
        <ele>36</ele>
        <time>2016-02-29T21:29:12.000Z</time>
      </trkpt>
      <trkpt lat="48.85027" lon="2.3632">
        <ele>35.400001525879</ele>
        <time>2016-02-29T21:29:15.000Z</time>
      </trkpt>
      <trkpt lat="48.85042" lon="2.36302">
        <ele>36.200000762939</ele>
        <time>2016-02-29T21:29:18.000Z</time>
      </trkpt>
      <trkpt lat="48.85057" lon="2.36282">
        <ele>37.200000762939</ele>
        <time>2016-02-29T21:29:21.000Z</time>
      </trkpt>
      <trkpt lat="48.85071" lon="2.36261">
        <ele>37.400001525879</ele>
        <time>2016-02-29T21:29:24.000Z</time>
      </trkpt>
      <trkpt lat="48.85088" lon="2.36238">
        <ele>37.799999237061</ele>
        <time>2016-02-29T21:29:28.000Z</time>
      </trkpt>
      <trkpt lat="48.85098" lon="2.36228">
        <ele>37.599998474121</ele>
        <time>2016-02-29T21:29:31.000Z</time>
      </trkpt>
      <trkpt lat="48.85111" lon="2.36249">
        <ele>38.200000762939</ele>
        <time>2016-02-29T21:29:38.000Z</time>
      </trkpt>
      <trkpt lat="48.85111" lon="2.36252">
        <ele>38.400001525879</ele>
        <time>2016-02-29T21:29:39.000Z</time>
      </trkpt>
      <trkpt lat="48.85121" lon="2.36246">
        <ele>38.400001525879</ele>
        <time>2016-02-29T21:30:19.000Z</time>
      </trkpt>
      <trkpt lat="48.85135" lon="2.36227">
        <ele>38.400001525879</ele>
        <time>2016-02-29T21:30:24.000Z</time>
      </trkpt>
      <trkpt lat="48.85148" lon="2.36208">
        <ele>38</ele>
        <time>2016-02-29T21:30:28.000Z</time>
      </trkpt>
      <trkpt lat="48.85163" lon="2.36184">
        <ele>40</ele>
        <time>2016-02-29T21:30:32.000Z</time>
      </trkpt>
      <trkpt lat="48.85178" lon="2.36161">
        <ele>42</ele>
        <time>2016-02-29T21:30:36.000Z</time>
      </trkpt>
      <trkpt lat="48.85193" lon="2.36138">
        <ele>42.200000762939</ele>
        <time>2016-02-29T21:30:40.000Z</time>
      </trkpt>
      <trkpt lat="48.85205" lon="2.36118">
        <ele>41.599998474121</ele>
        <time>2016-02-29T21:30:43.000Z</time>
      </trkpt>
      <trkpt lat="48.85218" lon="2.36098">
        <ele>41</ele>
        <time>2016-02-29T21:30:46.000Z</time>
      </trkpt>
      <trkpt lat="48.85233" lon="2.36071">
        <ele>40</ele>
        <time>2016-02-29T21:30:50.000Z</time>
      </trkpt>
      <trkpt lat="48.85236" lon="2.36063">
        <ele>39.599998474121</ele>
        <time>2016-02-29T21:30:51.000Z</time>
      </trkpt>
      <trkpt lat="48.85245" lon="2.36029">
        <ele>38.799999237061</ele>
        <time>2016-02-29T21:30:55.000Z</time>
      </trkpt>
      <trkpt lat="48.85254" lon="2.36003">
        <ele>38.400001525879</ele>
        <time>2016-02-29T21:30:58.000Z</time>
      </trkpt>
      <trkpt lat="48.8526" lon="2.35986">
        <ele>39.599998474121</ele>
        <time>2016-02-29T21:31:00.000Z</time>
      </trkpt>
      <trkpt lat="48.85271" lon="2.3596">
        <ele>38.200000762939</ele>
        <time>2016-02-29T21:31:03.000Z</time>
      </trkpt>
      <trkpt lat="48.85281" lon="2.35933">
        <ele>37.400001525879</ele>
        <time>2016-02-29T21:31:06.000Z</time>
      </trkpt>
      <trkpt lat="48.85292" lon="2.35906">
        <ele>36.799999237061</ele>
        <time>2016-02-29T21:31:09.000Z</time>
      </trkpt>
      <trkpt lat="48.85304" lon="2.35878">
        <ele>36.599998474121</ele>
        <time>2016-02-29T21:31:13.000Z</time>
      </trkpt>
      <trkpt lat="48.85315" lon="2.3585">
        <ele>36.599998474121</ele>
        <time>2016-02-29T21:31:18.000Z</time>
      </trkpt>
      <trkpt lat="48.85325" lon="2.35823">
        <ele>36.799999237061</ele>
        <time>2016-02-29T21:31:24.000Z</time>
      </trkpt>
      <trkpt lat="48.85331" lon="2.35795">
        <ele>37.400001525879</ele>
        <time>2016-02-29T21:31:32.000Z</time>
      </trkpt>
      <trkpt lat="48.8534" lon="2.35769">
        <ele>37.799999237061</ele>
        <time>2016-02-29T21:31:52.000Z</time>
      </trkpt>
      <trkpt lat="48.8535" lon="2.35739">
        <ele>38.599998474121</ele>
        <time>2016-02-29T21:31:58.000Z</time>
      </trkpt>
      <trkpt lat="48.8536" lon="2.35712">
        <ele>38.599998474121</ele>
        <time>2016-02-29T21:32:02.000Z</time>
      </trkpt>
      <trkpt lat="48.85369" lon="2.35682">
        <ele>39.200000762939</ele>
        <time>2016-02-29T21:32:06.000Z</time>
      </trkpt>
      <trkpt lat="48.85377" lon="2.35657">
        <ele>39</ele>
        <time>2016-02-29T21:32:09.000Z</time>
      </trkpt>
      <trkpt lat="48.85386" lon="2.35632">
        <ele>38.599998474121</ele>
        <time>2016-02-29T21:32:12.000Z</time>
      </trkpt>
      <trkpt lat="48.85395" lon="2.35608">
        <ele>38.200000762939</ele>
        <time>2016-02-29T21:32:15.000Z</time>
      </trkpt>
      <trkpt lat="48.85405" lon="2.35583">
        <ele>37.599998474121</ele>
        <time>2016-02-29T21:32:18.000Z</time>
      </trkpt>
      <trkpt lat="48.85415" lon="2.35559">
        <ele>39.400001525879</ele>
        <time>2016-02-29T21:32:21.000Z</time>
      </trkpt>
      <trkpt lat="48.85426" lon="2.35534">
        <ele>37.599998474121</ele>
        <time>2016-02-29T21:32:24.000Z</time>
      </trkpt>
      <trkpt lat="48.85437" lon="2.35508">
        <ele>35.599998474121</ele>
        <time>2016-02-29T21:32:27.000Z</time>
      </trkpt>
      <trkpt lat="48.85445" lon="2.35488">
        <ele>34.799999237061</ele>
        <time>2016-02-29T21:32:29.000Z</time>
      </trkpt>
      <trkpt lat="48.85454" lon="2.35463">
        <ele>34</ele>
        <time>2016-02-29T21:32:32.000Z</time>
      </trkpt>
      <trkpt lat="48.85457" lon="2.35455">
        <ele>33.799999237061</ele>
        <time>2016-02-29T21:32:33.000Z</time>
      </trkpt>
      <trkpt lat="48.85468" lon="2.3543">
        <ele>34.200000762939</ele>
        <time>2016-02-29T21:32:36.000Z</time>
      </trkpt>
      <trkpt lat="48.85479" lon="2.35404">
        <ele>35.599998474121</ele>
        <time>2016-02-29T21:32:39.000Z</time>
      </trkpt>
      <trkpt lat="48.8549" lon="2.35378">
        <ele>35</ele>
        <time>2016-02-29T21:32:42.000Z</time>
      </trkpt>
      <trkpt lat="48.85501" lon="2.35356">
        <ele>35.400001525879</ele>
        <time>2016-02-29T21:32:45.000Z</time>
      </trkpt>
      <trkpt lat="48.85509" lon="2.35337">
        <ele>35.400001525879</ele>
        <time>2016-02-29T21:32:48.000Z</time>
      </trkpt>
      <trkpt lat="48.85518" lon="2.35309">
        <ele>34.400001525879</ele>
        <time>2016-02-29T21:32:52.000Z</time>
      </trkpt>
      <trkpt lat="48.85534" lon="2.35293">
        <ele>34</ele>
        <time>2016-02-29T21:32:57.000Z</time>
      </trkpt>
      <trkpt lat="48.8554" lon="2.35292">
        <ele>34.400001525879</ele>
        <time>2016-02-29T21:32:59.000Z</time>
      </trkpt>
      <trkpt lat="48.85544" lon="2.35289">
        <ele>34.599998474121</ele>
        <time>2016-02-29T21:33:01.000Z</time>
      </trkpt>
      <trkpt lat="48.85549" lon="2.35282">
        <ele>34.200000762939</ele>
        <time>2016-02-29T21:33:05.000Z</time>
      </trkpt>
      <trkpt lat="48.85551" lon="2.35282">
        <ele>34.400001525879</ele>
        <time>2016-02-29T21:33:07.000Z</time>
      </trkpt>
      <trkpt lat="48.85545" lon="2.35259">
        <ele>32</ele>
        <time>2016-02-29T21:33:23.000Z</time>
      </trkpt>
      <trkpt lat="48.85553" lon="2.35232">
        <ele>33.200000762939</ele>
        <time>2016-02-29T21:33:31.000Z</time>
      </trkpt>
      <trkpt lat="48.8556" lon="2.352">
        <ele>34.799999237061</ele>
        <time>2016-02-29T21:33:38.000Z</time>
      </trkpt>
      <trkpt lat="48.85569" lon="2.35175">
        <ele>32.400001525879</ele>
        <time>2016-02-29T21:33:42.000Z</time>
      </trkpt>
      <trkpt lat="48.85579" lon="2.35148">
        <ele>32.200000762939</ele>
        <time>2016-02-29T21:33:46.000Z</time>
      </trkpt>
      <trkpt lat="48.85588" lon="2.35123">
        <ele>31.799999237061</ele>
        <time>2016-02-29T21:33:50.000Z</time>
      </trkpt>
      <trkpt lat="48.85599" lon="2.351">
        <ele>30.799999237061</ele>
        <time>2016-02-29T21:33:54.000Z</time>
      </trkpt>
      <trkpt lat="48.85615" lon="2.35083">
        <ele>30.799999237061</ele>
        <time>2016-02-29T21:33:58.000Z</time>
      </trkpt>
      <trkpt lat="48.85635" lon="2.3509">
        <ele>32.599998474121</ele>
        <time>2016-02-29T21:34:02.000Z</time>
      </trkpt>
      <trkpt lat="48.85639" lon="2.35094">
        <ele>33.200000762939</ele>
        <time>2016-02-29T21:34:03.000Z</time>
      </trkpt>
      <trkpt lat="48.8565" lon="2.351">
        <ele>34.200000762939</ele>
        <time>2016-02-29T21:34:05.000Z</time>
      </trkpt>
      <trkpt lat="48.85671" lon="2.35108">
        <ele>36</ele>
        <time>2016-02-29T21:34:09.000Z</time>
      </trkpt>
      <trkpt lat="48.85688" lon="2.35093">
        <ele>37.200000762939</ele>
        <time>2016-02-29T21:34:13.000Z</time>
      </trkpt>
      <trkpt lat="48.85694" lon="2.35071">
        <ele>37.799999237061</ele>
        <time>2016-02-29T21:34:16.000Z</time>
      </trkpt>
      <trkpt lat="48.85701" lon="2.35041">
        <ele>40</ele>
        <time>2016-02-29T21:34:20.000Z</time>
      </trkpt>
      <trkpt lat="48.85709" lon="2.35014">
        <ele>42</ele>
        <time>2016-02-29T21:34:24.000Z</time>
      </trkpt>
      <trkpt lat="48.85711" lon="2.35008">
        <ele>42.400001525879</ele>
        <time>2016-02-29T21:34:25.000Z</time>
      </trkpt>
      <trkpt lat="48.85715" lon="2.34999">
        <ele>43.200000762939</ele>
        <time>2016-02-29T21:34:27.000Z</time>
      </trkpt>
      <trkpt lat="48.85718" lon="2.34984">
        <ele>44.200000762939</ele>
        <time>2016-02-29T21:34:31.000Z</time>
      </trkpt>
      <trkpt lat="48.85718" lon="2.34977">
        <ele>44.599998474121</ele>
        <time>2016-02-29T21:34:34.000Z</time>
      </trkpt>
      <trkpt lat="48.85718" lon="2.34969">
        <ele>45.200000762939</ele>
        <time>2016-02-29T21:34:41.000Z</time>
      </trkpt>
      <trkpt lat="48.8572" lon="2.34959">
        <ele>46</ele>
        <time>2016-02-29T21:34:45.000Z</time>
      </trkpt>
      <trkpt lat="48.85731" lon="2.34931">
        <ele>45</ele>
        <time>2016-02-29T21:34:52.000Z</time>
      </trkpt>
      <trkpt lat="48.85736" lon="2.34912">
        <ele>43.200000762939</ele>
        <time>2016-02-29T21:34:55.000Z</time>
      </trkpt>
      <trkpt lat="48.85743" lon="2.34881">
        <ele>43.400001525879</ele>
        <time>2016-02-29T21:34:59.000Z</time>
      </trkpt>
      <trkpt lat="48.85752" lon="2.34848">
        <ele>41</ele>
        <time>2016-02-29T21:35:03.000Z</time>
      </trkpt>
      <trkpt lat="48.85758" lon="2.34822">
        <ele>39</ele>
        <time>2016-02-29T21:35:06.000Z</time>
      </trkpt>
      <trkpt lat="48.85768" lon="2.3479">
        <ele>39</ele>
        <time>2016-02-29T21:35:10.000Z</time>
      </trkpt>
      <trkpt lat="48.85778" lon="2.34759">
        <ele>40.400001525879</ele>
        <time>2016-02-29T21:35:14.000Z</time>
      </trkpt>
      <trkpt lat="48.85788" lon="2.34738">
        <ele>41</ele>
        <time>2016-02-29T21:35:17.000Z</time>
      </trkpt>
      <trkpt lat="48.85809" lon="2.34735">
        <ele>42.599998474121</ele>
        <time>2016-02-29T21:35:21.000Z</time>
      </trkpt>
      <trkpt lat="48.8582" lon="2.34738">
        <ele>43.599998474121</ele>
        <time>2016-02-29T21:35:23.000Z</time>
      </trkpt>
      <trkpt lat="48.85841" lon="2.34743">
        <ele>45.599998474121</ele>
        <time>2016-02-29T21:35:27.000Z</time>
      </trkpt>
      <trkpt lat="48.85859" lon="2.34745">
        <ele>47</ele>
        <time>2016-02-29T21:35:32.000Z</time>
      </trkpt>
      <trkpt lat="48.85877" lon="2.34741">
        <ele>46.400001525879</ele>
        <time>2016-02-29T21:35:36.000Z</time>
      </trkpt>
      <trkpt lat="48.85895" lon="2.3474">
        <ele>45.799999237061</ele>
        <time>2016-02-29T21:35:40.000Z</time>
      </trkpt>
      <trkpt lat="48.85911" lon="2.34727">
        <ele>45.599998474121</ele>
        <time>2016-02-29T21:35:44.000Z</time>
      </trkpt>
      <trkpt lat="48.85932" lon="2.34712">
        <ele>45.400001525879</ele>
        <time>2016-02-29T21:35:49.000Z</time>
      </trkpt>
      <trkpt lat="48.85936" lon="2.34711">
        <ele>45.400001525879</ele>
        <time>2016-02-29T21:35:50.000Z</time>
      </trkpt>
      <trkpt lat="48.85941" lon="2.34708">
        <ele>45.400001525879</ele>
        <time>2016-02-29T21:35:52.000Z</time>
      </trkpt>
      <trkpt lat="48.85951" lon="2.34716">
        <ele>45.200000762939</ele>
        <time>2016-02-29T21:35:57.000Z</time>
      </trkpt>
      <trkpt lat="48.85954" lon="2.34703">
        <ele>45.799999237061</ele>
        <time>2016-02-29T21:36:33.000Z</time>
      </trkpt>
    </trkseg>
  </trk>
</gpx>